Date StartTime U_cm/s V_cm/s W_cm/s Ustd_cm/s Vstd_cm/s Wstd_cm/s Uvar_(cm/s)^2 Vvar_(cm/s)^2 Wvar_(cm/s)^2 KE_(m/s)^2 TurbulentKE_(m/s)^2 HorizWindSpeed_cm/s FrictionSpeec_cm/s DragCoef SpeedOfSound_m/s SonicTemperature_C Pressure_mb 
10/27/2013  00:00:00      -58.054      -26.727        2.669       31.598       14.161       14.438      998.424      200.525      208.453        0.275        0.070       63.911       16.600        0.067      336.995        8.670      864.428
10/27/2013  00:01:00      -28.083      -19.852       -1.862       14.281        9.970       11.825      203.937       99.402      139.822        0.081        0.022       34.391       10.356        0.091      337.006        8.687      864.432
10/27/2013  00:02:00      -40.837      -15.297       -3.924       11.079       10.630        7.762      122.749      112.990       60.254        0.111        0.015       43.608        5.658        0.017      337.007        8.689      864.440
10/27/2013  00:03:00      -60.870      -15.773       -6.585        9.802        8.677        7.110       96.082       75.292       50.556        0.211        0.011       62.880        4.418        0.005      336.950        8.593      864.433
10/27/2013  00:04:00      -44.463      -13.622       -0.747       10.923       11.314        8.777      119.321      127.995       77.030        0.124        0.016       46.503        7.371        0.025      336.973        8.634      864.426
10/27/2013  00:05:00      -23.118      -13.704        0.540       24.047       11.628       12.073      578.276      135.214      145.759        0.079        0.043       26.875       12.051        0.201      336.956        8.605      864.446
10/27/2013  00:06:00      -34.017       -8.056        2.305       12.745       10.407        7.057      162.423      108.312       49.802        0.077        0.016       34.958        2.845        0.007      336.901        8.512      864.457
10/27/2013  00:07:00      -77.149       -2.043       -5.638       10.805        7.401        7.505      116.745       54.769       56.329        0.311        0.011       77.176        3.609        0.002      336.849        8.429      864.438
10/27/2013  00:08:00      -70.529       -5.929       -9.100       11.763        8.282        6.385      138.372       68.593       40.762        0.267        0.012       70.778        4.794        0.005      336.796        8.339      864.412
10/27/2013  00:09:00      -30.717      -23.806        4.185       32.411       15.503       14.557     1050.454      240.330      211.918        0.151        0.075       38.861       14.368        0.137      336.806        8.355      864.418
10/27/2013  00:10:00      -34.489      -13.519        5.950       32.970       19.779       16.543     1087.016      391.217      273.672        0.158        0.088       37.044       17.566        0.225      336.724        8.220      864.418
10/27/2013  00:11:00      -90.963      -38.378       -6.262        9.850       11.126        7.403       97.024      123.791       54.806        0.503        0.014       98.728        4.625        0.002      336.742        8.248      864.399
10/27/2013  00:12:00      -80.737      -23.084       -9.828        9.242        8.881        5.955       85.420       78.863       35.464        0.367        0.010       83.972        3.526        0.002      336.763        8.284      864.381
10/27/2013  00:13:00      -63.093      -26.701       -5.395       15.193       12.830        8.217      230.829      164.619       67.514        0.259        0.023       68.511        5.644        0.007      336.813        8.366      864.374
10/27/2013  00:14:00      -57.190      -23.794       -3.825       17.304       11.749       11.728      299.433      138.043      137.556        0.221        0.029       61.943        9.806        0.025      336.784        8.320      864.364
10/27/2013  00:15:00      -67.676      -34.396       -1.402       13.151       10.668       10.537      172.944      113.815      111.031        0.308        0.020       75.915        7.128        0.009      336.740        8.246      864.355
10/27/2013  00:16:00      -90.358      -17.633      -11.789        8.381       11.616        7.023       70.235      134.936       49.328        0.443        0.013       92.062        4.295        0.002      336.806        8.355      864.348
10/27/2013  00:17:00      -88.933       -1.964      -13.996        9.136        7.592        8.902       83.471       57.645       79.250        0.416        0.011       88.954        4.770        0.003      336.757        8.275      864.346
10/27/2013  00:18:00      -79.772      -13.697      -12.987       12.771       15.128        8.381      163.092      228.862       70.238        0.359        0.023       80.939        5.227        0.004      336.773        8.301      864.347
10/27/2013  00:19:00      -66.442      -12.763       -8.741       21.868       12.339       11.903      478.190      152.251      141.681        0.271        0.039       67.657        9.011        0.018      336.790        8.329      864.349
10/27/2013  00:20:00      -72.862      -10.612       -8.301       14.251        9.665        8.125      203.091       93.408       66.018        0.293        0.018       73.631        3.063        0.002      336.790        8.329      864.351
10/27/2013  00:21:00      -73.576      -38.088       -8.324       11.300       12.609        6.443      127.685      158.993       41.513        0.363        0.016       82.850        4.245        0.003      336.680        8.144      864.372
10/27/2013  00:22:00      -74.277      -37.274       -5.063        9.994       12.849        8.910       99.880      165.102       79.388        0.364        0.017       83.106        6.288        0.006      336.454        7.768      864.382
10/27/2013  00:23:00      -86.392       -6.700      -12.759        8.580       12.047        9.257       73.621      145.135       85.685        0.399        0.015       86.652        4.626        0.003      336.549        7.925      864.375
10/27/2013  00:24:00      -97.205      -22.414      -14.409       12.737       14.791        8.916      162.220      218.765       79.502        0.531        0.023       99.756        6.825        0.005      336.503        7.850      864.367
10/27/2013  00:25:00      -99.994      -29.763      -15.652       10.009       11.052        8.569      100.173      122.144       73.431        0.571        0.015      104.330        5.603        0.003      336.382        7.646      864.373
10/27/2013  00:26:00      -97.915      -44.845      -15.559       13.818       16.049       11.005      190.945      257.558      121.107        0.620        0.028      107.696        4.042        0.001      336.378        7.639      864.375
10/27/2013  00:27:00      -83.352      -37.164      -16.404       23.842       23.450       14.408      568.454      549.922      207.598        0.496        0.066       91.262       13.862        0.023      336.372        7.630      864.377
10/27/2013  00:28:00      -96.928      -14.559      -13.676       24.887       21.854       14.865      619.372      477.600      220.979        0.556        0.066       98.015       11.182        0.013      336.282        7.477      864.380
10/27/2013  00:29:00     -107.472      -15.827      -14.882       16.004       16.415       10.714      256.116      269.444      114.796        0.633        0.032      108.631        9.106        0.007      336.251        7.428      864.386
10/27/2013  00:30:00      -71.622      -12.801      -11.918       20.986       16.024       11.984      440.406      256.771      143.612        0.314        0.042       72.757       10.820        0.022      336.252        7.429      864.386
10/27/2013  00:31:00      -53.470       -8.587      -13.915       15.761       23.274       10.282      248.417      541.683      105.713        0.201        0.045       54.155        4.938        0.008      336.439        7.741      864.381
10/27/2013  00:32:00      -73.774      -18.340      -13.163       11.680       17.385        9.781      136.412      302.243       95.667        0.324        0.027       76.019        8.675        0.013      336.440        7.745      864.369
10/27/2013  00:33:00      -83.830       -2.014      -18.471       14.680       11.996        9.298      215.503      143.903       86.455        0.391        0.022       83.854        8.305        0.010      336.390        7.660      864.370
10/27/2013  00:34:00      -64.458      -19.518      -12.012       14.586       16.533       13.980      212.750      273.353      195.446        0.268        0.034       67.349       11.587        0.030      336.317        7.538      864.361
10/27/2013  00:35:00      -59.328      -37.206       -6.679       17.379       15.656       14.209      302.013      245.106      201.909        0.285        0.037       70.029        4.732        0.005      336.337        7.573      864.358
10/27/2013  00:36:00      -64.891      -35.410      -17.948       20.290       17.985       13.525      411.669      323.457      182.934        0.335        0.046       73.924        7.978        0.012      336.296        7.504      864.350
10/27/2013  00:37:00      -61.492      -19.249       -7.291       15.910       17.053        8.426      253.132      290.817       70.994        0.241        0.031       64.435        7.567        0.014      336.354        7.600      864.335
10/27/2013  00:38:00      -52.672       -1.559      -10.703       13.541       14.389        8.793      183.363      207.031       77.322        0.168        0.023       52.696        6.181        0.014      336.432        7.729      864.338
10/27/2013  00:39:00      -60.303      -10.779       -7.768       10.147       10.708        8.518      102.955      114.669       72.561        0.205        0.015       61.259        4.047        0.004      336.554        7.935      864.339
10/27/2013  00:40:00      -41.327       -4.910       -6.667       16.708       10.377       10.692      279.151      107.683      114.316        0.114        0.025       41.618        9.042        0.047      336.610        8.028      864.337
10/27/2013  00:41:00      -13.348       -9.101       -2.648       16.228        7.842        7.483      263.345       61.489       56.002        0.032        0.019       16.156        3.780        0.055      336.741        8.246      864.332
10/27/2013  00:42:00        6.701      -20.167       -1.821        8.224       16.094        7.747       67.630      259.017       60.019        0.042        0.019       21.251        5.604        0.070      336.794        8.334      864.343
10/27/2013  00:43:00       10.064      -19.491        0.500        7.700        9.486        8.492       59.284       89.992       72.120        0.035        0.011       21.936        4.843        0.049      336.842        8.414      864.337
10/27/2013  00:44:00       -7.037      -13.005       -3.408       15.346       10.620        5.419      235.513      112.789       29.361        0.030        0.019       14.787        5.146        0.121      336.921        8.546      864.322
10/27/2013  00:45:00      -53.745       -9.122       -9.071       14.803       11.191        6.570      219.128      125.246       43.162        0.172        0.019       54.513        6.532        0.014      336.559        7.943      864.313
10/27/2013  00:46:00      -59.142       -4.657      -14.294       13.016        7.601        7.338      169.403       57.777       53.842        0.200        0.014       59.325        5.008        0.007      336.499        7.841      864.299
10/27/2013  00:47:00      -74.175        2.214      -17.796       10.290       10.304        9.565      105.890      106.166       91.491        0.306        0.015       74.208        4.280        0.003      336.540        7.910      864.278
10/27/2013  00:48:00      -66.693       -1.140      -15.904        6.268        8.075        6.822       39.293       65.203       46.545        0.243        0.008       66.703        4.708        0.005      336.829        8.394      864.270
10/27/2013  00:49:00      -49.300      -12.145      -10.302        7.002       10.339        8.768       49.024      106.897       76.871        0.146        0.012       50.774        4.680        0.008      336.634        8.068      864.259
10/27/2013  00:50:00      -55.627      -23.570      -10.396        7.255       12.612        5.735       52.637      159.066       32.891        0.200        0.012       60.415        2.021        0.001      336.593        7.999      864.241
10/27/2013  00:51:00      -50.605      -19.087      -19.052       13.170       14.559       14.640      173.438      211.967      214.324        0.194        0.030       54.085        8.018        0.022      336.586        7.986      864.246
10/27/2013  00:52:00      -69.589      -18.581      -17.085       14.438       18.498       10.976      208.464      342.183      120.481        0.308        0.034       72.027        7.963        0.012      336.525        7.885      864.240
10/27/2013  00:53:00      -86.439      -16.019      -16.038       13.912        8.675        8.975      193.538       75.257       80.542        0.417        0.017       87.910        5.293        0.004      336.392        7.662      864.219
10/27/2013  00:54:00      -75.112      -18.016       -6.943       22.456       23.064       16.994      504.259      531.936      288.806        0.367        0.066       77.243       14.437        0.035      336.324        7.550      864.207
10/27/2013  00:55:00      -77.803       -4.134      -12.971       31.396       25.077       16.892      985.698      628.875      285.338        0.407        0.095       77.913       18.740        0.058      336.487        7.821      864.192
10/27/2013  00:56:00     -117.760       25.060      -17.490       12.159       13.071        9.684      147.849      170.841       93.772        0.761        0.021      120.397        7.412        0.004      336.601        8.014      864.172
10/27/2013  00:57:00      -88.750       13.255      -16.856       19.829        9.676        7.187      393.192       93.624       51.649        0.444        0.027       89.735        6.225        0.005      336.816        8.372      864.161
10/27/2013  00:58:00      -72.944       -2.104      -16.060        6.587       12.314        6.124       43.385      151.624       37.505        0.291        0.012       72.975        4.476        0.004      336.794        8.335      864.148
10/27/2013  00:59:00      -84.912      -10.590      -16.781       18.154       16.619       14.325      329.579      276.175      205.215        0.421        0.041       85.570        9.970        0.014      336.357        7.603      864.141
10/27/2013  01:00:00      -80.094      -23.307      -13.966       30.116       19.788       16.570      906.974      391.554      274.574        0.436        0.079       83.416       11.796        0.020      336.302        7.513      864.146
10/27/2013  01:01:00      -46.332      -23.983        7.284       28.986       20.869       21.028      840.193      435.512      442.192        0.225        0.086       52.171       15.122        0.084      336.276        7.469      864.161
10/27/2013  01:02:00      -50.975      -28.928        0.246       24.801       15.233       18.255      615.105      232.036      333.243        0.231        0.059       58.611       16.196        0.076      336.323        7.547      864.164
10/27/2013  01:03:00      -91.868      -56.605       -7.852       29.856       26.743       17.411      891.381      715.199      303.143        0.681        0.095      107.907       11.444        0.011      336.433        7.729      864.154
10/27/2013  01:04:00     -120.830      -37.687      -18.581       15.449       17.298       14.125      238.681      299.205      199.525        0.855        0.037      126.571        4.990        0.002      336.611        8.030      864.150
10/27/2013  01:05:00     -122.562      -10.070      -17.699       11.307       19.978        9.894      127.844      399.124       97.886        0.803        0.031      122.975        8.914        0.005      336.730        8.230      864.118
10/27/2013  01:06:00     -135.790      -12.338      -19.373       14.711       12.084        9.328      216.425      146.012       87.003        0.971        0.022      136.350        5.288        0.002      336.776        8.305      864.092
10/27/2013  01:07:00     -129.040      -46.882      -13.670       22.907       27.796       16.288      524.725      772.639      265.286        1.030        0.078      137.292       15.722        0.013      336.461        7.779      864.088
10/27/2013  01:08:00     -122.220      -62.488       -3.631       20.967       22.468       18.048      439.634      504.829      325.728        1.006        0.064      137.268       13.515        0.010      336.356        7.603      864.081
10/27/2013  01:09:00     -108.247      -31.624      -10.066       27.468       18.519       17.810      754.466      342.941      317.214        0.712        0.071      112.772       13.220        0.014      336.313        7.531      864.083
10/27/2013  01:10:00      -62.727      -49.866       -1.069       32.590       21.526       16.953     1062.140      463.381      287.400        0.412        0.091       80.133       15.277        0.036      336.458        7.774      864.102
10/27/2013  01:11:00      -76.025      -38.460       -8.208       26.316       15.536       11.410      692.536      241.378      130.183        0.420        0.053       85.199        4.067        0.002      336.439        7.743      864.101
10/27/2013  01:12:00      -94.120      -28.496      -13.437       16.148       16.827       12.302      260.760      283.149      151.351        0.527        0.035       98.339        8.640        0.008      336.447        7.754      864.079
10/27/2013  01:13:00      -93.093      -28.461       -7.974       18.403       16.334       15.824      338.652      266.805      250.412        0.520        0.043       97.346       12.502        0.016      336.429        7.723      864.060
10/27/2013  01:14:00     -104.653      -34.120       -9.095       13.765       14.737       10.096      189.480      217.180      101.937        0.635        0.025      110.074        7.712        0.005      336.363        7.616      864.056
10/27/2013  01:15:00     -116.688      -57.184      -13.958       12.759       12.172       10.113      162.800      148.153      102.266        0.875        0.021      129.946        4.031        0.001      336.255        7.435      864.052
10/27/2013  01:16:00     -109.131      -66.279       -3.331       22.741       21.798       17.941      517.170      475.144      321.872        0.881        0.066      127.681       12.380        0.009      336.204        7.350      864.057
10/27/2013  01:17:00      -99.063      -37.050       -4.281       20.536       14.742       11.341      421.721      217.333      128.611        0.599        0.038      105.765        7.791        0.005      336.232        7.396      864.063
10/27/2013  01:18:00      -71.485      -38.226       -2.860       12.604       15.182       10.099      158.850      230.502      101.983        0.354        0.025       81.064        8.885        0.012      336.362        7.614      864.043
10/27/2013  01:19:00      -80.536      -25.863       -7.676       23.863       18.289       16.832      569.446      334.470      283.308        0.420        0.059       84.587       15.698        0.034      336.305        7.517      864.021
10/27/2013  01:20:00     -114.181      -32.239      -13.161       21.983       16.859       13.853      483.237      284.227      191.896        0.760        0.048      118.645       14.709        0.015      336.304        7.516      864.016
10/27/2013  01:21:00     -125.795      -48.632      -15.439       16.283       17.926        9.247      265.122      321.356       85.516        0.955        0.034      134.868        5.247        0.002      336.296        7.502      864.005
10/27/2013  01:22:00     -141.997      -66.738      -15.478       10.509       16.635       10.663      110.448      276.725      113.709        1.268        0.025      156.899        4.629        0.001      336.251        7.429      863.993
10/27/2013  01:23:00     -131.766      -57.039      -11.264       12.269       16.159       12.684      150.540      261.117      160.890        1.066        0.029      143.581        9.486        0.004      336.289        7.491      863.979
10/27/2013  01:24:00     -113.899      -35.952       -5.423       20.739       17.387       13.582      430.112      302.313      184.465        0.761        0.046      119.438        7.919        0.004      336.322        7.546      863.961
10/27/2013  01:25:00     -130.623      -59.510      -10.412       17.238       17.176       12.051      297.164      295.009      145.219        1.072        0.037      143.540        4.571        0.001      336.475        7.803      863.947
10/27/2013  01:26:00      -93.153      -39.860        2.340       30.632       18.444       14.134      938.320      340.178      199.779        0.587        0.074      101.323       15.921        0.025      336.368        7.622      863.939
10/27/2013  01:27:00      -94.373      -35.496       -1.383       14.179       19.839       15.118      201.037      393.587      228.545        0.550        0.041      100.828        8.202        0.007      336.361        7.611      863.935
10/27/2013  01:28:00     -105.654      -21.305      -10.299       15.739       15.590       13.278      247.717      243.035      176.306        0.619        0.033      107.781       11.292        0.011      336.353        7.599      863.927
10/27/2013  01:29:00     -119.014      -40.361      -11.529       19.837       19.867       13.558      393.504      394.713      183.808        0.845        0.049      125.672       11.779        0.009      336.291        7.494      863.918
10/27/2013  01:30:00     -113.751      -55.532       -1.667       19.713       18.100       11.230      388.597      327.603      126.114        0.843        0.042      126.582        9.458        0.006      336.224        7.382      863.911
10/27/2013  01:31:00     -112.074      -62.588       -3.000       24.938       15.668       15.113      621.914      245.472      228.404        0.879        0.055      128.366       12.088        0.009      336.131        7.225      863.919
10/27/2013  01:32:00     -119.926      -27.313      -17.594       15.023       18.813        9.294      225.684      353.946       86.375        0.805        0.033      122.996        5.581        0.002      336.111        7.193      863.925
10/27/2013  01:33:00     -110.867      -20.442      -15.435       16.482       12.742       10.662      271.663      162.352      113.676        0.675        0.027      112.736        4.561        0.002      336.129        7.224      863.926
10/27/2013  01:34:00     -110.536      -30.827      -18.537       11.903       11.282       12.786      141.676      127.287      163.486        0.697        0.022      114.755        9.501        0.007      336.138        7.238      863.925
10/27/2013  01:35:00      -46.786      -43.040        3.747       39.301       24.027       17.437     1544.604      577.282      304.044        0.324        0.121       63.572       20.841        0.107      336.178        7.306      863.925
10/27/2013  01:36:00      -10.445      -45.048       -3.021       23.071       21.097       15.908      532.284      445.074      253.076        0.169        0.062       46.243       12.682        0.075      336.259        7.439      863.936
10/27/2013  01:37:00      -60.173      -72.249       -5.451       29.027       34.303       25.793      842.580     1176.716      665.276        0.578        0.134       94.025       13.382        0.020      336.406        7.687      863.952
10/27/2013  01:38:00      -99.881      -76.592      -14.860       36.000       38.164       20.388     1295.966     1456.503      415.670        0.962        0.158      125.867       18.687        0.022      336.550        7.927      863.951
10/27/2013  01:39:00     -114.035      -75.833      -12.196       42.941       26.833       19.619     1843.892      719.996      384.910        1.093        0.147      136.948       17.520        0.016      336.423        7.714      863.934
10/27/2013  01:40:00     -113.652      -71.351       -3.809       23.102       24.306       18.066      533.712      590.781      326.378        0.974        0.073      134.193        8.774        0.004      336.393        7.664      863.931
10/27/2013  01:41:00     -126.741      -65.446        1.466       38.884       26.248       20.777     1511.928      688.941      431.688        1.149        0.132      142.640       22.171        0.024      336.353        7.597      863.933
10/27/2013  01:42:00     -105.199      -55.270       -5.054       43.328       25.272       18.376     1877.281      638.675      337.692        0.850        0.143      118.834       19.872        0.028      336.259        7.440      863.930
10/27/2013  01:43:00      -97.919      -41.762        4.505       38.723       28.240       19.405     1499.499      797.497      376.535        0.701        0.134      106.453       18.289        0.030      336.183        7.314      863.917
10/27/2013  01:44:00      -79.270      -44.839        6.308       39.941       25.074       20.186     1595.272      628.692      407.490        0.548        0.132       91.073       19.670        0.047      336.205        7.350      863.908
10/27/2013  01:45:00      -85.573      -33.453        2.727       33.147       28.564       20.624     1098.746      815.913      425.335        0.539        0.117       91.879       19.433        0.045      336.211        7.360      863.917
10/27/2013  01:46:00      -60.984      -32.387        5.211       43.732       25.836       18.106     1912.501      667.485      327.825        0.385        0.145       69.051       21.390        0.096      336.264        7.450      863.921
10/27/2013  01:47:00      -70.701      -28.959        3.961       37.713       24.868       16.547     1422.265      618.428      273.818        0.408        0.116       76.402       20.405        0.071      336.251        7.426      863.910
10/27/2013  01:48:00     -109.436      -20.251       -3.446       26.253       22.867       13.730      689.224      522.898      188.504        0.690        0.070      111.294       12.725        0.013      336.234        7.398      863.890
10/27/2013  01:49:00     -158.989       -3.790      -12.533       22.736       20.315       14.077      516.928      412.708      198.154        1.329        0.056      159.034       11.784        0.005      336.120        7.209      863.876
10/27/2013  01:50:00      -96.773      -23.315       -4.684       40.125       26.920       19.730     1610.050      724.702      389.281        0.633        0.136       99.542       20.269        0.041      336.142        7.244      863.872
10/27/2013  01:51:00     -109.166      -30.867       -5.609       23.497       15.415       14.254      552.113      237.624      203.176        0.695        0.050      113.446       13.047        0.013      336.122        7.212      863.863
10/27/2013  01:52:00     -115.886      -28.328      -17.348       22.426       15.359       16.237      502.940      235.907      263.639        0.777        0.050      119.298       11.432        0.009      336.143        7.246      863.855
10/27/2013  01:53:00     -106.891      -36.285      -10.604       24.412       15.783       12.063      595.945      249.089      145.509        0.692        0.050      112.882       11.654        0.011      336.197        7.336      863.853
10/27/2013  01:54:00      -94.807      -34.433       -3.144       30.088       18.525       15.012      905.290      343.178      225.352        0.583        0.074      100.866       16.263        0.026      336.095        7.166      863.853
10/27/2013  01:55:00      -78.399      -32.730       -4.978       20.380       13.807       12.159      415.338      190.639      147.853        0.400        0.038       84.956       10.956        0.017      336.162        7.278      863.838
10/27/2013  01:56:00      -75.755      -36.945       -0.847       18.432       18.082       12.994      339.755      326.964      168.832        0.397        0.042       84.284       12.321        0.021      336.154        7.266      863.817
10/27/2013  01:57:00      -93.408      -34.475       -6.481       17.983       18.045       10.270      323.403      325.632      105.476        0.535        0.038       99.566        4.782        0.002      336.155        7.267      863.794
10/27/2013  01:58:00      -58.855      -38.829       11.284       33.917       21.309       18.404     1150.348      454.092      338.716        0.352        0.097       70.509       19.918        0.080      336.123        7.213      863.786
10/27/2013  01:59:00      -89.989      -22.430        0.173       24.271       24.092       15.727      589.069      580.427      247.338        0.501        0.071       92.742       12.019        0.017      336.056        7.101      863.778
10/27/2013  02:00:00     -134.396      -18.299      -14.052       18.314       15.436       10.401      335.393      238.255      108.182        0.964        0.034      135.636        7.459        0.003      336.108        7.187      863.761
10/27/2013  02:01:00     -111.031      -31.919       -2.756       26.790       17.966       13.454      717.687      322.762      181.008        0.729        0.061      115.528       12.539        0.012      335.995        7.000      863.749
10/27/2013  02:02:00     -104.661      -18.358       -3.096       28.138       23.156       17.043      791.748      536.220      290.456        0.646        0.081      106.259       16.917        0.025      335.946        6.917      863.757
10/27/2013  02:03:00     -114.524       -7.828       -5.310       37.594       23.894       19.540     1413.330      570.938      381.811        0.779        0.118      114.791       17.857        0.024      335.969        6.955      863.760
10/27/2013  02:04:00     -127.114      -34.744      -11.583       20.955       18.028       15.995      439.107      325.014      255.836        0.926        0.051      131.777       12.611        0.009      335.963        6.945      863.745
10/27/2013  02:05:00     -139.222      -78.122      -12.789       17.838       23.618       19.237      318.203      557.819      370.054        1.345        0.062      159.643       11.024        0.005      335.782        6.645      863.747
10/27/2013  02:06:00     -115.303      -43.305      -17.890       36.431       32.522       19.399     1327.216     1057.709      376.316        0.913        0.138      123.167       13.097        0.011      335.779        6.640      863.759
10/27/2013  02:07:00      -43.572      -47.285       -2.519       22.940       22.028       16.343      526.238      485.227      267.098        0.271        0.064       64.299        5.703        0.008      335.787        6.654      863.745
10/27/2013  02:08:00      -93.632      -44.038      -14.326       35.099       19.839       14.112     1231.909      393.581      199.155        0.637        0.091      103.471        8.880        0.007      335.725        6.551      863.736
10/27/2013  02:09:00     -147.852      -44.512      -27.032       24.949       23.934       17.877      622.465      572.854      319.585        1.304        0.076      154.407        9.311        0.004      335.660        6.442      863.728
10/27/2013  02:10:00     -100.355      -58.588      -14.521       50.659       34.666       24.449     2566.373     1201.731      597.769        0.904        0.218      116.206       26.159        0.051      335.606        6.352      863.708
10/27/2013  02:11:00      -41.195      -10.926        4.457       46.948       37.652       21.363     2204.100     1417.649      456.378        0.296        0.204       42.620       25.806        0.367      335.637        6.403      863.699
10/27/2013  02:12:00       -6.686      -23.185       -1.240       14.829       21.630       13.456      219.909      467.876      181.060        0.073        0.043       24.130        7.116        0.087      335.777        6.637      863.697
10/27/2013  02:13:00      -55.955      -22.389       -8.270       17.438       18.572       14.918      304.088      344.925      222.547        0.229        0.044       60.268       10.107        0.028      335.900        6.842      863.689
10/27/2013  02:14:00      -80.384      -20.556      -15.476       18.036       19.589       13.358      325.304      383.742      178.429        0.401        0.044       82.971       11.035        0.018      335.725        6.550      863.678
10/27/2013  02:15:00      -83.966      -16.038       -8.893       28.405       20.655       14.681      806.867      426.639      215.522        0.442        0.072       85.484       14.277        0.028      335.701        6.511      863.677
10/27/2013  02:16:00      -76.260      -20.227      -10.862       28.774       24.599       17.373      827.922      605.107      301.832        0.404        0.087       78.897       14.132        0.032      335.693        6.496      863.658
10/27/2013  02:17:00      -89.870      -38.572       -4.799       21.933       13.808       11.369      481.040      190.670      129.247        0.519        0.040       97.798        8.144        0.007      335.711        6.528      863.653
10/27/2013  02:18:00      -61.294      -30.225      -11.842       14.654       13.504       10.586      214.729      182.351      112.065        0.266        0.025       68.341        7.610        0.012      335.793        6.664      863.650
10/27/2013  02:19:00      -49.030      -37.684       -5.879       19.113       11.244       11.182      365.316      126.432      125.047        0.224        0.031       61.839        9.836        0.025      335.770        6.625      863.649
10/27/2013  02:20:00      -70.083      -23.782      -10.879       18.143       16.899       11.200      329.171      285.587      125.439        0.317        0.037       74.008       13.345        0.033      335.742        6.579      863.619
10/27/2013  02:21:00      -79.436      -11.798      -14.662        8.808       11.430        7.213       77.586      130.634       52.026        0.346        0.013       80.307        4.043        0.003      335.778        6.640      863.593
10/27/2013  02:22:00      -92.129      -32.013      -12.456       17.058       12.553        8.688      290.979      157.569       75.479        0.510        0.026       97.532        4.894        0.003      335.808        6.691      863.585
10/27/2013  02:23:00     -114.314      -52.437       -8.794       11.922       14.438        8.817      142.133      208.455       77.743        0.816        0.021      125.767        5.021        0.002      335.854        6.765      863.590
10/27/2013  02:24:00     -136.013      -22.524      -17.462       13.161       17.248        9.559      173.225      297.483       91.383        0.994        0.028      137.865        4.793        0.001      335.907        6.853      863.557
10/27/2013  02:25:00     -141.145       -4.070      -16.911       10.067       13.070        9.251      101.340      170.817       85.583        1.029        0.018      141.204        8.443        0.004      335.902        6.846      863.533
10/27/2013  02:26:00     -105.012      -13.809      -14.185       31.523       16.153       15.002      993.683      260.934      225.072        0.645        0.074      105.916       16.638        0.025      335.800        6.675      863.528
10/27/2013  02:27:00      -44.503       -7.549       -8.889       21.443       17.533       18.149      459.783      307.418      329.393        0.161        0.055       45.139       13.804        0.094      335.723        6.548      863.519
10/27/2013  02:28:00      -57.912      -19.842      -11.669       15.710       16.876       11.349      246.818      284.807      128.792        0.227        0.033       61.217        9.111        0.022      335.841        6.744      863.507
10/27/2013  02:29:00      -95.217      -30.785      -16.169       18.623       11.677       10.247      346.819      136.346      105.008        0.543        0.029      100.070        8.394        0.007      335.764        6.615      863.493
10/27/2013  02:30:00     -107.169      -31.769      -22.807       11.399       13.167        9.792      129.926      173.380       95.882        0.671        0.020      111.779        7.913        0.005      335.653        6.431      863.479
10/27/2013  02:31:00      -88.439      -39.188      -14.609       16.412       17.299       12.754      269.361      299.239      162.652        0.515        0.037       96.733        8.004        0.007      335.607        6.353      863.475
10/27/2013  02:32:00      -74.310      -33.612      -16.150       18.273       18.435       11.804      333.914      339.842      139.336        0.386        0.041       81.559        8.557        0.011      335.595        6.334      863.474
10/27/2013  02:33:00      -34.213      -35.039       -1.590       28.041       22.264       15.069      786.302      495.695      227.072        0.195        0.075       48.972        7.950        0.026      335.581        6.309      863.480
10/27/2013  02:34:00      -84.110      -21.629      -10.144        7.231        8.384        6.149       52.290       70.288       37.806        0.390        0.008       86.847        4.365        0.003      335.580        6.308      863.489
10/27/2013  02:35:00      -65.772      -19.123      -10.443       11.952       11.759        9.557      142.862      138.272       91.340        0.259        0.019       68.496        4.726        0.005      335.758        6.606      863.493
10/27/2013  02:36:00      -91.344      -14.683      -14.261       13.742        9.065        9.364      188.834       82.175       87.691        0.456        0.018       92.516        4.725        0.003      335.760        6.610      863.486
10/27/2013  02:37:00     -105.356       -2.095      -21.323        7.124       10.662        7.902       50.750      113.681       62.440        0.589        0.011      105.377        6.240        0.004      335.660        6.444      863.472
10/27/2013  02:38:00      -99.122        6.342      -22.103       17.029        9.951        9.196      289.977       99.018       84.563        0.541        0.024       99.325        6.434        0.004      335.585        6.318      863.447
10/27/2013  02:39:00      -79.228        5.179      -18.981       13.821        9.489       10.141      191.023       90.049      102.830        0.352        0.019       79.397        7.342        0.009      335.690        6.491      863.425
10/27/2013  02:40:00      -84.472      -14.142      -19.715       12.917       14.127       11.842      166.853      199.567      140.221        0.412        0.025       85.647        8.140        0.009      335.552        6.261      863.425
10/27/2013  02:41:00      -81.452      -15.729      -12.684       20.397       18.865       10.042      416.023      355.885      100.842        0.396        0.044       82.957        9.642        0.014      335.592        6.330      863.419
10/27/2013  02:42:00      -78.766      -48.433      -13.904       18.160       20.585       11.894      329.792      423.745      141.477        0.482        0.045       92.466       10.821        0.014      335.532        6.228      863.403
10/27/2013  02:43:00      -98.850      -43.638       -9.748       13.352       17.983       11.049      178.267      323.391      122.071        0.620        0.031      108.053       10.271        0.009      335.449        6.090      863.401
10/27/2013  02:44:00     -111.213      -38.290      -15.892       26.813       12.503       13.658      718.953      156.313      186.541        0.757        0.053      117.620       13.309        0.013      335.468        6.122      863.402
10/27/2013  02:45:00     -102.175      -27.573      -17.493       14.396       13.527        9.319      207.244      182.973       86.847        0.599        0.024      105.830        3.114        0.001      335.552        6.262      863.403
10/27/2013  02:46:00      -86.300      -18.235      -12.965       18.518       18.608       11.199      342.899      346.249      125.424        0.438        0.041       88.206       10.675        0.015      335.563        6.279      863.376
10/27/2013  02:47:00     -106.941        1.703      -17.106       16.211       10.121        9.079      262.789      102.431       82.423        0.609        0.022      106.954        8.898        0.007      335.593        6.330      863.348
10/27/2013  02:48:00     -113.127      -11.516      -14.970       24.286       18.030       16.754      589.788      325.088      280.705        0.717        0.060      113.712       15.019        0.017      335.513        6.197      863.343
10/27/2013  02:49:00     -104.502       -2.490      -19.168       23.722       27.033       16.069      562.750      730.806      258.211        0.642        0.078      104.532       14.924        0.020      335.492        6.162      863.349
10/27/2013  02:50:00      -89.525      -34.878      -12.399       16.902       22.054       16.393      285.679      486.375      268.735        0.521        0.052       96.079        8.003        0.007      335.466        6.119      863.356
10/27/2013  02:51:00     -109.377      -31.377      -23.864       22.826       20.237       16.667      521.038      409.554      277.774        0.736        0.060      113.788       13.773        0.015      335.473        6.129      863.377
10/27/2013  02:52:00     -144.127      -29.113      -20.017       16.426       14.727       14.040      269.814      216.872      197.116        1.135        0.034      147.037        8.136        0.003      335.469        6.124      863.373
10/27/2013  02:53:00     -107.006      -21.759      -10.079       22.702       12.488       10.733      515.384      155.960      115.196        0.641        0.039      109.196       10.167        0.009      335.486        6.152      863.355
10/27/2013  02:54:00      -99.418      -34.707      -10.119       18.815       11.421        9.091      354.001      130.435       82.653        0.588        0.028      105.302       10.602        0.010      335.511        6.193      863.331
10/27/2013  02:55:00     -141.853      -25.392      -23.556       21.271       20.554       12.006      452.472      422.469      144.153        1.117        0.051      144.108       10.287        0.005      335.476        6.136      863.301
10/27/2013  02:56:00     -130.734      -17.962      -26.207       17.589       16.399       13.127      309.364      268.913      172.324        0.943        0.038      131.962       10.451        0.006      335.420        6.041      863.280
10/27/2013  02:57:00      -92.920      -22.305       -5.779       26.006       25.305       18.219      676.313      640.338      331.925        0.541        0.082       95.560       10.846        0.013      335.357        5.936      863.259
10/27/2013  02:58:00     -115.016      -37.967       -8.961       26.419       28.671       19.823      697.940      822.019      392.942        0.833        0.096      121.121       13.781        0.013      335.314        5.865      863.258
10/27/2013  02:59:00      -83.452      -43.450      -11.661       42.508       28.970       24.184     1806.911      839.264      584.844        0.611        0.162       94.086       21.246        0.051      335.338        5.905      863.262
10/27/2013  03:00:00     -111.501      -26.659       -9.698       68.060       24.853       22.002     4632.106      617.674      484.071        0.948        0.287      114.644       20.390        0.032      335.329        5.889      863.256
10/27/2013  03:01:00     -153.056      -23.221       -5.029       22.401       23.442       16.574      501.795      549.521      274.687        1.266        0.066      154.807       12.359        0.006      335.302        5.844      863.240
10/27/2013  03:02:00      -83.480      -39.502       -4.547       22.666       19.412       14.924      513.766      376.830      222.728        0.483        0.056       92.355        8.579        0.009      335.318        5.872      863.225
10/27/2013  03:03:00      -85.936      -30.773      -10.650       10.388       13.482        8.925      107.908      181.777       79.651        0.441        0.018       91.280        4.296        0.002      335.456        6.100      863.204
10/27/2013  03:04:00     -128.368      -12.654      -14.608       44.930       20.496       19.852     2018.694      420.079      394.093        0.984        0.142      128.990       21.965        0.029      335.415        6.034      863.199
10/27/2013  03:05:00     -120.649      -38.506       -4.237       39.176       25.107       21.672     1534.737      630.379      469.675        0.935        0.132      126.644       20.296        0.026      335.305        5.850      863.203
10/27/2013  03:06:00     -104.384      -58.190      -10.026       27.412       31.969       16.366      751.432     1022.044      267.835        0.821        0.102      119.507       13.284        0.012      335.347        5.921      863.183
10/27/2013  03:07:00     -111.591      -41.157       -9.992       36.949       27.518       24.187     1365.259      757.268      585.029        0.848        0.135      118.939       22.942        0.037      335.334        5.898      863.169
10/27/2013  03:08:00      -64.968      -21.643       -5.365       24.847       11.516        8.792      617.359      132.618       77.302        0.277        0.041       68.478       11.531        0.028      335.360        5.940      863.162
10/27/2013  03:09:00      -68.996      -19.329       -4.129       20.734       12.499        9.232      429.902      156.230       85.235        0.291        0.034       71.652       10.336        0.021      335.478        6.138      863.132
10/27/2013  03:10:00      -99.315      -32.734       -9.874       13.302       12.225        9.771      176.956      149.454       95.471        0.573        0.021      104.570        5.192        0.002      335.543        6.246      863.104
10/27/2013  03:11:00     -100.169      -21.479      -12.244       10.123       13.335       10.809      102.483      177.825      116.825        0.552        0.020      102.446        5.004        0.002      335.448        6.089      863.084
10/27/2013  03:12:00     -124.966      -30.109      -21.001       19.298       16.928        9.565      372.420      286.572       91.482        0.886        0.038      128.542        6.988        0.003      335.380        5.973      863.062
10/27/2013  03:13:00     -113.668      -58.646       -9.876       51.400       38.040       23.604     2641.938     1447.053      557.126        1.055        0.232      127.905       27.456        0.046      335.198        5.673      863.044
10/27/2013  03:14:00      -92.290      -27.292      -15.521       42.080       31.349       17.264     1770.755      982.760      298.061        0.628        0.153       96.240       12.648        0.017      335.407        6.019      863.029
10/27/2013  03:15:00      -94.243      -10.819      -20.530       20.206       21.073       16.861      408.271      444.079      284.310        0.528        0.057       94.862       12.437        0.017      335.374        5.963      863.025
10/27/2013  03:16:00      -69.911      -42.566      -17.166       22.193       18.866       15.566      492.510      355.942      242.309        0.404        0.055       81.850       13.955        0.029      335.274        5.799      863.016
10/27/2013  03:17:00      -80.701      -39.175      -17.514       19.554       25.329       16.666      382.360      641.573      277.750        0.483        0.065       89.706       16.059        0.032      335.269        5.790      863.016
10/27/2013  03:18:00      -79.862      -19.275       -8.331       19.969       17.901       13.636      398.772      320.444      185.949        0.386        0.045       82.156        9.215        0.013      335.485        6.150      863.001
10/27/2013  03:19:00     -111.075      -22.376      -17.300       18.454       23.595       12.758      340.561      556.718      162.769        0.710        0.053      113.307        8.880        0.006      335.408        6.021      862.995
10/27/2013  03:20:00     -123.015      -81.523      -11.821       22.289       25.271       19.730      496.816      638.622      389.266        1.172        0.076      147.576       11.452        0.006      335.249        5.756      863.002
10/27/2013  03:21:00      -84.087      -55.298       -7.157       33.272       39.595       19.826     1107.009     1567.793      393.065        0.662        0.153      100.640       17.618        0.031      335.222        5.712      862.981
10/27/2013  03:22:00      -27.282      -36.812       -3.300       22.123       21.387       16.156      489.443      457.419      261.015        0.166        0.060       45.819       13.692        0.089      335.351        5.927      862.921
10/27/2013  03:23:00     -108.941      -30.658      -18.259       34.806       18.395       15.348     1211.486      338.361      235.551        0.746        0.089      113.172        9.466        0.007      335.339        5.906      862.893
10/27/2013  03:24:00     -149.778      -64.743       -5.207       41.465       33.856       23.243     1719.360     1146.221      540.228        1.503        0.170      163.172       23.376        0.021      335.204        5.682      862.904
10/27/2013  03:25:00      -87.337      -52.130       -4.441       50.479       29.068       19.191     2548.090      844.943      368.279        0.706        0.188      101.712       23.746        0.055      335.144        5.583      862.878
10/27/2013  03:26:00      -68.160      -33.881      -12.857       16.553       23.471       15.849      274.004      550.884      251.201        0.352        0.054       76.116       13.081        0.030      335.196        5.669      862.851
10/27/2013  03:27:00      -72.059      -24.116      -11.664       31.612       25.372       20.429      999.301      643.741      417.350        0.398        0.103       75.988        5.241        0.005      335.302        5.843      862.837
10/27/2013  03:28:00      -81.264       -8.086      -10.785       41.317       20.500       15.199     1707.114      420.249      231.021        0.457        0.118       81.665       18.961        0.054      335.202        5.679      862.828
10/27/2013  03:29:00      -66.907       -8.536      -10.513       26.210       27.552       16.925      686.981      759.131      286.462        0.320        0.087       67.449       14.163        0.044      335.283        5.814      862.803
10/27/2013  03:30:00     -126.673      -57.087      -18.252       22.470       35.108       12.685      504.894     1232.601      160.916        1.077        0.095      138.943        3.884        0.001      335.197        5.669      862.820
10/27/2013  03:31:00      -79.636      -55.152        6.089       62.310       36.231       27.474     3882.536     1312.663      754.839        0.768        0.298       96.869       26.296        0.074      335.145        5.584      862.860
10/27/2013  03:32:00      -32.059      -28.609        3.659       49.641       19.891       17.632     2464.203      395.665      310.886        0.251        0.159       42.968       24.612        0.328      335.213        5.696      862.853
10/27/2013  03:33:00      -99.237       -6.795      -11.281       19.014       13.303       10.232      361.535      176.978      104.696        0.533        0.032       99.469        8.638        0.008      335.292        5.828      862.803
10/27/2013  03:34:00     -127.024      -25.299      -17.083       28.585       17.950       13.776      817.114      322.191      189.775        0.920        0.066      129.519        8.513        0.004      335.321        5.876      862.779
10/27/2013  03:35:00     -138.935      -18.196      -10.176       45.569       46.098       27.501     2076.519     2124.984      756.288        1.235        0.248      140.122       21.003        0.022      335.240        5.742      862.779
10/27/2013  03:36:00      -60.718      -10.135       -1.978       35.410       35.962       21.988     1253.855     1293.299      483.462        0.341        0.152       61.558       13.259        0.046      335.342        5.911      862.739
10/27/2013  03:37:00      -36.506      -31.944      -14.295       18.322       17.241       12.129      335.706      297.244      147.106        0.167        0.039       48.509       10.314        0.045      335.596        6.336      862.705
10/27/2013  03:38:00      -57.840      -41.949        2.802       30.181       27.114       20.792      910.901      735.149      432.323        0.360        0.104       71.450       18.270        0.065      335.560        6.276      862.722
10/27/2013  03:39:00      -99.491      -37.580      -16.428       39.049       28.821       16.236     1524.853      830.660      263.620        0.710        0.131      106.352       18.988        0.032      335.533        6.229      862.710
10/27/2013  03:40:00     -112.835      -30.473      -17.504       25.743       19.503       15.122      662.727      380.374      228.684        0.762        0.064      116.877       11.410        0.010      335.429        6.055      862.682
10/27/2013  03:41:00     -119.242      -25.591      -16.876       31.345       22.708       20.631      982.534      515.658      425.624        0.854        0.096      121.957       19.013        0.024      335.354        5.932      862.672
10/27/2013  03:42:00      -72.700      -31.019      -11.652       15.544       14.770       11.050      241.616      218.141      122.110        0.348        0.029       79.041        7.407        0.009      335.351        5.926      862.670
10/27/2013  03:43:00     -117.821      -25.305      -16.391       23.330       11.160       11.192      544.268      124.538      125.257        0.779        0.040      120.507       10.568        0.008      335.458        6.106      862.666
10/27/2013  03:44:00     -110.304       -7.614      -13.983       20.637       23.169       14.295      425.871      536.790      204.342        0.679        0.058      110.566       12.362        0.013      335.454        6.099      862.640
10/27/2013  03:45:00      -60.705       -5.069      -16.791       20.169       11.979        9.227      406.787      143.497       85.140        0.231        0.032       60.916        7.498        0.015      335.513        6.196      862.613
10/27/2013  03:46:00      -25.146      -35.696       -3.080       20.203        9.393       15.292      408.150       88.234      233.850        0.132        0.037       43.664       13.337        0.093      335.561        6.277      862.598
10/27/2013  03:47:00       -0.296      -22.436        1.835       18.537       16.023       15.537      343.606      256.747      241.407        0.067        0.042       22.438       14.203        0.401      335.460        6.108      862.594
10/27/2013  03:48:00      -83.098      -42.633       -4.382       48.750       29.101       16.542     2376.523      846.889      273.648        0.612        0.175       93.396       20.011        0.046      335.433        6.064      862.594
10/27/2013  03:49:00     -170.427      -54.937      -20.296       16.410       27.288       14.460      269.297      744.618      209.082        1.685        0.061      179.063        7.850        0.002      335.279        5.806      862.583
10/27/2013  03:50:00     -154.873      -60.789      -26.595       18.845       20.356       15.437      355.126      414.380      238.308        1.470        0.050      166.376        9.057        0.003      335.174        5.633      862.565
10/27/2013  03:51:00     -130.925      -65.657      -12.321       22.254       18.750       16.179      495.245      351.581      261.749        1.136        0.055      146.465       13.277        0.008      335.178        5.640      862.569
10/27/2013  03:52:00      -89.293      -36.927       -5.417       19.161       14.016       10.846      367.150      196.450      117.640        0.502        0.034       96.627        5.212        0.003      335.165        5.616      862.577
10/27/2013  03:53:00     -102.254      -33.487      -16.424       18.938       13.584       10.196      358.651      184.522      103.966        0.625        0.032      107.597        6.094        0.003      335.273        5.796      862.575
10/27/2013  03:54:00     -125.600      -34.960      -11.117       33.892       21.799       13.696     1148.654      475.189      187.575        0.947        0.091      130.374       18.899        0.021      335.424        6.049      862.566
10/27/2013  03:55:00      -94.329      -26.179      -14.065       14.545       15.675       12.046      211.571      245.704      145.110        0.519        0.030       97.894        3.161        0.001      335.368        5.954      862.551
10/27/2013  03:56:00      -90.777      -21.690      -10.402       20.139       17.894       11.896      405.586      320.180      141.523        0.484        0.043       93.332       11.711        0.016      335.263        5.780      862.536
10/27/2013  03:57:00      -68.636      -17.284      -12.431       17.426        8.715        7.105      303.665       75.949       50.475        0.280        0.022       70.779        2.399        0.001      335.323        5.880      862.502
10/27/2013  03:58:00      -75.874       -0.685      -13.698       12.405        7.533        8.403      153.872       56.742       70.610        0.311        0.014       75.877        6.610        0.008      335.390        5.993      862.468
10/27/2013  03:59:00     -120.629      -19.212      -19.043       15.303       11.461        7.166      234.191      131.352       51.352        0.785        0.021      122.150        4.246        0.001      335.328        5.889      862.466
10/27/2013  04:00:00     -129.960      -26.263      -16.303       17.874       13.912       12.153      319.475      193.555      147.686        0.925        0.033      132.587        9.433        0.005      335.240        5.742      862.459
10/27/2013  04:01:00     -109.978      -35.216      -18.525       17.236       15.645       13.284      297.095      244.757      176.467        0.720        0.036      115.479        8.048        0.005      335.189        5.658      862.444
10/27/2013  04:02:00      -70.601      -66.711       -3.993       34.756       26.851       22.417     1207.961      720.972      502.505        0.594        0.122       97.133       13.642        0.020      335.125        5.551      862.437
10/27/2013  04:03:00     -103.618      -40.471      -14.038       19.013       19.062       15.028      361.511      363.357      225.837        0.676        0.048      111.241       13.556        0.015      335.033        5.397      862.430
10/27/2013  04:04:00      -90.991       -4.269      -12.169       17.892       21.573       15.414      320.112      465.375      237.604        0.473        0.051       91.091       13.360        0.022      335.087        5.489      862.394
10/27/2013  04:05:00      -73.178        5.861      -13.202       17.821       20.236        7.300      317.590      409.503       53.286        0.317        0.039       73.413        6.246        0.007      335.228        5.723      862.357
10/27/2013  04:06:00      -68.666      -27.134      -13.750       19.114       14.217       12.269      365.332      202.137      150.517        0.318        0.036       73.833        5.123        0.005      335.224        5.715      862.357
10/27/2013  04:07:00      -11.040      -28.008        8.378       32.173       18.036       19.461     1035.094      325.309      378.721        0.136        0.087       30.105       14.513        0.232      335.155        5.601      862.379
10/27/2013  04:08:00      -75.481      -22.965       -8.110       14.897       11.065        8.435      221.921      122.425       71.148        0.335        0.021       78.898        6.132        0.006      335.089        5.492      862.385
10/27/2013  04:09:00      -60.908      -12.059       -8.629        7.007       13.342        7.290       49.096      178.006       53.149        0.210        0.014       62.091        4.444        0.005      335.197        5.670      862.365
10/27/2013  04:10:00      -69.028        2.712      -13.063        9.550        9.245        6.554       91.198       85.476       42.956        0.258        0.011       69.082        3.891        0.003      335.261        5.776      862.329
10/27/2013  04:11:00      -79.986      -19.952      -17.213       10.621       15.974        9.983      112.810      255.169       99.654        0.378        0.023       82.437        4.207        0.003      335.228        5.722      862.307
10/27/2013  04:12:00      -87.650      -29.717      -15.084       12.953       12.276       10.397      167.775      150.689      108.096        0.461        0.021       92.550        3.135        0.001      335.109        5.525      862.293
10/27/2013  04:13:00      -78.776      -17.692      -11.681       11.236       12.731        8.405      126.254      162.087       70.638        0.351        0.018       80.738        5.958        0.005      335.091        5.495      862.282
10/27/2013  04:14:00      -70.122      -29.002      -11.990       10.622       11.034        8.014      112.834      121.741       64.224        0.310        0.015       75.883        4.372        0.003      335.141        5.578      862.279
10/27/2013  04:15:00      -98.908      -26.230      -16.720       13.423       15.235       11.910      180.170      232.113      141.842        0.565        0.028      102.327        8.192        0.006      335.013        5.365      862.276
10/27/2013  04:16:00     -104.389        1.071      -15.648       13.932       15.756       11.523      194.095      248.237      132.785        0.586        0.029      104.394        8.093        0.006      335.054        5.435      862.262
10/27/2013  04:17:00      -74.776       -4.487       -7.159       24.567       14.926       12.251      603.535      222.789      150.079        0.332        0.049       74.910       11.719        0.024      335.063        5.449      862.236
10/27/2013  04:18:00      -88.717      -23.140      -12.507       13.142       17.951       14.183      172.722      322.240      201.162        0.463        0.035       91.685       10.098        0.012      335.018        5.374      862.247
10/27/2013  04:19:00      -93.849      -17.213      -14.320       14.454       14.890       12.707      208.906      221.702      161.474        0.495        0.030       95.415        8.985        0.009      334.944        5.250      862.265
10/27/2013  04:20:00     -104.376       -0.002      -14.291       24.952       26.287       16.203      622.612      691.024      262.535        0.634        0.079      104.376       12.171        0.014      334.936        5.238      862.270
10/27/2013  04:21:00      -80.449      -12.458       -7.570       26.585       25.470       15.128      706.751      648.715      228.846        0.413        0.079       81.408       16.583        0.041      334.966        5.288      862.286
10/27/2013  04:22:00      -71.372      -38.056      -10.948       21.895       17.570       14.285      479.397      308.696      204.061        0.383        0.050       80.884        9.635        0.014      334.977        5.306      862.299
10/27/2013  04:23:00      -96.541      -31.750      -20.696       25.444       20.146       16.693      647.420      405.843      278.666        0.604        0.067      101.628       14.052        0.019      334.974        5.302      862.307
10/27/2013  04:24:00      -69.169      -16.318       -8.864       25.568       20.824       14.044      653.713      433.633      197.225        0.321        0.064       71.067       13.052        0.034      335.054        5.433      862.302
10/27/2013  04:25:00      -58.448      -25.691       -7.189       19.125       24.096       16.219      365.770      580.620      263.067        0.267        0.060       63.845       10.601        0.028      335.063        5.450      862.292
10/27/2013  04:26:00      -93.849      -24.076      -17.384       17.998       17.710       11.056      323.921      313.637      122.229        0.522        0.038       96.888        8.546        0.008      335.035        5.404      862.286
10/27/2013  04:27:00      -90.338      -21.289      -10.917       16.927       17.790       12.918      286.518      316.485      166.885        0.475        0.038       92.812       11.532        0.015      335.033        5.398      862.273
10/27/2013  04:28:00      -97.102       -4.097      -18.507       14.068       13.944       10.979      197.911      194.446      120.542        0.515        0.026       97.189        9.520        0.010      335.119        5.541      862.253
10/27/2013  04:29:00      -75.293      -25.716      -14.408       21.250       17.115       13.377      451.558      292.932      178.951        0.373        0.046       79.563       13.538        0.029      335.095        5.503      862.261
10/27/2013  04:30:00      -68.307       -9.919       -7.393       15.209       23.796       12.735      231.316      566.267      162.189        0.289        0.048       69.024        5.103        0.005      335.080        5.478      862.260
10/27/2013  04:31:00      -31.065       10.583       -4.842       13.198       15.026        7.405      174.192      225.776       54.830        0.078        0.023       32.818        4.415        0.018      335.399        6.007      862.234
10/27/2013  04:32:00      -28.670        3.884       -4.908       22.233        9.626        6.650      494.307       92.668       44.226        0.075        0.032       28.932        6.225        0.046      335.699        6.506      862.199
10/27/2013  04:33:00      -66.511      -16.425      -12.915        8.362        8.780        8.829       69.919       77.087       77.954        0.254        0.011       68.509        4.150        0.004      335.118        5.539      862.192
10/27/2013  04:34:00      -67.445      -21.634      -16.353        8.760        9.013        6.186       76.739       81.229       38.271        0.274        0.010       70.830        4.343        0.004      335.163        5.615      862.188
10/27/2013  04:35:00      -68.289      -30.463      -12.148       15.923       15.247       10.042      253.539      232.457      100.850        0.316        0.029       74.775        7.822        0.011      335.082        5.479      862.190
10/27/2013  04:36:00      -85.745      -19.121      -14.585       12.586       14.837       10.612      158.411      220.136      112.608        0.421        0.025       87.851        6.021        0.005      335.025        5.385      862.190
10/27/2013  04:37:00      -70.888      -16.514      -17.921       13.966       14.799       10.183      195.062      219.016      103.692        0.307        0.026       72.786        7.204        0.010      335.035        5.402      862.201
10/27/2013  04:38:00      -84.960      -18.106      -18.006       20.224       16.834       10.687      409.006      283.392      114.203        0.434        0.040       86.868        9.027        0.011      334.977        5.305      862.194
10/27/2013  04:39:00      -79.891       -7.540      -14.747       12.772       23.437       12.492      163.133      549.312      156.042        0.376        0.043       80.246        6.505        0.007      334.849        5.094      862.177
10/27/2013  04:40:00      -85.399       -9.976      -14.618       18.162       13.742       11.245      329.857      188.853      126.452        0.413        0.032       85.980        7.272        0.007      334.908        5.193      862.150
10/27/2013  04:41:00      -98.250      -21.547      -16.072       24.789       14.011       12.905      614.508      196.319      166.535        0.568        0.049      100.585       13.300        0.017      334.885        5.153      862.140
10/27/2013  04:42:00     -109.094      -18.062      -16.142       21.270       19.783       14.489      452.412      391.384      209.921        0.677        0.053      110.579        9.331        0.007      334.869        5.126      862.135
10/27/2013  04:43:00     -104.507       -7.893      -17.496       27.971       15.239       12.266      782.398      232.214      150.462        0.623        0.058      104.804       11.408        0.012      334.826        5.055      862.123
10/27/2013  04:44:00     -110.832      -27.152      -11.097       20.205       19.353       13.841      408.239      374.558      191.565        0.706        0.049      114.109       12.329        0.012      334.835        5.068      862.112
10/27/2013  04:45:00     -107.045      -33.984      -17.400       20.880       19.362       17.669      435.962      374.894      312.201        0.702        0.056      112.310       14.883        0.018      334.807        5.023      862.110
10/27/2013  04:46:00     -119.860      -23.369      -16.808       22.099       21.957       16.543      488.367      482.093      273.684        0.822        0.062      122.116        8.605        0.005      334.766        4.955      862.101
10/27/2013  04:47:00     -109.657      -36.004      -16.610       18.059       16.453       10.891      326.126      270.692      118.616        0.716        0.036      115.417        4.509        0.002      334.745        4.920      862.112
10/27/2013  04:48:00     -118.912      -10.294      -14.846       12.133       14.891        9.623      147.214      221.752       92.605        0.746        0.023      119.357        7.259        0.004      334.823        5.049      862.106
10/27/2013  04:49:00      -92.295      -23.370       -8.380       16.116       13.728       13.852      259.722      188.447      191.873        0.489        0.032       95.207        9.666        0.010      334.806        5.023      862.094
10/27/2013  04:50:00      -95.802      -34.595      -13.048       18.710       23.747       14.990      350.082      563.941      224.703        0.584        0.057      101.857       14.754        0.021      334.873        5.134      862.072
10/27/2013  04:51:00     -110.915      -23.409      -13.017       20.260       24.915       16.065      410.474      620.744      258.099        0.715        0.064      113.359       12.470        0.012      334.838        5.074      862.052
10/27/2013  04:52:00      -88.064      -44.796       -6.363       21.140       23.443       16.820      446.882      549.591      282.902        0.554        0.064       98.802       12.249        0.015      334.888        5.158      862.042
10/27/2013  04:53:00      -37.152      -27.903       -2.913       41.917       27.592       23.976     1757.022      761.312      574.859        0.263        0.155       46.463       27.647        0.354      334.891        5.162      862.044
10/27/2013  04:54:00      -57.542      -21.239       -4.675       29.690       29.086       24.274      881.498      846.020      589.245        0.305        0.116       61.337       21.289        0.120      334.800        5.012      862.053
10/27/2013  04:55:00      -48.362      -40.458        2.839       33.738       28.076       22.490     1138.252      788.246      505.822        0.321        0.122       63.053       22.171        0.124      334.779        4.977      862.055
10/27/2013  04:56:00      -82.417      -19.412       -4.019       48.384       24.304       23.872     2340.997      590.704      569.864        0.534        0.175       84.673       29.930        0.125      334.724        4.886      862.020
10/27/2013  04:57:00      -71.397      -44.597       -6.528       38.134       23.469       19.731     1454.167      550.797      389.310        0.476        0.120       84.181       19.395        0.053      334.724        4.887      861.998
10/27/2013  04:58:00      -64.009      -29.787       -2.520       29.122       27.265       17.905      848.103      743.379      320.577        0.345        0.096       70.600       13.327        0.036      334.695        4.837      861.972
10/27/2013  04:59:00      -81.709      -37.985       -7.353       26.312       30.488       17.256      692.313      929.524      297.763        0.505        0.096       90.107       11.117        0.015      334.736        4.904      861.953
10/27/2013  05:00:00      -93.079      -33.533      -10.245       30.987       22.395       20.869      960.199      501.522      435.498        0.589        0.095       98.935       15.868        0.026      334.756        4.938      861.949
10/27/2013  05:01:00      -66.138      -43.231       -9.719       24.637       17.891       17.453      606.986      320.101      304.621        0.378        0.062       79.014       12.035        0.023      334.719        4.877      861.931
10/27/2013  05:02:00      -79.817      -31.084      -12.438       18.938       20.942       18.169      358.666      438.550      330.099        0.431        0.056       85.656       14.531        0.029      334.742        4.915      861.930
10/27/2013  05:03:00      -56.870      -31.996      -14.766       18.977       17.056       16.766      360.134      290.897      281.113        0.270        0.047       65.253        6.605        0.010      334.837        5.075      861.921
10/27/2013  05:04:00      -78.193      -35.484      -18.066       21.411       21.997       13.887      458.413      483.889      192.856        0.442        0.057       85.868        6.988        0.007      334.890        5.161      861.911
10/27/2013  05:05:00     -104.693      -20.187      -13.368       24.078       21.674       14.033      579.729      469.775      196.912        0.640        0.062      106.621        9.377        0.008      334.767        4.956      861.897
10/27/2013  05:06:00     -111.104      -18.154      -23.666       18.923       16.609       14.459      358.092      275.849      209.060        0.704        0.042      112.578        9.795        0.008      334.666        4.789      861.902
10/27/2013  05:07:00      -75.504      -36.839      -13.691       28.778       20.390       19.045      828.202      415.758      362.720        0.443        0.080       84.012       10.760        0.016      334.704        4.853      861.913
10/27/2013  05:08:00      -81.219      -37.108      -13.697       28.697       26.992       19.329      823.530      728.571      373.621        0.504        0.096       89.295       16.063        0.032      334.633        4.733      861.921
10/27/2013  05:09:00     -109.365      -44.415      -11.259       28.013       28.526       19.386      784.714      813.740      375.823        0.802        0.099      118.040       18.830        0.025      334.641        4.746      861.909
10/27/2013  05:10:00     -121.368      -16.979      -18.385       28.790       23.689       15.313      828.838      561.161      234.479        0.849        0.081      122.550       14.584        0.014      334.660        4.778      861.910
10/27/2013  05:11:00      -80.361      -20.716      -14.405       22.746       23.784       13.269      517.374      565.663      176.056        0.418        0.063       82.988        7.734        0.009      334.652        4.767      861.903
10/27/2013  05:12:00      -61.500      -34.846       -8.356       28.399       19.649       14.749      806.519      386.066      217.528        0.324        0.071       70.686        7.609        0.012      334.754        4.935      861.895
10/27/2013  05:13:00      -64.450      -23.894      -11.648       28.488       20.866       19.903      811.560      435.405      396.141        0.325        0.082       68.737       15.494        0.051      334.686        4.823      861.896
10/27/2013  05:14:00      -60.277      -29.493       -6.600       24.638       27.801       18.202      607.017      772.916      331.325        0.313        0.086       67.105       12.349        0.034      334.765        4.954      861.893
10/27/2013  05:15:00      -87.569      -34.691      -13.305       22.842       22.639       16.132      521.740      512.536      260.241        0.517        0.065       94.190       13.066        0.019      334.757        4.939      861.883
10/27/2013  05:16:00      -92.884      -43.836       -6.988       26.301       27.436       23.142      691.760      752.725      535.570        0.629        0.099      102.709       20.479        0.040      334.756        4.938      861.873
10/27/2013  05:17:00      -86.539      -36.247      -13.537       27.638       24.913       23.031      763.872      620.652      530.447        0.545        0.096       93.824       21.351        0.052      334.710        4.863      861.865
10/27/2013  05:18:00      -73.799      -21.326       -4.748       24.871       22.017       19.308      618.591      484.754      372.798        0.370        0.074       76.819        7.445        0.009      334.644        4.751      861.853
10/27/2013  05:19:00      -81.024      -35.496      -18.472       37.300       23.596       23.620     1391.275      556.757      557.917        0.534        0.125       88.459       23.746        0.072      334.672        4.799      861.844
10/27/2013  05:20:00     -105.097      -35.056       -7.184       36.741       26.720       25.959     1349.908      713.967      673.879        0.753        0.137      110.790       23.658        0.046      334.599        4.678      861.839
10/27/2013  05:21:00      -87.721      -27.360       -7.599       16.850       24.662       16.112      283.912      608.222      259.608        0.483        0.058       91.888       13.993        0.023      334.646        4.755      861.820
10/27/2013  05:22:00      -85.067      -10.315      -15.701       18.157       24.596       14.636      329.678      604.955      214.214        0.437        0.057       85.690       13.075        0.023      334.669        4.795      861.810
10/27/2013  05:23:00      -87.585      -28.560      -26.537       34.548       28.626       17.224     1193.595      819.435      296.683        0.575        0.115       92.124       10.108        0.012      334.617        4.708      861.830
10/27/2013  05:24:00      -82.229      -28.488      -17.289       22.350       29.356       17.626      499.510      861.781      310.665        0.477        0.084       87.024        2.988        0.001      334.548        4.594      861.827
10/27/2013  05:25:00      -92.294      -24.964      -25.179       35.724       30.226       17.168     1276.180      913.604      294.748        0.613        0.124       95.611       14.403        0.023      334.583        4.651      861.801
10/27/2013  05:26:00     -122.557      -16.307      -15.557       31.899       24.872       23.064     1017.534      618.637      531.958        0.885        0.108      123.637       15.144        0.015      334.551        4.598      861.791
10/27/2013  05:27:00      -98.528      -34.314      -13.706       31.305       21.387       15.141      980.029      457.384      229.261        0.637        0.083      104.332       11.762        0.013      334.559        4.610      861.775
10/27/2013  05:28:00      -80.042      -38.854      -10.826       23.920       28.752       22.672      572.162      826.675      514.034        0.497        0.096       88.974       16.890        0.036      334.616        4.706      861.762
10/27/2013  05:29:00      -99.069      -28.973      -18.781       24.757       18.932       18.115      612.885      358.436      328.171        0.615        0.065      103.219       14.610        0.020      334.563        4.618      861.739
10/27/2013  05:30:00     -107.224      -16.680      -16.573       34.893       29.366       17.597     1217.528      862.364      309.645        0.722        0.119      108.514       17.711        0.027      334.614        4.702      861.703
10/27/2013  05:31:00     -105.893      -13.205      -14.484       31.906       37.032       16.339     1018.013     1371.396      266.967        0.713        0.133      106.714       14.102        0.017      334.485        4.487      861.687
10/27/2013  05:32:00      -76.317      -33.875      -13.865       22.915       33.142       21.759      525.100     1098.395      473.472        0.463        0.105       83.498       14.173        0.029      334.588        4.659      861.679
10/27/2013  05:33:00     -116.126      -22.121       -6.060       38.347       64.601       28.556     1470.520     4173.238      815.447        1.023        0.323      118.214       19.912        0.028      334.524        4.552      861.676
10/27/2013  05:34:00     -108.867       -6.416      -11.161       46.708       45.080       23.514     2181.619     2032.203      552.924        0.839        0.238      109.056       22.313        0.042      334.420        4.381      861.685
10/27/2013  05:35:00      -64.167      -43.592       -5.088       55.594       36.633       27.479     3090.659     1341.941      755.120        0.561        0.259       77.573       27.967        0.130      334.433        4.403      861.680
10/27/2013  05:36:00     -131.088      -63.506       -5.922       35.465       45.838       26.439     1257.796     2101.091      699.043        1.265        0.203      145.661       17.381        0.014      334.447        4.427      861.677
10/27/2013  05:37:00      -64.325      -44.542       -1.595       42.617       38.987       24.336     1816.245     1520.014      592.243        0.503        0.196       78.241       20.551        0.069      334.436        4.409      861.675
10/27/2013  05:38:00     -101.026      -11.282       -3.139       52.585       40.996       26.230     2765.172     1680.643      688.008        0.774        0.257      101.654       22.982        0.051      334.457        4.443      861.666
10/27/2013  05:39:00      -97.706       -8.173       -5.818       51.589       26.540       22.116     2661.434      704.377      489.112        0.675        0.193       98.048       24.221        0.061      334.447        4.425      861.644
10/27/2013  05:40:00      -88.644      -33.408       -7.247       43.427       33.111       23.492     1885.891     1096.306      551.895        0.628        0.177       94.730       25.394        0.072      334.486        4.492      861.614
10/27/2013  05:41:00      -84.334        7.133      -12.358       48.587       36.930       23.868     2360.691     1363.822      569.668        0.580        0.215       84.635       24.533        0.084      334.499        4.511      861.588
10/27/2013  05:42:00      -82.965      -24.510       -7.143       48.549       35.961       23.682     2356.995     1293.178      560.831        0.587        0.211       86.510       20.414        0.056      334.514        4.537      861.566
10/27/2013  05:43:00      -33.862      -30.657        2.154       32.295       17.232       12.517     1042.981      296.940      156.668        0.179        0.075       45.678       13.397        0.086      334.575        4.637      861.530
10/27/2013  05:44:00      -68.480      -29.586      -13.331       35.728       18.390       14.755     1276.470      338.189      217.697        0.379        0.092       74.598       10.891        0.021      334.626        4.722      861.510
10/27/2013  05:45:00     -110.653       -8.781      -16.358       24.857       20.963       16.172      617.864      439.445      261.542        0.695        0.066      111.001       13.999        0.016      334.636        4.739      861.508
10/27/2013  05:46:00     -114.593      -35.339      -16.343       13.275       20.793       12.457      176.231      432.328      155.176        0.771        0.038      119.919        9.197        0.006      334.568        4.626      861.498
10/27/2013  05:47:00      -97.534      -37.512       -3.410       25.282       25.051       19.088      639.204      627.553      364.360        0.628        0.082      104.498       15.263        0.021      334.587        4.657      861.487
10/27/2013  05:48:00      -68.294      -27.591       -7.271       28.714       21.059       18.445      824.486      443.471      340.215        0.354        0.080       73.657       14.927        0.041      334.623        4.718      861.479
10/27/2013  05:49:00      -84.811      -38.082      -15.452       31.833       32.111       14.915     1013.361     1031.121      222.453        0.557        0.113       92.968        7.613        0.007      334.580        4.645      861.489
10/27/2013  05:50:00      -87.940      -48.683      -10.363       19.659       22.023       16.745      386.488      485.023      280.383        0.568        0.058      100.516       11.369        0.013      334.540        4.580      861.492
10/27/2013  05:51:00     -104.869      -27.208      -17.257       26.679       27.597       20.953      711.757      761.585      439.034        0.697        0.096      108.341       16.007        0.022      334.497        4.509      861.470
10/27/2013  05:52:00      -75.831      -33.133       -6.902       17.744       22.266       12.927      314.846      495.784      167.103        0.394        0.049       82.753        7.451        0.008      334.533        4.568      861.451
10/27/2013  05:53:00     -124.649      -16.692       -9.545       39.555       30.735       18.082     1564.598      944.629      326.960        0.937        0.142      125.761       15.571        0.015      334.486        4.491      861.424
10/27/2013  05:54:00      -40.844      -35.767       -6.512       34.688       33.420       20.399     1203.253     1116.926      416.131        0.286        0.137       54.291       13.894        0.065      334.451        4.431      861.409
10/27/2013  05:55:00      -20.997      -21.433       -3.129       22.142       12.753       15.786      490.266      162.634      249.211        0.091        0.045       30.005       15.095        0.253      334.574        4.636      861.405
10/27/2013  05:56:00      -70.609      -32.832       -3.875       22.043       12.997       12.941      485.905      168.932      167.472        0.345        0.041       77.869       13.976        0.032      334.517        4.541      861.397
10/27/2013  05:57:00      -83.267       -9.831      -15.845       14.448       10.367        9.095      208.744      107.465       82.717        0.384        0.020       83.845        7.733        0.009      334.616        4.706      861.379
10/27/2013  05:58:00     -100.947      -33.421      -14.407       21.538       15.739       14.686      463.873      247.713      215.676        0.622        0.046      106.336       12.067        0.013      334.626        4.721      861.360
10/27/2013  05:59:00      -70.123      -23.626       -0.127       31.030       12.293       12.205      962.889      151.122      148.974        0.337        0.063       73.996       13.514        0.033      334.590        4.663      861.355
10/27/2013  06:00:00      -13.702      -12.956       11.066       21.014       13.632       12.353      441.599      185.839      152.602        0.063        0.039       18.858       13.621        0.522      334.578        4.642      861.344
10/27/2013  06:01:00     -110.717       -1.875      -10.873       39.771       12.333       10.515     1581.731      152.100      110.562        0.711        0.092      110.733       15.210        0.019      334.553        4.602      861.334
10/27/2013  06:02:00     -100.493      -31.178      -11.751       29.092       17.069       12.007      846.360      291.347      144.165        0.625        0.064      105.219       12.463        0.014      334.479        4.480      861.351
10/27/2013  06:03:00      -18.407      -33.139        2.077       18.884       13.856        9.027      356.594      191.978       81.494        0.104        0.032       37.908        6.551        0.030      334.658        4.776      861.347
10/27/2013  06:04:00      -12.318      -17.806       -3.548       13.306        9.355       13.243      177.045       87.511      175.377        0.046        0.022       21.651        5.900        0.074      334.590        4.661      861.312
10/27/2013  06:05:00      -67.256      -12.899      -11.879       21.087       10.025        7.095      444.647      100.504       50.335        0.271        0.030       68.481        8.670        0.016      334.615        4.703      861.286
10/27/2013  06:06:00      -75.267      -27.148      -12.259       16.645       10.129        6.650      277.065      102.594       44.219        0.349        0.021       80.014        4.834        0.004      334.589        4.661      861.298
10/27/2013  06:07:00      -13.755      -22.538       -0.383       16.984       13.294        8.997      288.453      176.722       80.954        0.062        0.027       26.403        7.378        0.078      334.602        4.684      861.317
10/27/2013  06:08:00      -33.319       -5.279       -4.803       10.132       10.177        6.010      102.659      103.575       36.115        0.070        0.012       33.735        6.524        0.037      334.641        4.747      861.321
10/27/2013  06:09:00      -11.322       25.485        0.139        8.751       13.391        7.699       76.587      179.320       59.279        0.055        0.016       27.887        4.524        0.026      334.719        4.877      861.287
10/27/2013  06:10:00      -45.347       28.922       -6.083       19.141       13.512        7.632      366.360      182.585       58.246        0.177        0.030       53.785        4.485        0.007      334.808        5.026      861.242
10/27/2013  06:11:00      -78.151       27.812      -15.274       18.901       14.855       13.708      357.242      220.685      187.918        0.394        0.038       82.952       11.288        0.019      334.420        4.380      861.243
10/27/2013  06:12:00      -80.781        7.861      -11.758       17.004       24.779       10.119      289.150      614.023      102.401        0.387        0.050       81.162        8.522        0.011      334.448        4.429      861.263
10/27/2013  06:13:00      -26.717      -31.410        1.706       28.392       12.859       14.180      806.102      165.366      201.060        0.144        0.059       41.236       15.516        0.142      334.415        4.375      861.289
10/27/2013  06:14:00      -89.294      -28.103       -4.116       25.702       19.588       14.934      660.572      383.703      223.036        0.502        0.063       93.612       13.128        0.020      334.351        4.268      861.300
10/27/2013  06:15:00     -101.848        6.807       -8.074       21.774       15.101       13.521      474.100      228.039      182.830        0.568        0.044      102.076        9.575        0.009      334.334        4.239      861.280
10/27/2013  06:16:00      -76.858      -21.743       -3.065       35.498       16.413       12.818     1260.116      269.393      164.289        0.404        0.085       79.874       15.331        0.037      334.311        4.200      861.261
10/27/2013  06:17:00      -82.930      -35.716        0.053       20.748       17.256       15.275      430.495      297.765      233.314        0.456        0.048       90.294       13.030        0.021      334.260        4.115      861.244
10/27/2013  06:18:00     -102.883      -43.222      -12.376       22.483       20.827       12.918      505.498      433.764      166.863        0.686        0.055      111.593        6.209        0.003      334.248        4.095      861.242
10/27/2013  06:19:00      -97.167      -61.658       -9.559       17.272       17.530       12.422      298.323      307.294      154.307        0.705        0.038      115.079       11.022        0.009      334.186        3.994      861.247
10/27/2013  06:20:00      -55.386      -42.956       -7.281       15.289       14.185       11.370      233.748      201.210      129.274        0.276        0.028       70.091        7.038        0.010      334.242        4.085      861.212
10/27/2013  06:21:00      -41.029      -23.565        0.667       14.148       15.903        9.705      200.152      252.913       94.189        0.139        0.027       47.315        9.086        0.037      334.260        4.114      861.191
10/27/2013  06:22:00      -86.247      -30.625       -6.266       49.650       17.766       14.142     2465.147      315.629      199.984        0.570        0.149       91.523       21.219        0.054      334.327        4.227      861.189
10/27/2013  06:23:00     -119.508       18.626      -13.881       12.859       21.484        9.949      165.361      461.579       98.977        0.777        0.036      120.951        3.734        0.001      334.253        4.105      861.136
10/27/2013  06:24:00     -108.522       -8.530      -10.589       33.361       32.523       13.366     1112.969     1057.761      178.648        0.716        0.117      108.856       11.381        0.011      334.188        3.995      861.113
10/27/2013  06:25:00      -60.016      -31.767      -10.663       31.200       18.813       18.767      973.438      353.914      352.200        0.320        0.084       67.905       15.167        0.050      334.142        3.919      861.142
10/27/2013  06:26:00      -31.447      -25.979       -6.139       43.787       20.491       16.888     1917.318      419.882      285.192        0.216        0.131       40.790       11.276        0.076      334.152        3.936      861.129
10/27/2013  06:27:00     -144.919        1.810      -19.494       19.431       13.747       15.688      377.564      188.966      246.112        1.110        0.041      144.931        8.534        0.003      334.117        3.878      861.121
10/27/2013  06:28:00     -121.323      -26.864       -8.030       30.053       23.385       20.990      903.164      546.841      440.564        0.870        0.095      124.261       16.654        0.018      334.072        3.804      861.111
10/27/2013  06:29:00      -85.911      -20.453       -4.921       25.740       19.398       14.149      662.561      376.285      200.207        0.453        0.062       88.312       11.823        0.018      334.016        3.710      861.090
10/27/2013  06:30:00      -94.263      -31.994      -13.116       16.735       16.857       11.923      280.047      284.170      142.150        0.539        0.035       99.545        6.963        0.005      334.059        3.783      861.079
10/27/2013  06:31:00      -88.214      -48.350      -14.415       24.807       23.409       19.248      615.391      547.964      370.489        0.593        0.077      100.596       14.979        0.022      334.104        3.856      861.100
10/27/2013  06:32:00      -78.275      -45.912       -9.262       26.212       25.455       15.152      687.071      647.949      229.592        0.494        0.078       90.746        8.073        0.008      334.034        3.740      861.114
10/27/2013  06:33:00      -70.747      -15.046       -4.726       18.782       19.196       13.193      352.758      368.490      174.055        0.307        0.045       72.329       11.474        0.025      333.955        3.610      861.106
10/27/2013  06:34:00      -73.476      -19.036       -9.583       16.048       18.081       11.401      257.554      326.921      129.974        0.328        0.036       75.901       10.228        0.018      333.999        3.682      861.083
10/27/2013  06:35:00      -90.545      -32.047      -11.731       25.271       22.501       13.464      638.643      506.297      181.269        0.534        0.066       96.049        2.703        0.001      334.060        3.781      861.077
10/27/2013  06:36:00      -53.471      -42.057       -9.388       17.856       11.732        8.090      318.830      137.637       65.451        0.262        0.026       68.029        4.728        0.005      334.079        3.814      861.065
10/27/2013  06:37:00      -42.642      -24.047      -11.425       17.252       15.201       12.090      297.648      231.059      146.180        0.160        0.034       48.955        8.632        0.031      334.155        3.940      861.030
10/27/2013  06:38:00      -67.922        0.755      -11.268       16.923       19.512       13.510      286.403      380.733      182.510        0.280        0.042       67.926       11.099        0.027      334.236        4.074      860.982
10/27/2013  06:39:00      -83.709       -8.071      -11.864       17.588       13.900       11.126      309.329      193.219      123.797        0.392        0.031       84.097        8.134        0.009      334.117        3.877      860.952
10/27/2013  06:40:00      -72.672      -30.882      -13.962       13.494       16.733       10.172      182.089      280.008      103.466        0.350        0.028       78.962        6.748        0.007      334.104        3.858      860.937
10/27/2013  06:41:00      -71.920      -42.266      -13.532       19.413       16.676       13.324      376.855      278.088      177.534        0.399        0.042       83.420        6.182        0.005      334.124        3.890      860.945
10/27/2013  06:42:00      -64.679      -30.602       -7.136       14.665       18.792       11.117      215.053      353.129      123.597        0.293        0.035       71.553        8.328        0.014      333.987        3.663      860.942
10/27/2013  06:43:00      -80.996      -20.776      -10.468       18.954       19.817       10.003      359.260      392.697      100.069        0.398        0.043       83.618        9.383        0.013      334.018        3.714      860.926
10/27/2013  06:44:00     -113.312       -0.259      -19.031       12.575       15.967        9.654      158.127      254.932       93.193        0.685        0.025      113.312        4.447        0.002      334.032        3.739      860.899
10/27/2013  06:45:00      -97.249      -10.887      -17.102       24.738       22.988       14.067      611.978      528.428      197.890        0.560        0.067       97.857       14.447        0.022      334.020        3.719      860.882
10/27/2013  06:46:00      -95.926      -37.652      -15.853       19.128       21.033       14.148      365.889      442.377      200.173        0.594        0.050      103.051       12.499        0.015      333.985        3.659      860.879
10/27/2013  06:47:00     -110.301       -6.862      -17.465       16.633       19.551       12.857      276.661      382.233      165.306        0.667        0.041      110.514       12.658        0.013      333.954        3.608      860.857
10/27/2013  06:48:00     -110.302      -11.271      -18.985       19.062        9.631       10.093      363.344       92.756      101.864        0.661        0.028      110.876        9.685        0.008      333.968        3.632      860.844
10/27/2013  06:49:00      -59.481        1.416       -3.149       24.227        9.971        9.508      586.951       99.415       90.410        0.216        0.039       59.498       10.944        0.034      333.956        3.611      860.820
10/27/2013  06:50:00      -80.155       -8.722       -8.113       13.625       12.993       11.482      185.628      168.826      131.844        0.353        0.024       80.628        8.928        0.012      334.027        3.729      860.801
10/27/2013  06:51:00      -71.961      -26.331      -10.880       21.815       17.582       12.640      475.885      309.114      159.771        0.347        0.047       76.627       11.516        0.023      334.049        3.765      860.787
10/27/2013  06:52:00      -46.848      -19.803       -7.053       16.539       13.522        8.727      273.543      182.856       76.160        0.158        0.027       50.862        4.137        0.007      334.147        3.928      860.769
10/27/2013  06:53:00      -41.004       -6.525       -5.791       29.207       14.908        8.617      853.037      222.251       74.256        0.145        0.057       41.520        4.574        0.012      334.171        3.966      860.757
10/27/2013  06:54:00      -83.416       -7.394      -12.873       10.281       12.259        9.777      105.701      150.280       95.586        0.377        0.018       83.743        3.783        0.002      334.137        3.912      860.725
10/27/2013  06:55:00      -51.560       -3.248       -9.899       12.754        5.971        7.333      162.672       35.653       53.773        0.151        0.013       51.662        6.269        0.015      334.114        3.872      860.699
10/27/2013  06:56:00      -13.159      -17.167       -3.045       15.885       14.503        8.648      252.345      210.335       74.783        0.051        0.027       21.630        6.968        0.104      334.290        4.166      860.694
10/27/2013  06:57:00        0.373      -32.323      -11.202       22.277       21.808        8.984      496.283      475.573       80.715        0.111        0.053       32.325       10.130        0.098      334.470        4.466      860.721
10/27/2013  06:58:00      -79.438        6.361       -6.245       12.903       11.155        5.327      166.484      124.425       28.376        0.335        0.016       79.692        3.234        0.002      334.190        3.997      860.710
10/27/2013  06:59:00      -86.028       16.071      -16.680        6.496        6.578        5.851       42.194       43.273       34.240        0.403        0.006       87.517        1.326        0.000      334.123        3.889      860.698
10/27/2013  07:00:00      -71.451       -5.624      -13.359       13.601       11.780        8.958      184.997      138.769       80.241        0.286        0.020       71.672        6.742        0.009      334.122        3.887      860.683
10/27/2013  07:01:00      -99.304      -44.365      -13.790       14.244       22.529       11.134      202.878      507.559      123.968        0.643        0.042      108.763        7.485        0.005      333.954        3.608      860.697
10/27/2013  07:02:00     -102.347      -35.948       -4.753       27.103       28.102       18.591      734.586      789.735      345.624        0.683        0.093      108.477       14.882        0.019      333.726        3.229      860.707
10/27/2013  07:03:00      -51.385        8.944       -4.292       36.087       27.948       17.720     1302.302      781.094      313.994        0.257        0.120       52.157       17.747        0.116      333.754        3.276      860.691
10/27/2013  07:04:00      -49.541       -6.516      -10.840       12.874       11.579       11.698      165.745      134.080      136.850        0.153        0.022       49.968        8.144        0.027      333.901        3.522      860.690
10/27/2013  07:05:00      -71.309      -35.271      -10.028        9.306       18.620       10.022       86.609      346.717      100.448        0.348        0.027       79.555        4.801        0.004      333.900        3.517      860.703
10/27/2013  07:06:00      -85.212      -43.203      -15.695       15.721       21.588        9.538      247.156      466.027       90.972        0.509        0.040       95.538        7.401        0.006      333.817        3.380      860.725
10/27/2013  07:07:00      -68.682      -40.943       -9.959       23.380       20.181       17.529      546.612      407.272      307.255        0.388        0.063       79.959        9.480        0.014      333.872        3.473      860.729
10/27/2013  07:08:00      -73.285       -5.391      -13.156       20.503       14.274       13.305      420.366      203.746      177.024        0.319        0.040       73.483       11.290        0.024      333.879        3.483      860.698
10/27/2013  07:09:00      -62.631      -15.445      -10.107       10.738       13.283       10.473      115.301      176.440      109.678        0.233        0.020       64.508        6.848        0.011      333.851        3.437      860.659
10/27/2013  07:10:00      -91.010      -20.476      -13.285       18.528       12.883        8.538      343.286      165.966       72.894        0.473        0.029       93.285        7.628        0.007      333.882        3.489      860.626
10/27/2013  07:11:00      -91.532      -19.773      -14.505       17.988       16.536       10.718      323.580      273.447      114.881        0.485        0.036       93.644        9.806        0.011      333.826        3.396      860.598
10/27/2013  07:12:00      -51.654      -29.267       -8.179       24.258       17.934       12.477      588.450      321.622      155.664        0.233        0.053       59.369        9.441        0.025      333.871        3.471      860.605
10/27/2013  07:13:00      -61.649        7.941       -9.077       13.690        7.574        7.954      187.409       57.372       63.260        0.213        0.015       62.159        7.006        0.013      333.851        3.436      860.603
10/27/2013  07:14:00      -46.500      -13.915       -8.188       19.466       18.104        7.743      378.912      327.749       59.959        0.159        0.038       48.537        7.596        0.024      334.003        3.689      860.618
10/27/2013  07:15:00      -39.787       -4.392       -1.826       20.634       17.958       16.606      425.768      322.476      275.756        0.131        0.051       40.029       19.158        0.229      333.915        3.545      860.627
10/27/2013  07:16:00      -76.779       19.265      -11.958       15.988        7.486        6.702      255.627       56.044       44.912        0.338        0.018       79.159        2.451        0.001      334.060        3.784      860.584
10/27/2013  07:17:00      -80.087        7.767      -13.731       15.782       12.290        9.741      249.079      151.032       94.894        0.358        0.025       80.463        8.028        0.010      333.915        3.546      860.550
10/27/2013  07:18:00      -65.195       -2.269      -11.915       12.777       17.558        9.745      163.252      308.268       94.963        0.248        0.028       65.235        5.476        0.007      333.987        3.663      860.525
10/27/2013  07:19:00      -71.564      -16.766      -12.930       14.277       14.748       10.087      203.834      217.507      101.742        0.305        0.026       73.502        5.560        0.006      333.823        3.390      860.527
10/27/2013  07:20:00      -85.519      -18.154      -16.524       12.263       11.500        9.081      150.391      132.250       82.472        0.414        0.018       87.425        6.123        0.005      333.892        3.505      860.549
10/27/2013  07:21:00     -117.479       -1.335      -19.219       25.924       29.140       12.838      672.042      849.136      164.812        0.793        0.084      117.487        9.520        0.007      333.829        3.400      860.556
10/27/2013  07:22:00      -66.322       -8.168      -10.905       30.093       21.276       12.240      905.610      452.679      149.830        0.305        0.075       66.823       13.386        0.040      333.790        3.336      860.547
10/27/2013  07:23:00      -61.982      -24.095      -13.475       14.083       14.774       13.380      198.336      218.283      179.016        0.260        0.030       66.501        7.880        0.014      333.817        3.382      860.535
10/27/2013  07:24:00      -73.815      -30.837      -10.847       19.916       16.962       15.556      396.630      287.725      241.988        0.372        0.046       79.997        8.124        0.010      333.784        3.325      860.526
10/27/2013  07:25:00      -73.745      -42.700      -13.232       18.438       20.916       14.422      339.973      437.477      207.986        0.421        0.049       85.216        7.073        0.007      333.770        3.302      860.531
10/27/2013  07:26:00      -61.793      -28.631      -10.571       48.229       16.940       14.785     2326.079      286.978      218.601        0.379        0.142       68.103       13.787        0.041      333.756        3.281      860.530
10/27/2013  07:27:00      -95.056      -23.857      -12.829       20.385       15.688       10.308      415.565      246.116      106.254        0.527        0.038       98.004        6.391        0.004      333.718        3.217      860.527
10/27/2013  07:28:00      -64.358      -24.129      -15.099       14.177       18.953       12.492      200.999      359.213      156.045        0.283        0.036       68.732        7.298        0.011      333.776        3.312      860.516
10/27/2013  07:29:00      -75.502      -14.589      -11.066       30.544       21.504       12.679      932.911      462.401      160.747        0.380        0.078       76.899        8.594        0.012      333.802        3.356      860.511
10/27/2013  07:30:00      -90.049       -3.925      -12.259       14.891       13.547       11.293      221.744      183.529      127.535        0.440        0.027       90.135        7.618        0.007      333.798        3.350      860.484
10/27/2013  07:31:00      -61.339        1.898      -12.796       21.203       17.251       10.489      449.582      297.596      110.018        0.239        0.043       61.368        4.369        0.005      333.796        3.346      860.443
10/27/2013  07:32:00      -76.001        0.794      -19.199       18.489       16.951        7.833      341.843      287.345       61.350        0.342        0.035       76.005        7.873        0.011      333.815        3.378      860.400
10/27/2013  07:33:00      -44.323      -16.264      -10.207        9.545       13.004       10.235       91.110      169.094      104.751        0.135        0.018       47.213        7.139        0.023      333.988        3.665      860.402
10/27/2013  07:34:00      -43.508      -26.343       -5.627       21.128       16.290       12.598      446.383      265.379      158.697        0.174        0.044       50.862        8.455        0.028      333.985        3.661      860.440
10/27/2013  07:35:00      -46.171       -0.788       -9.380       13.380       10.199       11.305      179.031      104.025      127.805        0.132        0.021       46.178       10.184        0.049      334.099        3.848      860.466
10/27/2013  07:36:00      -27.131      -15.737       -3.082       14.880       12.766        9.160      221.405      162.978       83.914        0.073        0.023       31.365        5.162        0.027      334.090        3.832      860.511
10/27/2013  07:37:00      -31.926       -6.680       -7.734        7.737        8.562        6.840       59.863       73.306       46.792        0.065        0.009       32.617        4.874        0.022      334.019        3.716      860.533
10/27/2013  07:38:00       -8.266       46.135      -13.704        9.171       31.781        8.376       84.099     1010.058       70.154        0.177        0.058       46.869       14.625        0.097      334.586        4.658      860.512
10/27/2013  07:39:00      -49.326       -8.171       -3.687       17.282       26.190       10.594      298.679      685.923      112.229        0.180        0.055       49.998        5.896        0.014      334.282        4.152      860.494
10/27/2013  07:40:00      -58.041      -28.032      -15.046       16.152       10.144        8.867      260.880      102.894       78.622        0.241        0.022       64.456        7.586        0.014      334.090        3.833      860.490
10/27/2013  07:41:00      -94.440      -33.506      -10.086       19.747       16.327       12.633      389.954      266.585      159.588        0.548        0.041      100.207        7.007        0.005      333.776        3.313      860.496
10/27/2013  07:42:00      -79.882       -5.442       -7.063       12.730       11.948       11.677      162.048      142.754      136.358        0.345        0.022       80.067        5.386        0.005      333.990        3.668      860.500
10/27/2013  07:43:00      -75.836      -10.698      -13.290       17.093       11.773        8.903      292.187      138.601       79.263        0.328        0.026       76.587        9.372        0.015      333.891        3.504      860.504
10/27/2013  07:44:00      -66.826        0.688      -10.391       10.009       10.865        8.689      100.179      118.046       75.496        0.243        0.015       66.829        6.564        0.010      333.886        3.496      860.509
10/27/2013  07:45:00      -46.503        5.386       -1.648       10.146        9.960        8.739      102.947       99.200       76.371        0.124        0.014       46.814        3.853        0.007      334.014        3.706      860.490
10/27/2013  07:46:00      -64.650       -4.712      -13.725       12.649       12.351        6.900      160.008      152.546       47.610        0.238        0.018       64.821        4.273        0.004      334.100        3.848      860.465
10/27/2013  07:47:00      -82.253      -29.105      -10.080       14.221       17.658       12.058      202.232      311.814      145.407        0.419        0.033       87.251        6.747        0.006      333.999        3.683      860.464
10/27/2013  07:48:00      -91.445       -8.184      -15.364       14.520        9.044        8.769      210.830       81.788       76.896        0.452        0.018       91.811        5.465        0.004      334.068        3.796      860.476
10/27/2013  07:49:00      -58.483      -13.729      -12.497        8.644        8.338        5.938       74.720       69.530       35.259        0.197        0.009       60.073        3.794        0.004      334.440        4.412      860.475
10/27/2013  07:50:00      -18.749       -3.321       -0.576       13.613       17.572        6.473      185.307      308.778       41.905        0.045        0.027       19.041        6.794        0.127      334.663        4.783      860.453
10/27/2013  07:51:00        5.594       12.104        3.260        6.863        8.086        7.254       47.099       65.379       52.628        0.018        0.008       13.334        5.145        0.149      334.836        5.072      860.448
10/27/2013  07:52:00       -9.107       -4.267       -3.572       21.278       12.492        9.147      452.770      156.044       83.665        0.040        0.035       10.057        3.238        0.104      334.916        5.205      860.468
10/27/2013  07:53:00      -62.996      -41.566      -10.013       12.908       15.089       10.097      166.607      227.679      101.959        0.315        0.025       75.473        5.809        0.006      334.078        3.813      860.476
10/27/2013  07:54:00      -63.446      -57.727       -2.920       16.445       10.677       11.952      270.428      114.004      142.854        0.395        0.026       85.778        5.716        0.004      334.169        3.965      860.473
10/27/2013  07:55:00      -45.198      -45.716       -6.691       10.704       12.775       11.586      114.586      163.208      134.232        0.229        0.021       64.287        9.363        0.021      334.483        4.485      860.463
10/27/2013  07:56:00      -10.725      -11.847       -2.169       15.700       12.411        5.273      246.488      154.039       27.802        0.034        0.021       15.981        6.325        0.157      334.725        4.887      860.427
10/27/2013  07:57:00      -37.312        4.269       -5.710       10.470        6.006        3.560      109.612       36.071       12.675        0.080        0.008       37.555        2.721        0.005      334.845        5.088      860.410
10/27/2013  07:58:00      -48.559       19.682       -6.951        6.972       11.529        5.635       48.604      132.919       31.757        0.150        0.011       52.396        2.837        0.003      334.993        5.332      860.374
10/27/2013  07:59:00      -29.934       25.436       -3.944        6.222        6.855        7.439       38.715       46.994       55.332        0.085        0.007       39.281        4.422        0.013      335.180        5.643      860.328
10/27/2013  08:00:00      -18.520        3.890      -10.170       19.059       12.379        5.493      363.236      153.241       30.171        0.050        0.027       18.924        4.351        0.053      335.237        5.738      860.308
10/27/2013  08:01:00      -12.068      -10.103       -3.172        9.274        5.970        5.755       86.007       35.644       33.119        0.021        0.008       15.739        5.622        0.128      335.288        5.821      860.320
10/27/2013  08:02:00      -64.067      -11.513       -8.983       15.400       11.335        9.879      237.172      128.485       97.589        0.239        0.023       65.093        8.660        0.018      334.352        4.269      860.339
10/27/2013  08:03:00      -81.117      -11.799      -12.886        8.868        8.963        6.791       78.638       80.340       46.122        0.355        0.010       81.970        3.102        0.001      334.495        4.506      860.360
10/27/2013  08:04:00      -74.012       -9.246      -16.851       14.510       10.393        6.436      210.536      108.021       41.427        0.310        0.018       74.587        6.411        0.007      334.645        4.755      860.371
10/27/2013  08:05:00      -58.064        1.271      -10.960        7.189        5.408        4.906       51.681       29.246       24.071        0.180        0.005       58.078        2.203        0.001      334.620        4.714      860.352
10/27/2013  08:06:00      -41.660       -2.730      -10.029       14.814        8.925        8.613      219.464       79.650       74.175        0.111        0.019       41.749       10.826        0.067      334.679        4.811      860.319
10/27/2013  08:07:00       -2.815        6.678        3.474       31.916       11.328       10.891     1018.644      128.319      118.620        0.066        0.063        7.247       16.865        5.415      334.982        5.317      860.279
10/27/2013  08:08:00       11.912       26.506        6.816       16.386       16.375       12.796      268.515      268.137      163.725        0.080        0.035       29.060        9.998        0.118      335.239        5.741      860.251
10/27/2013  08:09:00       -2.917       27.069       -4.128       12.753       16.371       10.185      162.639      267.996      103.735        0.065        0.027       27.225        3.704        0.019      335.332        5.894      860.258
10/27/2013  08:10:00       18.494       17.746        0.011       13.984        9.064       13.898      195.564       82.159      193.165        0.056        0.024       25.631        8.853        0.119      335.373        5.962      860.268
10/27/2013  08:11:00       20.105       25.818       28.999       26.257       22.332       27.984      689.425      498.736      783.086        0.194        0.099       32.723       23.005        0.494      335.270        5.790      860.273
10/27/2013  08:12:00       -4.961       79.253       96.788       25.167       45.575       26.670      633.387     2077.091      711.293        0.955        0.171       79.408       31.175        0.154      335.178        5.638      860.308
10/27/2013  08:13:00        0.320       70.950       82.703       28.961       41.110       36.263      838.761     1690.064     1315.018        0.786        0.192       70.951       27.648        0.152      335.317        5.869      860.330
10/27/2013  08:14:00       13.225       45.628       58.492       26.809       32.751       16.352      718.725     1072.640      267.381        0.387        0.103       47.505       11.702        0.061      335.349        5.922      860.307
10/27/2013  08:15:00       22.798       11.465        1.927       26.666       19.111       17.048      711.059      365.239      290.621        0.101        0.068       25.518       13.149        0.266      335.323        5.879      860.269
10/27/2013  08:16:00      -33.146       12.221       -7.630       13.262       12.084        6.883      175.875      146.017       47.375        0.084        0.018       35.327        4.146        0.014      335.295        5.834      860.282
10/27/2013  08:17:00      -49.688       17.077       -7.795       15.591       13.945        6.966      243.087      194.451       48.527        0.165        0.024       52.540        5.720        0.012      335.204        5.682      860.288
10/27/2013  08:18:00        1.756       39.106        1.995       21.936       14.270       13.851      481.176      203.637      191.847        0.121        0.044       39.145       14.192        0.131      335.411        6.025      860.265
10/27/2013  08:19:00       32.678       29.642       17.179       26.771       23.349       12.511      716.670      545.161      156.537        0.183        0.071       44.119       13.896        0.099      335.617        6.369      860.251
10/27/2013  08:20:00       78.031       48.043       13.670       18.197       13.756       19.153      331.133      189.240      366.822        0.474        0.044       91.635       11.260        0.015      335.358        5.938      860.242
10/27/2013  08:21:00       46.556       29.268       23.130       26.895       34.573       28.105      723.322     1195.262      789.879        0.313        0.135       54.992       21.248        0.149      335.490        6.160      860.234
10/27/2013  08:22:00       18.666       33.969       42.828       25.231       22.850       14.946      636.594      522.108      223.377        0.236        0.069       38.759       15.026        0.150      335.646        6.417      860.244
10/27/2013  08:23:00       46.320        9.596       23.355       24.397       13.703       17.878      595.211      187.764      319.617        0.194        0.055       47.304       13.129        0.077      335.523        6.214      860.249
10/27/2013  08:24:00        4.784      -22.818        8.110       17.012       29.813       16.826      289.401      888.793      283.097        0.104        0.073       23.314       12.835        0.303      335.655        6.434      860.257
10/27/2013  08:25:00        1.614       14.426       37.445       20.213       17.290       17.690      408.550      298.954      312.944        0.132        0.051       14.516       14.109        0.945      335.931        6.893      860.232
10/27/2013  08:26:00       47.824       22.165       24.956       16.703       17.308       21.057      278.999      299.560      443.413        0.221        0.051       52.711       14.009        0.071      335.615        6.368      860.184
10/27/2013  08:27:00       45.214       16.572       14.880       32.178       18.224       15.566     1035.429      332.109      242.288        0.207        0.080       48.156       10.105        0.044      335.702        6.513      860.179
10/27/2013  08:28:00       16.702       20.747       14.589       19.125       15.444       15.493      365.750      238.508      240.026        0.088        0.042       26.634       12.949        0.236      335.901        6.844      860.181
10/27/2013  08:29:00       57.302       30.008        2.588       17.856       18.132       14.055      318.854      328.759      197.532        0.252        0.042       64.684       12.824        0.039      335.724        6.550      860.170
10/27/2013  08:30:00       54.091       15.192        5.387       15.008       15.856       16.322      225.237      251.401      266.393        0.196        0.037       56.184       11.276        0.040      335.661        6.443      860.164
10/27/2013  08:31:00        6.817       27.159       28.197       25.727       15.899       15.498      661.904      252.773      240.193        0.137        0.058       28.001        7.980        0.081      336.020        7.042      860.156
10/27/2013  08:32:00       58.998       21.920       12.122       28.221       25.568       25.148      796.420      653.737      632.408        0.310        0.104       62.939       16.605        0.070      335.852        6.762      860.147
10/27/2013  08:33:00       71.834       28.820        1.374       18.999       13.664       15.745      360.951      186.698      247.907        0.339        0.040       77.400        9.695        0.016      335.679        6.473      860.134
10/27/2013  08:34:00       81.979       32.440        3.073       24.831       20.475       22.882      616.599      419.228      523.587        0.467        0.078       88.164       11.356        0.017      335.797        6.669      860.128
10/27/2013  08:35:00       75.445       35.515       11.027       32.209       20.490       21.892     1037.434      419.825      479.246        0.451        0.097       83.386       18.465        0.049      335.774        6.633      860.149
10/27/2013  08:36:00      -11.919        5.689       18.718       14.038       14.895       14.553      197.067      221.854      211.789        0.058        0.032       13.207        5.945        0.203      336.099        7.173      860.183
10/27/2013  08:37:00      -10.408        7.625       26.186        7.092        8.492        9.890       50.292       72.114       97.813        0.054        0.011       12.902        7.104        0.303      336.391        7.662      860.192
10/27/2013  08:38:00      -46.290       35.442       -7.976       26.564       23.335       16.068      705.661      544.515      258.193        0.249        0.075       58.300       18.353        0.099      335.819        6.707      860.147
10/27/2013  08:39:00      -40.637       45.414       -8.236       28.441       20.453       12.738      808.910      418.343      162.263        0.259        0.069       60.940       10.774        0.031      335.931        6.892      860.105
10/27/2013  08:40:00       -4.100        8.585        9.967       15.320       13.661       13.169      234.688      186.625      173.415        0.039        0.030        9.513       10.122        1.132      336.345        7.584      860.084
10/27/2013  08:41:00       39.064       14.042       20.091       18.872       17.282       18.862      356.164      298.655      355.777        0.157        0.051       41.511       11.408        0.076      336.208        7.356      860.055
10/27/2013  08:42:00       28.476       29.809        4.064       16.173       26.738       23.939      261.559      714.935      573.052        0.163        0.077       41.225       18.145        0.194      336.219        7.374      860.045
10/27/2013  08:43:00      -11.830       11.661       -0.671       16.753       13.630       17.842      280.669      185.767      318.334        0.053        0.039       16.611       13.301        0.641      336.259        7.440      860.062
10/27/2013  08:44:00      -42.793      -10.304       -7.298       31.137       13.372        8.892      969.493      178.818       79.065        0.161        0.061       44.017        6.310        0.021      336.082        7.145      860.085
10/27/2013  08:45:00      -16.372       -3.513       -1.219       25.308        8.264       10.025      640.518       68.299      100.498        0.055        0.040       16.744        9.501        0.322      336.222        7.378      860.075
10/27/2013  08:46:00      -25.006       -5.217        2.458       21.603       20.529       12.137      466.670      421.425      147.312        0.085        0.052       25.544       10.013        0.154      336.225        7.383      860.060
10/27/2013  08:47:00      -57.433        3.689       -1.945       10.914       15.669        9.505      119.113      245.506       90.348        0.189        0.023       57.551        6.190        0.012      335.993        6.996      860.052
10/27/2013  08:48:00      -89.389       28.678       -6.525       14.627        9.341        9.788      213.946       87.254       95.814        0.463        0.020       93.876        2.735        0.001      336.020        7.041      860.055
10/27/2013  08:49:00      -90.064        6.195       -5.016       33.602       29.325        8.505     1129.073      859.983       72.341        0.512        0.103       90.277       12.104        0.018      336.061        7.109      860.060
10/27/2013  08:50:00      -25.749      -17.312       12.735       40.456       23.491       17.447     1636.657      551.816      304.381        0.181        0.125       31.028       20.608        0.441      336.322        7.547      860.044
10/27/2013  08:51:00      -27.359      -38.528       -2.795       19.794       14.227       11.202      391.810      202.399      125.483        0.148        0.036       47.254        8.163        0.030      336.218        7.371      860.052
10/27/2013  08:52:00       19.945      -24.638        8.588       34.021       46.880       30.707     1157.439     2197.750      942.928        0.269        0.215       31.699       31.459        0.985      336.695        8.171      860.048
10/27/2013  08:53:00       38.237       47.358       28.277       19.475       16.549       14.055      379.269      273.861      197.548        0.268        0.043       60.868       11.248        0.034      336.587        7.989      860.013
10/27/2013  08:54:00      -14.923       18.350        1.334       25.430       32.979       17.732      646.687     1087.595      314.439        0.130        0.102       23.652       13.423        0.322      336.608        8.025      859.969
10/27/2013  08:55:00      -59.994      -14.655       -6.404       16.105       20.149        8.911      259.355      405.990       79.403        0.230        0.037       61.758        3.746        0.004      336.339        7.573      859.949
10/27/2013  08:56:00      -33.022      -13.790        1.430        8.901        9.054        8.524       79.221       81.978       72.654        0.076        0.012       35.786        3.581        0.010      336.475        7.804      859.924
10/27/2013  08:57:00      -16.400        0.712        8.509        7.008        5.054        5.900       49.114       25.543       34.812        0.023        0.005       16.415        1.974        0.014      336.748        8.259      859.924
10/27/2013  08:58:00      -23.294      -24.407        4.641       16.984       17.299       12.760      288.458      299.272      162.807        0.096        0.038       33.739        9.105        0.073      336.725        8.222      859.954
10/27/2013  08:59:00       -8.303       20.543       24.480       14.783       13.371       12.950      218.551      178.791      167.713        0.083        0.028       22.158        6.775        0.093      337.032        8.734      859.933
10/27/2013  09:00:00      -51.871       23.372      -10.207       15.212       15.158        8.793      231.394      229.751       77.319        0.194        0.027       56.894        7.249        0.016      336.622        8.048      859.893
10/27/2013  09:01:00      -13.314        3.072        1.313       18.158       23.550       13.185      329.702      554.612      173.848        0.062        0.053       13.664       14.456        1.119      337.065        8.787      859.877
10/27/2013  09:02:00       -3.343       18.562       24.445       13.936       18.618       20.537      194.217      346.622      421.754        0.096        0.048       18.861       11.455        0.369      337.438        9.410      859.860
10/27/2013  09:03:00       17.248       42.161       38.001       36.805       27.100       26.364     1354.619      734.407      695.039        0.315        0.139       45.552       27.807        0.373      337.333        9.235      859.855
10/27/2013  09:04:00       -4.393       40.382       60.987       16.451       41.557       24.096      270.622     1726.952      580.639        0.397        0.129       40.620       27.719        0.466      337.484        9.488      859.880
10/27/2013  09:05:00       25.517      -21.938       32.593       30.358       44.279       28.975      921.592     1960.591      839.522        0.296        0.186       33.651       29.316        0.759      337.484        9.488      859.888
10/27/2013  09:06:00      -16.544       -5.695       16.368       26.643       33.952       19.333      709.836     1152.748      373.746        0.140        0.112       17.497       20.985        1.439      337.314        9.204      859.868
10/27/2013  09:07:00       20.157       42.884        5.914       26.584       24.063       23.024      706.689      579.043      530.088        0.205        0.091       47.385       17.062        0.130      337.318        9.212      859.814
10/27/2013  09:08:00       37.311       55.971       -1.111       28.800       28.896       24.476      829.454      835.003      599.053        0.339        0.113       67.267       20.598        0.094      337.392        9.336      859.775
10/27/2013  09:09:00       39.313       50.271        1.826       23.703       21.530       21.883      561.845      463.549      478.861        0.279        0.075       63.818       18.656        0.085      337.523        9.556      859.765
10/27/2013  09:10:00       28.191       37.015       22.829       23.554       29.475       22.680      554.774      868.800      514.400        0.231        0.097       46.528       13.011        0.078      337.636        9.745      859.770
10/27/2013  09:11:00        1.013       32.422       42.310       16.807       18.209       13.471      282.459      331.567      181.477        0.182        0.040       32.437        7.827        0.058      337.975       10.312      859.777
10/27/2013  09:12:00       22.709       44.697       14.375       19.414       21.661       20.993      376.899      469.182      440.704        0.200        0.064       50.135       15.413        0.095      337.484        9.489      859.760
10/27/2013  09:13:00       59.804       64.698      -15.963       30.726       23.306       19.061      944.081      543.161      363.316        0.493        0.093       88.104       10.546        0.014      337.443        9.421      859.718
10/27/2013  09:14:00       80.036       62.870       10.473       29.988       23.911       35.274      899.294      571.735     1244.251        0.659        0.136      101.776       17.054        0.028      337.445        9.423      859.685
10/27/2013  09:15:00       27.262       46.194       63.566       40.025       40.530       36.521     1601.964     1642.656     1333.785        0.575        0.229       53.638       31.747        0.350      337.685        9.828      859.690
10/27/2013  09:16:00       26.825       20.238       78.069       51.825      111.272       50.839     2685.825    12381.358     2584.616        1.243        0.883       33.603       65.845        3.840      337.621        9.718      859.702
10/27/2013  09:17:00       36.426        0.229       40.014       55.465       74.905       53.155     3076.348     5610.779     2825.407        0.722        0.576       36.427       53.899        2.189      337.564        9.624      859.711
10/27/2013  09:18:00       47.904       66.638       46.295       38.012       27.981       38.811     1444.929      782.947     1506.323        0.631        0.187       82.070       35.129        0.183      337.103        8.851      859.682
10/27/2013  09:19:00       85.819       61.751       12.333       26.286       21.345       25.810      690.932      455.625      666.158        0.657        0.091      105.726       12.806        0.015      337.234        9.069      859.629
10/27/2013  09:20:00       75.650       74.862       55.842       51.380       37.988       47.912     2639.881     1443.094     2295.520        1.041        0.319      106.430       36.979        0.121      337.233        9.070      859.605
10/27/2013  09:21:00       45.459       53.262       54.172       44.326       41.503       46.100     1964.781     1722.485     2125.249        0.682        0.291       70.024       40.281        0.331      337.344        9.256      859.606
10/27/2013  09:22:00       42.650       67.820       63.224       33.990       34.218       30.840     1155.317     1170.904      951.082        0.685        0.164       80.116       19.681        0.060      337.404        9.354      859.610
10/27/2013  09:23:00       59.242       49.416        6.843       29.435       32.389       32.395      866.438     1049.062     1049.408        0.448        0.148       77.146       24.820        0.104      337.333        9.236      859.591
10/27/2013  09:24:00       36.482       46.288       23.611       37.027       25.370       44.865     1370.993      643.649     2012.862        0.403        0.201       58.936       23.763        0.163      337.725        9.893      859.581
10/27/2013  09:25:00       12.675       53.541       70.234       32.432       32.689       29.470     1051.803     1068.593      868.471        0.547        0.149       55.021       23.009        0.175      337.718        9.882      859.584
10/27/2013  09:26:00       13.557       62.601       72.350       35.393       32.241       30.811     1252.648     1039.469      949.314        0.629        0.162       64.052       28.707        0.201      337.570        9.633      859.581
10/27/2013  09:27:00       71.002       65.561       43.505       27.770       26.682       34.194      771.161      711.913     1169.252        0.694        0.133       96.641       23.084        0.057      337.304        9.187      859.561
10/27/2013  09:28:00       18.560       41.685       38.615       29.490       33.197       28.078      869.668     1102.013      788.398        0.317        0.138       45.630       13.828        0.092      337.812       10.039      859.543
10/27/2013  09:29:00       17.439       58.939       59.041       28.850       21.487       13.150      832.297      461.711      172.924        0.437        0.073       61.465        8.854        0.021      337.570        9.633      859.516
10/27/2013  09:30:00       -2.196       12.997       37.864       14.458       28.101       27.226      209.045      789.644      741.265        0.167        0.087       13.181       22.919        3.023      337.830       10.068      859.480
10/27/2013  09:31:00        6.312       30.279       51.909       22.821       28.830       15.868      520.819      831.152      251.807        0.263        0.080       30.930       15.143        0.240      337.893       10.176      859.438
10/27/2013  09:32:00       74.384       77.703       51.758       33.396       22.057       27.118     1115.269      486.500      735.367        0.829        0.117      107.567       14.763        0.019      337.506        9.525      859.394
10/27/2013  09:33:00       73.941       59.453       63.932       52.687       38.686       37.191     2775.932     1496.580     1383.182        0.937        0.283       94.878       35.046        0.136      337.479        9.481      859.367
10/27/2013  09:34:00       34.207       68.205       77.343       37.240       39.255       20.194     1386.824     1540.967      407.814        0.757        0.167       76.303       20.679        0.073      337.641        9.753      859.366
10/27/2013  09:35:00       76.104       79.034       56.447       33.805       22.240       20.261     1142.759      494.618      410.521        0.864        0.102      109.719       17.134        0.024      337.368        9.294      859.377
10/27/2013  09:36:00       31.885       35.236       20.827       21.015       20.714       18.237      441.626      429.069      332.572        0.195        0.060       47.521       15.383        0.105      337.462        9.452      859.374
10/27/2013  09:37:00        2.951       14.462        5.453       18.666       21.372       17.177      348.414      456.743      295.040        0.067        0.055       14.760        9.398        0.405      337.986       10.330      859.355
10/27/2013  09:38:00       -3.620       85.994       -6.834       22.748       31.873       26.088      517.470     1015.891      680.607        0.483        0.111       86.070       16.177        0.035      337.776        9.978      859.348
10/27/2013  09:39:00       44.682       85.314      -17.139       35.442       23.656       22.015     1256.141      559.587      484.641        0.593        0.115       96.307       11.306        0.014      337.789       10.000      859.330
10/27/2013  09:40:00       42.764       65.664       70.207       39.223       36.420       28.267     1538.481     1326.395      799.011        0.737        0.183       78.361       20.586        0.069      337.915       10.212      859.306
10/27/2013  09:41:00       18.306       82.691       88.193       31.267       44.983       26.316      977.606     2023.515      692.517        0.932        0.185       84.693       20.785        0.060      337.909       10.201      859.280
10/27/2013  09:42:00       65.837       53.031       53.166       69.594       58.032       42.592     4843.289     3367.709     1814.044        1.000        0.501       84.539       39.349        0.217      337.798       10.014      859.272
10/27/2013  09:43:00       -2.778       74.880       88.614       22.910       30.433       19.607      524.888      926.160      384.421        0.765        0.092       74.931       18.081        0.058      337.812       10.039      859.247
10/27/2013  09:44:00        5.385       64.650       35.353       29.891       47.629       35.795      893.482     2268.475     1281.250        0.495        0.222       64.874       36.178        0.311      338.153       10.612      859.227
10/27/2013  09:45:00       46.737       91.939       -9.991       52.156       43.223       25.719     2720.257     1868.186      661.442        0.799        0.262      103.137       25.909        0.063      337.960       10.287      859.202
10/27/2013  09:46:00       24.719       36.712       -1.266       41.672       30.603       22.372     1736.586      936.534      500.503        0.257        0.159       44.258       16.899        0.146      338.069       10.472      859.196
10/27/2013  09:47:00       62.914       30.919       20.752       44.438       44.924       25.586     1974.771     2018.170      654.621        0.500        0.232       70.102       16.617        0.056      338.169       10.637      859.219
10/27/2013  09:48:00        2.585       63.166       81.691       30.245       66.261       50.573      914.746     4390.582     2557.652        0.927        0.393       63.218       53.550        0.718      338.346       10.937      859.218
10/27/2013  09:49:00       17.897       85.661      105.463       34.362       38.662       26.752     1180.715     1494.712      715.691        1.109        0.170       87.511       24.885        0.081      338.020       10.388      859.207
10/27/2013  09:50:00      105.700      111.187      100.308       60.869       57.729       46.253     3705.062     3332.590     2139.372        2.139        0.459      153.411       42.589        0.077      337.904       10.193      859.180
10/27/2013  09:51:00       69.964      108.824       82.964       67.727       40.540       38.977     4587.001     1643.455     1519.195        1.568        0.387      129.374       40.750        0.099      338.068       10.469      859.161
10/27/2013  09:52:00       10.463       58.543       71.261       26.766       35.862       21.752      716.425     1286.080      473.146        0.554        0.124       59.471       17.437        0.086      338.357       10.953      859.142
10/27/2013  09:53:00        2.465        9.419       55.261       26.126       47.458       25.862      682.551     2252.296      668.829        0.338        0.180        9.736       26.057        7.163      338.665       11.470      859.117
10/27/2013  09:54:00       76.991       75.045       35.492       51.552       23.523       42.011     2657.578      553.353     1764.926        0.890        0.249      107.515       38.805        0.130      338.110       10.540      859.092
10/27/2013  09:55:00      115.584       84.057       -7.269       40.289       31.086       37.705     1623.228      966.327     1421.698        1.224        0.201      142.917       20.552        0.021      337.968       10.301      859.057
10/27/2013  09:56:00       77.175       66.423       18.425       31.693       28.151       29.598     1004.455      792.469      876.016        0.669        0.134      101.824       18.489        0.033      338.042       10.425      859.027
10/27/2013  09:57:00       92.483       52.561        8.688       28.741       32.960       24.129      826.027     1086.334      582.231        0.694        0.125      106.376       14.223        0.018      337.939       10.252      859.030
10/27/2013  09:58:00       79.330       52.936        9.612       19.755       22.631       23.167      390.272      512.155      536.731        0.531        0.072       95.370       14.242        0.022      338.003       10.359      859.022
10/27/2013  09:59:00       58.315       32.292       -8.529       12.223       15.284       14.079      149.398      233.594      198.214        0.255        0.029       66.659        7.230        0.012      337.962       10.291      858.995
10/27/2013  10:00:00       70.716       28.136        0.974       33.317       22.796       24.855     1110.039      519.675      617.765        0.402        0.112       76.107       11.012        0.021      338.208       10.703      858.967
10/27/2013  10:01:00       29.636       36.798       24.388       27.996       21.971       23.365      783.779      482.742      545.933        0.232        0.091       47.248       14.135        0.089      338.727       11.574      858.923
10/27/2013  10:02:00       23.422       45.990       13.473       41.119       29.161       27.336     1690.808      850.357      747.266        0.307        0.164       51.610       24.504        0.225      338.795       11.690      858.885
10/27/2013  10:03:00       40.906       61.236        4.663       43.778       44.098       38.341     1916.518     1944.641     1470.050        0.539        0.267       73.642       31.830        0.187      338.666       11.473      858.855
10/27/2013  10:04:00       11.710       40.672        2.522       46.295       43.986       32.778     2143.194     1934.786     1074.384        0.347        0.258       42.324       23.692        0.313      338.564       11.301      858.848
10/27/2013  10:05:00      -31.725      -13.676      -12.297       17.226       16.154       12.239      296.749      260.946      149.803        0.103        0.035       34.547        8.634        0.062      338.442       11.097      858.858
10/27/2013  10:06:00      -25.577      -18.565       -7.704       22.016       17.428       11.677      484.688      303.752      136.353        0.099        0.046       31.604        9.339        0.087      338.407       11.037      858.883
10/27/2013  10:07:00      -33.457        0.743       -9.059       10.914       12.289        7.478      119.121      151.021       55.914        0.076        0.016       33.465        4.372        0.017      338.408       11.039      858.886
10/27/2013  10:08:00       -7.222       10.999       48.919       11.851       16.905       24.126      140.456      285.780      582.088        0.179        0.050       13.158       16.200        1.516      339.589       13.027      858.882
10/27/2013  10:09:00        9.144        4.283       41.517       30.456       48.782       42.532      927.574     2379.691     1809.008        0.347        0.256       10.098       41.202       16.649      339.141       12.271      858.887
10/27/2013  10:10:00        9.067       23.902       48.998       20.465       22.258       18.308      418.812      495.424      335.195        0.215        0.062       25.564        8.946        0.122      339.552       12.963      858.866
10/27/2013  10:11:00       20.090       12.777       49.258       31.954       49.075       28.884     1021.060     2408.330      834.310        0.363        0.213       23.809       30.519        1.643      339.209       12.386      858.838
10/27/2013  10:12:00      -24.454      -16.833      -23.532       23.402       26.226       12.313      547.661      687.820      151.600        0.141        0.069       29.687       10.473        0.124      338.682       11.499      858.839
10/27/2013  10:13:00       -5.514      -14.277       19.605        9.836       34.773       24.746       96.740     1209.155      612.376        0.127        0.096       15.305       22.719        2.204      339.136       12.263      858.830
10/27/2013  10:14:00       11.141       44.370       52.800       21.417       28.373       21.919      458.698      805.031      480.464        0.331        0.087       45.747       18.834        0.169      339.213       12.393      858.823
10/27/2013  10:15:00       54.265       48.311       35.382       17.980       10.426       16.910      323.280      108.697      285.941        0.362        0.036       72.654       10.984        0.023      338.897       11.861      858.809
10/27/2013  10:16:00       60.277       52.951       33.254       24.872       17.810       24.918      618.641      317.190      620.927        0.455        0.078       80.231       16.031        0.040      338.901       11.868      858.781
10/27/2013  10:17:00       27.236       62.666       66.606       40.351       26.912       22.717     1628.210      724.248      516.042        0.599        0.143       68.329        8.538        0.016      339.400       12.707      858.734
10/27/2013  10:18:00       -4.165       43.197       39.024       28.168       24.482       28.510      793.434      599.358      812.846        0.281        0.110       43.397       12.535        0.083      339.612       13.064      858.691
10/27/2013  10:19:00       51.772       44.128       -4.459       27.426       23.899       22.886      752.172      571.169      523.758        0.325        0.092       68.026        7.567        0.012      339.054       12.124      858.660
10/27/2013  10:20:00       26.838       23.266       16.332       29.111       20.236       22.557      847.427      409.516      508.799        0.165        0.088       35.519       14.612        0.169      339.448       12.789      858.638
10/27/2013  10:21:00      -30.056       14.240        0.871       12.018       10.990       12.924      144.436      120.778      167.032        0.077        0.022       33.259        5.192        0.024      339.056       12.128      858.635
10/27/2013  10:22:00      -14.501       34.014       62.529       24.042       38.914       27.078      577.994     1514.322      733.198        0.405        0.141       36.976       24.036        0.423      339.816       13.409      858.630
10/27/2013  10:23:00       33.773       81.270      100.290       50.100       46.264       23.990     2509.962     2140.350      575.537        1.151        0.261       88.008       22.541        0.066      339.464       12.816      858.598
10/27/2013  10:24:00       46.956       70.801       71.653       55.129       52.114       42.614     3039.212     2715.870     1815.941        0.996        0.379       84.957       35.960        0.179      339.233       12.426      858.563
10/27/2013  10:25:00       91.170       82.108       33.183       41.885       43.219       44.444     1754.350     1867.884     1975.236        1.088        0.280      122.693       38.776        0.100      339.035       12.092      858.518
10/27/2013  10:26:00        5.599       60.920       74.945       29.910       38.238       41.910      894.612     1462.167     1756.450        0.674        0.206       61.177       35.976        0.346      339.448       12.788      858.462
10/27/2013  10:27:00        4.806       39.806       56.326       23.500       34.592       30.830      552.270     1196.603      950.494        0.374        0.135       40.095       24.929        0.387      339.881       13.517      858.439
10/27/2013  10:28:00       58.668       58.173       11.804       47.601       29.121       35.158     2265.860      848.011     1236.070        0.566        0.217       82.620       26.429        0.102      339.663       13.150      858.425
10/27/2013  10:29:00       37.878       79.053        7.477       32.614       60.563       38.405     1063.663     3667.882     1474.980        0.697        0.310       87.659       42.003        0.230      339.573       12.998      858.400
10/27/2013  10:30:00       62.080       44.389        8.909       33.545       30.561       25.109     1125.290      933.985      630.441        0.430        0.134       76.317       15.710        0.042      339.383       12.679      858.386
10/27/2013  10:31:00       25.101      -13.546       12.255       32.142       12.112       15.725     1033.112      146.710      247.284        0.120        0.071       28.523        7.019        0.061      339.565       12.986      858.388
10/27/2013  10:32:00       40.315       12.502       16.145       18.046       22.015       25.428      325.663      484.645      646.566        0.175        0.073       42.209       19.201        0.207      339.545       12.951      858.374
10/27/2013  10:33:00       37.585       37.755       -4.150       28.157       24.346       26.097      792.828      592.720      681.071        0.246        0.103       53.274       10.696        0.040      339.575       13.003      858.333
10/27/2013  10:34:00       95.670       69.115       13.278       35.671       27.526       31.235     1272.430      757.692      975.633        0.856        0.150      118.024       18.539        0.025      339.533       12.932      858.283
10/27/2013  10:35:00      130.306       77.670       -0.948       31.517       30.932       26.490      993.338      956.795      701.723        1.283        0.133      151.698        6.983        0.002      339.648       13.125      858.231
10/27/2013  10:36:00       14.470       48.025       55.795       54.911       44.857       37.891     3015.197     2012.179     1435.747        0.604        0.323       50.157       36.958        0.543      340.463       14.502      858.212
10/27/2013  10:37:00       14.534       -9.554       56.746       45.372       75.884       32.331     2058.639     5758.401     1045.289        0.619        0.443       17.393       34.267        3.881      340.179       14.021      858.203
10/27/2013  10:38:00       26.525       40.632       54.471       42.183       29.043       23.635     1779.370      843.506      558.600        0.425        0.159       48.524       19.553        0.162      340.209       14.074      858.199
10/27/2013  10:39:00       54.055       59.649       42.681       28.197       22.971       26.670      795.052      527.660      711.302        0.517        0.102       80.498       18.946        0.055      339.677       13.175      858.180
10/27/2013  10:40:00       53.125       58.332       13.522       41.262       25.960       24.898     1702.588      673.937      619.930        0.470        0.150       78.898       14.615        0.034      339.880       13.517      858.126
10/27/2013  10:41:00       18.672       53.810       -0.100       34.519       34.112       29.775     1191.574     1163.656      886.556        0.324        0.162       56.957       28.689        0.254      340.085       13.862      858.082
10/27/2013  10:42:00       83.595       52.770       13.082       44.009       39.147       25.868     1936.772     1532.482      669.160        0.704        0.207       98.858       21.166        0.046      340.030       13.769      858.054
10/27/2013  10:43:00       42.803       59.653       31.030       43.521       50.345       47.130     1894.056     2534.624     2221.273        0.650        0.332       73.420       35.527        0.234      340.089       13.870      858.024
10/27/2013  10:44:00       38.172      131.475      119.943       58.441       41.103       34.867     3415.397     1689.468     1215.678        1.972        0.316      136.904       32.899        0.058      339.877       13.511      858.027
10/27/2013  10:45:00       45.634       35.356       54.096       63.876       51.600       35.504     4080.153     2662.515     1260.569        0.713        0.400       57.727       32.768        0.322      340.015       13.745      858.051
10/27/2013  10:46:00       16.020       31.811       73.760       41.610       53.096       41.239     1731.411     2819.200     1700.639        0.648        0.313       35.617       35.734        1.007      340.205       14.067      858.066
10/27/2013  10:47:00       23.582       67.128       91.139       52.525       55.517       36.144     2758.873     3082.127     1306.421        1.026        0.357       71.150       36.630        0.265      340.339       14.292      858.036
10/27/2013  10:48:00       94.071       96.660       55.342       32.318       26.487       50.855     1044.468      701.569     2586.254        1.279        0.217      134.879       18.214        0.018      339.764       13.321      858.006
10/27/2013  10:49:00       43.675       88.299       84.823       56.300       39.578       46.536     3169.656     1566.388     2165.605        1.190        0.345       98.510       34.407        0.122      340.196       14.050      857.961
10/27/2013  10:50:00       47.201       48.146       81.885       40.715       45.702       35.954     1657.683     2088.662     1292.693        0.814        0.252       67.423       31.578        0.219      340.091       13.872      857.924
10/27/2013  10:51:00       35.636       18.877       30.500       31.201       27.292       26.750      973.473      744.842      715.568        0.249        0.122       40.327       13.165        0.107      340.092       13.875      857.884
10/27/2013  10:52:00       34.551      -46.326        0.479       32.127       65.414       23.377     1032.171     4278.927      546.507        0.460        0.293       57.792       23.671        0.168      340.093       13.877      857.846
10/27/2013  10:53:00        4.838       33.592       10.832       23.832       31.573       23.591      567.984      996.835      556.526        0.169        0.106       33.939       17.722        0.273      340.499       14.561      857.821
10/27/2013  10:54:00       24.315       28.793       28.574       30.933       25.553       26.885      956.821      652.934      722.822        0.228        0.117       37.687       17.580        0.218      340.986       15.385      857.775
10/27/2013  10:55:00      154.555       90.523       21.168       48.073       33.875       33.098     2310.987     1147.509     1095.450        1.854        0.228      179.114       20.038        0.013      340.005       13.727      857.728
10/27/2013  10:56:00      107.451       68.041       -5.372       51.198       44.192       29.190     2621.187     1952.890      852.072        1.081        0.271      127.183       13.836        0.012      339.966       13.664      857.697
10/27/2013  10:57:00       10.868       33.187       42.091       51.281       50.358       61.814     2629.725     2535.933     3821.005        0.599        0.449       34.921       49.095        1.977      340.682       14.871      857.674
10/27/2013  10:58:00      105.215       97.798       35.974       75.449       31.453       44.834     5692.509      989.323     2010.123        1.531        0.435      143.648       48.821        0.116      340.019       13.751      857.649
10/27/2013  10:59:00      103.468       55.429       15.144       33.781       29.994       28.447     1141.133      899.637      809.237        0.843        0.143      117.380       15.770        0.018      340.066       13.829      857.609
10/27/2013  11:00:00      111.590       89.611        6.507       35.310       31.849       29.777     1246.765     1014.374      886.646        1.184        0.157      143.117       18.398        0.017      340.046       13.797      857.573
10/27/2013  11:01:00       79.866       50.546       39.842       53.346       47.526       33.923     2845.786     2258.768     1150.789        0.839        0.313       94.517       24.272        0.066      340.485       14.538      857.551
10/27/2013  11:02:00        9.222       35.829       50.179       26.316       40.052       27.944      692.554     1604.165      780.860        0.348        0.154       36.997       21.427        0.335      341.063       15.517      857.540
10/27/2013  11:03:00       13.742       28.703       60.248       38.241       42.198       34.661     1462.407     1780.689     1201.379        0.454        0.222       31.822       22.483        0.499      340.966       15.352      857.528
10/27/2013  11:04:00       73.598       43.275       72.113       46.457       63.108       40.487     2158.279     3982.636     1639.223        1.013        0.389       85.377       39.129        0.210      340.605       14.741      857.554
10/27/2013  11:05:00       84.197       97.260       77.328       65.028       48.225       55.433     4228.654     2325.686     3072.842        1.608        0.481      128.641       47.476        0.136      340.698       14.897      857.518
10/27/2013  11:06:00       64.302       96.980       84.341       47.886       40.963       32.633     2293.042     1677.995     1064.898        1.284        0.252      116.361       20.709        0.032      341.062       15.514      857.426
10/27/2013  11:07:00       93.687       92.625       61.552       67.453       53.682       49.550     4549.958     2881.728     2455.161        1.551        0.494      131.745       36.497        0.077      341.126       15.623      857.362
10/27/2013  11:08:00       86.307       58.262       10.588       52.006       49.278       38.038     2704.632     2428.330     1446.860        0.877        0.329      104.131       16.888        0.026      340.808       15.084      857.372
10/27/2013  11:09:00       97.540       61.282       25.421       48.668       35.926       30.655     2368.616     1290.667      939.710        0.926        0.230      115.194       15.481        0.018      340.783       15.041      857.389
10/27/2013  11:10:00       38.866       54.851       83.391       50.524       59.426       47.191     2552.637     3531.431     2226.965        0.989        0.416       67.225       39.263        0.341      341.115       15.604      857.375
10/27/2013  11:11:00       79.956       90.152       77.511       56.901       43.481       45.112     3237.668     1890.568     2035.095        1.384        0.358      120.500       33.406        0.077      340.909       15.253      857.352
10/27/2013  11:12:00      114.192       71.865       20.604       44.397       31.121       34.253     1971.113      968.528     1173.286        1.137        0.206      134.923       13.931        0.011      340.788       15.050      857.300
10/27/2013  11:13:00       99.137       46.458       13.859       68.703       39.738       35.648     4720.124     1579.101     1270.805        0.987        0.379      109.483       29.103        0.071      341.078       15.540      857.254
10/27/2013  11:14:00       71.941       45.316       12.496       49.698       35.428       32.577     2469.865     1255.126     1061.238        0.608        0.239       85.024       30.518        0.129      341.097       15.575      857.237
10/27/2013  11:15:00       53.225       48.419        1.025       54.782       34.711       26.994     3001.052     1204.825      728.661        0.506        0.247       71.953       23.363        0.105      341.186       15.722      857.222
10/27/2013  11:16:00       32.664       22.100       19.342       31.545       24.770       25.544      995.092      613.568      652.497        0.209        0.113       39.438       18.905        0.230      341.357       16.013      857.214
10/27/2013  11:17:00       31.837       37.368      -13.037       34.305       20.230       20.730     1176.817      409.235      429.726        0.230        0.101       49.091       10.646        0.047      341.383       16.058      857.198
10/27/2013  11:18:00       54.175        6.477        3.575       37.054       34.273       31.349     1372.988     1174.641      982.729        0.326        0.177       54.561       26.468        0.235      341.498       16.252      857.201
10/27/2013  11:19:00       42.201       26.379       44.821       42.208       49.047       47.818     1781.499     2405.650     2286.537        0.548        0.324       49.768       40.164        0.651      341.563       16.362      857.180
10/27/2013  11:20:00       79.581       84.693       79.373       43.983       36.687       35.291     1934.514     1345.939     1245.478        1.217        0.226      116.215       13.968        0.014      341.615       16.450      857.127
10/27/2013  11:21:00       89.096       76.516       37.701       47.511       31.688       43.572     2257.304     1004.113     1898.480        1.019        0.258      117.443       30.450        0.067      341.515       16.280      857.060
10/27/2013  11:22:00       27.680       11.916       47.560       65.093       61.913       38.219     4237.143     3833.242     1460.729        0.635        0.477       30.136       33.040        1.202      342.085       17.248      857.046
10/27/2013  11:23:00       90.907       68.596       27.650       60.747       44.960       36.046     3690.203     2021.423     1299.282        1.037        0.351      113.884       23.517        0.043      341.642       16.496      857.064
10/27/2013  11:24:00      -20.516       -3.989       26.472       24.412       36.781       30.247      595.937     1352.873      914.893        0.200        0.143       20.900       27.224        1.697      341.962       17.040      857.067
10/27/2013  11:25:00       43.847       66.826       58.053       82.425       44.560       37.254     6793.958     1985.627     1387.894        0.996        0.508       79.927       30.006        0.141      342.099       17.271      857.058
10/27/2013  11:26:00       99.974       33.058       36.275       60.047       68.249       46.876     3605.629     4657.859     2197.396        1.143        0.523      105.297       43.195        0.168      341.763       16.701      857.034
10/27/2013  11:27:00       22.119       87.766       89.928       37.268       46.604       37.809     1388.906     2171.963     1429.539        1.063        0.250       90.510       33.295        0.135      341.975       17.061      856.994
10/27/2013  11:28:00       16.470       12.289       68.485       35.167       51.495       30.341     1236.742     2651.703      920.601        0.496        0.240       20.550       27.490        1.789      342.375       17.739      856.982
10/27/2013  11:29:00       34.074      -20.061       22.869       37.899       75.113       34.596     1436.315     5642.001     1196.869        0.518        0.414       39.540       41.783        1.117      342.031       17.157      856.960
10/27/2013  11:30:00       43.414      -27.947        6.988       26.704       36.243       27.128      713.081     1313.524      735.905        0.274        0.138       51.631       25.431        0.243      342.127       17.320      856.934
10/27/2013  11:31:00       28.837        0.206        8.608       32.245       29.985       33.688     1039.754      899.089     1134.881        0.199        0.154       28.838       26.893        0.870      342.371       17.732      856.867
10/27/2013  11:32:00       55.097       42.366       15.211       34.718       28.079       25.133     1205.349      788.457      631.679        0.384        0.131       69.503       13.433        0.037      342.390       17.767      856.786
10/27/2013  11:33:00       84.631       51.193        0.151       61.841       46.039       33.744     3824.276     2119.630     1138.683        0.843        0.354       98.910       25.351        0.066      342.432       17.837      856.693
10/27/2013  11:34:00       60.264       59.098       12.067       55.183       49.547       36.258     3045.189     2454.934     1314.622        0.704        0.341       84.406       33.599        0.158      342.264       17.551      856.637
10/27/2013  11:35:00       96.867       73.981       10.341       34.111       25.908       33.225     1163.578      671.247     1103.932        0.895        0.147      121.887       20.714        0.029      342.000       17.104      856.609
10/27/2013  11:36:00       43.508       55.965      -10.701       18.720       24.462       25.337      350.457      598.383      641.977        0.336        0.080       70.887       21.043        0.088      342.185       17.419      856.564
10/27/2013  11:37:00       25.440       69.737       20.867       26.231       45.642       31.357      688.042     2083.205      983.258        0.485        0.188       74.232       24.480        0.109      342.267       17.558      856.525
10/27/2013  11:38:00       56.926       33.021       10.107       25.646       25.142       22.587      657.718      632.126      510.170        0.312        0.090       65.810        4.883        0.006      342.207       17.456      856.468
10/27/2013  11:39:00       -5.076       -2.226      -16.752       40.210       26.948       14.508     1616.824      726.211      210.474        0.143        0.128        5.543        7.269        1.720      342.321       17.650      856.456
10/27/2013  11:40:00      -50.696      -36.312        0.488       37.373       35.436       23.749     1396.717     1255.676      563.992        0.355        0.161       62.359       16.358        0.069      342.192       17.430      856.448
10/27/2013  11:41:00        3.929      -30.793       34.618       47.441       71.376       47.954     2250.619     5094.521     2299.590        0.590        0.482       31.042       42.885        1.909      342.791       18.447      856.416
10/27/2013  11:42:00       45.445       75.897       66.793       49.173       38.225       46.625     2418.012     1461.178     2173.851        0.917        0.303       88.463       41.047        0.215      342.417       17.811      856.407
10/27/2013  11:43:00       21.427       43.171       49.660       52.863       31.681       35.849     2794.497     1003.677     1285.158        0.494        0.254       48.196       40.000        0.689      342.791       18.449      856.377
10/27/2013  11:44:00       58.507       44.533       34.931       75.368       39.420       53.886     5680.379     1553.969     2903.675        0.838        0.507       73.527       45.528        0.383      342.756       18.387      856.374
10/27/2013  11:45:00       49.168       72.806       91.875       53.716       47.497       32.810     2885.393     2255.965     1076.476        1.119        0.311       87.853       30.207        0.118      342.732       18.348      856.359
10/27/2013  11:46:00       27.012        9.097        0.728       33.325       53.735       36.767     1110.544     2887.455     1351.825        0.308        0.267       28.502       30.335        1.133      342.388       17.762      856.377
10/27/2013  11:47:00        9.219      -14.131       19.065       24.413       47.033       24.667      595.992     2212.148      608.463        0.203        0.171       16.873        7.139        0.179      342.935       18.693      856.401
10/27/2013  11:48:00       25.430      -19.534       39.722       37.930       58.258       33.169     1438.658     3393.979     1100.192        0.427        0.297       32.066       34.123        1.132      343.007       18.815      856.378
10/27/2013  11:49:00       20.451      -36.853       12.929       44.620       49.204       47.655     1990.966     2420.989     2271.041        0.431        0.334       42.147       29.666        0.495      343.038       18.869      856.347
10/27/2013  11:50:00        0.985       40.139       74.016       32.059       60.961       35.794     1027.802     3716.210     1281.219        0.656        0.301       40.152       41.369        1.062      343.180       19.110      856.330
10/27/2013  11:51:00       23.750       20.777       40.609       44.715       41.233       38.644     1999.449     1700.190     1493.370        0.392        0.260       31.555       26.998        0.732      343.163       19.082      856.308
10/27/2013  11:52:00       84.924       70.586       45.907       30.926       33.857       45.086      956.445     1146.287     2032.767        0.922        0.207      110.429       21.073        0.036      342.644       18.198      856.267
10/27/2013  11:53:00       99.222       39.916       53.665       58.084       86.225       56.202     3373.782     7434.820     3158.678        1.414        0.698      106.950       61.265        0.328      343.051       18.890      856.224
10/27/2013  11:54:00       48.220       57.861       52.781       39.756       33.887       30.205     1580.560     1148.310      912.352        0.605        0.182       75.320       17.831        0.056      342.975       18.761      856.156
10/27/2013  11:55:00       39.742      117.940      128.227       85.917       71.911       64.693     7381.792     5171.225     4185.232        2.433        0.837      124.456       54.367        0.191      343.039       18.868      856.088
10/27/2013  11:56:00      121.936       75.237       59.987       56.476       72.158       60.910     3189.488     5206.827     3710.018        1.811        0.605      143.279       45.320        0.100      342.846       18.539      856.037
10/27/2013  11:57:00      108.055      142.076      128.919       89.600       95.337       84.495     8028.175     9089.195     7139.441        3.637        1.213      178.498       74.845        0.176      343.140       19.041      855.985
10/27/2013  11:58:00      134.661      187.571      151.411      132.686       76.529       69.965    17605.583     5856.631     4895.139        5.229        1.418      230.904       78.000        0.114      342.931       18.682      855.951
10/27/2013  11:59:00       98.085      227.414      190.047       81.122       59.809       58.370     6580.768     3577.078     3407.074        5.551        0.678      247.665       53.953        0.047      342.797       18.453      855.935
10/27/2013  12:00:00      154.957      109.754       63.431       70.493       79.503       62.536     4969.216     6320.796     3910.702        2.764        0.760      189.889       51.282        0.073      342.802       18.463      855.964
10/27/2013  12:01:00       95.787       89.765       78.559       58.143       57.594       59.814     3380.663     3317.048     3577.678        1.684        0.514      131.274       49.062        0.140      342.914       18.658      855.971
10/27/2013  12:02:00       58.786       71.112       73.687       37.861       40.741       32.853     1433.437     1659.814     1079.326        0.906        0.209       92.265       26.197        0.081      343.098       18.971      855.949
10/27/2013  12:03:00       50.294       -1.870       40.579       51.951       75.239       41.391     2698.878     5660.833     1713.239        0.712        0.504       50.328       50.271        0.998      343.217       19.175      855.912
10/27/2013  12:04:00       41.839       17.671       58.860       57.222       68.861       45.132     3274.376     4741.887     2036.855        0.779        0.503       45.417       50.979        1.260      343.382       19.456      855.850
10/27/2013  12:05:00       45.097        8.248       38.824       49.882       47.656       36.243     2488.222     2271.056     1313.556        0.484        0.304       45.845       33.686        0.540      343.379       19.448      855.820
10/27/2013  12:06:00      -68.553      -65.763        2.179      101.207       48.442       31.895    10242.794     2346.675     1017.268        1.132        0.680       94.996       32.089        0.114      343.248       19.226      855.794
10/27/2013  12:07:00     -117.358      -85.794        9.216       76.899       55.937       43.574     5913.519     3128.987     1898.708        1.608        0.547      145.374       41.359        0.081      342.991       18.788      855.739
10/27/2013  12:08:00      -64.357      -75.029       -1.210       44.477       21.042       17.095     1978.223      442.785      292.246        0.624        0.136       98.849       18.307        0.034      342.752       18.380      855.710
10/27/2013  12:09:00     -130.604      -77.218      -14.811       54.498       34.109       31.570     2970.001     1163.396      996.682        1.418        0.257      151.723       23.961        0.025      342.801       18.465      855.686
10/27/2013  12:10:00      -48.508      -48.032        0.096       35.666       28.818       23.237     1272.076      830.485      539.972        0.365        0.132       68.265       14.727        0.047      342.864       18.571      855.678
10/27/2013  12:11:00      -16.964       39.622       -9.562       47.713       28.999       27.083     2276.553      840.921      733.505        0.290        0.193       43.101       19.214        0.199      343.270       19.263      855.595
10/27/2013  12:12:00     -113.647        5.492      -20.910       37.900       28.313       21.207     1436.395      801.603      449.726        0.803        0.134      113.779       19.784        0.030      343.022       18.841      855.573
10/27/2013  12:13:00      -14.551      -54.056       -8.762       50.227       40.305       26.288     2522.723     1624.530      691.036        0.402        0.242       55.980       22.953        0.168      343.208       19.157      855.545
10/27/2013  12:14:00     -118.019      -39.079        8.183      155.218       96.607       51.094    24092.531     9332.890     2610.595        2.577        1.802      124.321       49.918        0.161      343.438       19.549      855.492
10/27/2013  12:15:00     -217.028     -122.446       -2.924      131.212      121.225       57.451    17216.659    14695.589     3300.664        4.865        1.761      249.187       64.212        0.066      343.549       19.734      855.460
10/27/2013  12:16:00     -318.645      -56.890        1.986      152.595      104.752       65.542    23285.320    10973.080     4295.817        7.166        1.928      323.683       81.617        0.064      343.700       19.993      855.445
10/27/2013  12:17:00     -252.512       24.835       -2.733      163.327      123.472       73.669    26675.628    15245.391     5427.101        5.586        2.367      253.730       69.450        0.075      343.758       20.093      855.371
10/27/2013  12:18:00     -201.293      -29.732       12.083      162.950      134.282       77.132    26552.823    18031.722     5949.358        4.603        2.527      203.477       82.348        0.164      343.868       20.281      855.303
10/27/2013  12:19:00     -251.076     -239.894       -4.843      148.395      263.923       71.741    22021.183    69655.095     5146.796       10.870        4.841      347.258       78.919        0.052      343.684       19.967      855.242
10/27/2013  12:20:00     -434.160     -320.274      -18.582      219.883      136.293      102.607    48348.659    18575.858    10528.261       18.442        3.873      539.510       89.896        0.028      343.617       19.852      855.179
10/27/2013  12:21:00     -459.767     -186.052      -37.483      200.074      206.254      113.692    40029.600    42540.816    12925.978       17.144        4.775      495.985      106.220        0.046      343.603       19.828      855.114
10/27/2013  12:22:00     -441.846     -301.627      -13.106      206.116      232.079       98.396    42483.909    53860.540     9681.750       19.618        5.301      534.983       93.750        0.031      343.601       19.824      855.071
10/27/2013  12:23:00     -501.543     -121.657        7.558      226.506      208.103      110.401    51305.017    43306.743    12188.320       18.658        5.340      516.087      110.388        0.046      343.587       19.799      855.024
10/27/2013  12:24:00     -413.998     -217.988      -16.418      212.457      143.291       99.174    45138.126    20532.231     9835.548       14.733        3.775      467.881      111.633        0.057      343.561       19.757      854.999
10/27/2013  12:25:00     -274.541     -206.886      -13.506      199.731      192.833       79.683    39892.502    37184.714     6349.345       10.088        4.171      343.766       92.612        0.073      343.682       19.963      854.981
10/27/2013  12:26:00     -559.235     -391.350      -18.070      271.322      212.640      109.586    73615.521    45215.655    12009.082       29.851        6.542      682.568      107.750        0.025      343.502       19.656      854.958
10/27/2013  12:27:00     -473.454     -230.127      -12.503      233.510      161.028       89.927    54526.862    25930.050     8086.854       18.289        4.427      526.419      102.667        0.038      343.657       19.919      854.940
10/27/2013  12:28:00     -316.380     -229.358      -11.157      205.171      170.623       96.581    42095.207    29112.214     9327.897       11.667        4.027      390.771      117.209        0.090      343.773       20.118      854.926
10/27/2013  12:29:00     -325.487     -141.682      -14.674      181.841      176.693       86.072    33066.014    31220.541     7408.374        9.895        3.585      354.987       94.337        0.071      343.882       20.303      854.921
10/27/2013  12:30:00     -553.896      -56.113      -24.986      286.406      244.165      112.315    82028.399    59616.554    12614.576       23.239        7.713      556.731      141.266        0.064      343.737       20.056      854.919
10/27/2013  12:31:00     -542.541     -249.799      -11.844      207.354      192.406      102.668    42995.748    37019.948    10540.765       22.371        4.528      597.286      110.413        0.034      343.567       19.767      854.892
10/27/2013  12:32:00     -345.153     -129.320      -14.606      199.285      183.101       81.999    39714.388    33525.801     6723.918       10.800        3.998      368.584       82.004        0.049      343.587       19.799      854.838
10/27/2013  12:33:00     -467.953     -165.050       -4.708      261.734      224.159      112.088    68504.787    50247.390    12563.812       18.876        6.566      496.207       99.249        0.040      343.759       20.092      854.766
10/27/2013  12:34:00     -395.741     -173.809       15.565      251.649      208.008       93.721    63327.126    43267.365     8783.567       15.120        5.769      432.227       93.211        0.047      343.828       20.210      854.738
10/27/2013  12:35:00     -526.965     -430.920      -25.912      263.624      238.351      138.913    69497.590    56811.324    19296.693       30.481        7.280      680.723      132.997        0.038      343.635       19.883      854.628
10/27/2013  12:36:00     -412.833     -331.649      -12.601      215.264      203.881      106.268    46338.646    41567.376    11292.842       18.987        4.960      529.548      111.006        0.044      343.757       20.089      854.603
10/27/2013  12:37:00     -477.701     -287.489      -24.878      220.271      199.212      103.752    48519.517    39685.602    10764.404       20.520        4.948      557.538       86.332        0.024      343.835       20.224      854.544
10/27/2013  12:38:00     -509.356     -328.140      -29.741      249.993      274.853      127.609    62496.417    75544.396    16283.963       26.114        7.716      605.904      137.493        0.051      343.897       20.330      854.546
10/27/2013  12:39:00     -439.498     -325.907      -15.165      215.885      205.520      111.451    46606.418    42238.473    12421.399       20.042        5.063      547.150      112.217        0.042      343.808       20.176      854.600
10/27/2013  12:40:00     -312.026     -287.360       -2.917      238.817      215.246      101.632    57033.772    46330.816    10329.030       14.680        5.685      424.189      124.729        0.086      343.815       20.190      854.543
10/27/2013  12:41:00     -514.799     -405.159       -7.840      255.376      222.005      120.070    65216.805    49286.363    14416.782       27.906        6.446      655.112      135.306        0.043      343.760       20.096      854.466
10/27/2013  12:42:00     -414.655     -255.707       -1.679      302.641      218.774      109.709    91591.557    47861.920    12036.035       19.438        7.574      487.160      137.882        0.080      343.683       19.965      854.384
10/27/2013  12:43:00     -569.839     -168.111      -36.956      289.567      174.153      111.907    83848.930    30329.381    12523.199       24.050        6.335      594.119      121.151        0.042      343.848       20.246      854.402
10/27/2013  12:44:00     -522.759     -229.228        1.383      315.464      242.506      126.444    99517.337    58808.989    15988.090       25.004        8.716      570.809      153.345        0.072      343.728       20.041      854.388
10/27/2013  12:45:00     -567.472     -209.796      -37.104      214.081      196.271       96.209    45830.546    38522.118     9256.171       23.050        4.680      605.012       77.780        0.017      343.669       19.940      854.376
10/27/2013  12:46:00     -517.252     -402.636        5.113      311.104      269.935      133.992    96785.810    72864.716    17953.906       30.862        9.380      655.488      152.474        0.054      343.638       19.888      854.308
10/27/2013  12:47:00     -468.593     -360.453       -9.486      258.368      238.549      124.879    66754.049    56905.816    15594.758       24.440        6.963      591.190      137.019        0.054      343.683       19.964      854.252
10/27/2013  12:48:00     -680.017     -249.607      -27.766      344.076      286.009      148.230   118387.956    81801.377    21972.011       37.379       11.108      724.381      161.209        0.050      343.634       19.880      854.278
10/27/2013  12:49:00     -583.713     -362.270      -24.377      318.200      290.458      122.286   101251.270    84365.973    14953.894       33.653       10.029      686.994      137.073        0.040      343.607       19.835      854.192
10/27/2013  12:50:00     -418.364     -284.594      -11.842      262.168      241.342       98.619    68732.141    58245.886     9725.761       19.641        6.835      505.986      103.586        0.042      343.669       19.941      854.163
10/27/2013  12:51:00     -453.841     -210.289      -15.843      262.573      223.033      112.641    68944.822    49743.914    12687.959       19.089        6.569      500.193      136.624        0.075      343.713       20.015      854.141
10/27/2013  12:52:00     -603.514      -53.248       -1.372      258.789      277.247      131.757    66971.596    76866.136    17359.906       26.411        8.060      605.859      126.179        0.043      343.663       19.930      854.049
10/27/2013  12:53:00     -424.690     -222.663       -0.021      245.252      226.427      115.499    60148.738    51269.286    13340.112       17.733        6.238      479.521      108.642        0.051      343.806       20.174      854.057
10/27/2013  12:54:00     -298.097     -253.894       10.318      203.301      168.119       82.103    41331.099    28264.081     6740.900       11.487        3.817      391.567       76.029        0.038      343.818       20.195      853.997
10/27/2013  12:55:00     -696.933     -202.192      -24.476      361.740      183.553      108.759   130856.153    33691.595    11828.595       35.176        8.819      725.670      129.670        0.032      343.714       20.016      853.854
10/27/2013  12:56:00     -511.862     -187.505        5.069      323.328      286.403      133.297   104541.252    82026.659    17768.196       25.073       10.217      545.124      149.063        0.075      343.903       20.340      853.813
10/27/2013  12:57:00     -669.092     -404.621      -20.683      340.451      281.158      131.101   115906.793    79049.879    17187.503       41.195       10.607      781.922      157.171        0.040      343.549       19.737      853.930
10/27/2013  12:58:00     -450.627     -176.660      -11.824      260.221      189.440       96.855    67714.823    35887.525     9380.907       17.368        5.649      484.018       87.098        0.032      343.675       19.951      853.861
10/27/2013  12:59:00     -453.693     -135.698       -7.713      182.640      143.405       85.317    33357.488    20565.008     7278.975       14.275        3.060      473.551       83.082        0.031      343.790       20.146      853.788
10/27/2013  13:00:00     -349.794     -240.979        5.570      291.045      219.228      132.873    84707.040    48061.070    17655.261       16.542        7.521      424.767      156.622        0.136      343.785       20.138      853.756
10/27/2013  13:01:00     -638.203     -305.911        1.612      417.050      325.701      153.088   173930.957   106081.090    23435.951       40.212       15.172      707.732      175.564        0.062      343.673       19.946      853.658
10/27/2013  13:02:00     -713.702     -282.347      -24.370      303.646      272.778      123.686    92201.055    74408.048    15298.332       38.577        9.095      767.522      136.504        0.032      343.648       19.904      853.627
10/27/2013  13:03:00     -645.469     -323.603       -5.830      338.000      273.967      130.837   114244.013    75057.783    17118.272       36.387       10.321      722.045      165.657        0.053      343.666       19.935      853.553
10/27/2013  13:04:00     -760.776     -459.784      -13.292      334.414      263.271      160.440   111832.683    69311.586    25740.952       49.859       10.344      888.921      173.025        0.038      343.579       19.787      853.516
10/27/2013  13:05:00     -464.817     -375.207       -8.907      351.983      271.559      142.543   123892.156    73744.452    20318.485       28.740       10.898      597.357      189.452        0.101      343.544       19.727      853.486
10/27/2013  13:06:00     -604.030     -396.717      -14.546      365.991      251.744      152.959   133949.251    63375.092    23396.385       37.155       11.036      722.660      169.222        0.055      343.598       19.819      853.407
10/27/2013  13:07:00     -491.283     -334.005       14.557      347.379      256.969      142.748   120671.849    66032.905    20376.892       28.007       10.354      594.069      156.717        0.070      343.631       19.876      853.493
10/27/2013  13:08:00     -467.913     -305.133       -4.550      248.314      244.098      113.316    61659.959    59583.739    12840.523       22.305        6.704      558.613      129.522        0.054      343.485       19.627      853.527
10/27/2013  13:09:00     -414.636     -213.555       12.118      213.197      177.988       93.969    45453.022    31679.781     8830.181       15.180        4.298      466.400      104.303        0.050      343.493       19.641      853.452
10/27/2013  13:10:00     -448.848     -274.062        5.963      286.680      217.105      121.024    82185.670    47134.380    14646.860       21.026        7.198      525.904      133.939        0.065      343.551       19.739      853.390
10/27/2013  13:11:00     -476.364     -384.716      -24.311      273.530      200.973      108.808    74818.653    40390.069    11839.289       25.126        6.352      612.314      136.894        0.050      343.614       19.846      853.351
10/27/2013  13:12:00     -432.959     -296.564      -14.216      267.189      189.752      137.070    71390.050    36005.764    18788.309       20.087        6.309      524.789      153.808        0.086      343.653       19.912      853.344
10/27/2013  13:13:00     -340.965     -271.494       -3.379      220.073      224.668      114.497    48431.917    50475.642    13109.592       15.098        5.601      435.851       93.857        0.046      343.726       20.039      853.363
10/27/2013  13:14:00     -527.219     -258.681        3.833      306.056      226.970      130.699    93670.403    51515.408    17082.234       25.355        8.113      587.261      154.308        0.069      343.555       19.747      853.279
10/27/2013  13:15:00     -453.466     -291.752      -28.115      206.480      196.533      100.667    42633.806    38625.089    10133.858       19.145        4.570      539.213      110.942        0.042      343.709       20.009      853.234
10/27/2013  13:16:00     -589.148     -226.124      -21.699      351.692      247.131      125.533   123687.450    61073.811    15758.533       29.958       10.026      631.053      166.850        0.070      343.788       20.144      853.203
10/27/2013  13:17:00     -669.024     -513.887      -20.152      328.503      270.307      158.176   107914.263    73065.744    25019.571       45.900       10.300      843.607      169.760        0.040      343.564       19.762      853.162
10/27/2013  13:18:00     -260.264     -164.202        6.116      227.890      154.337       93.184    51933.720    23819.762     8683.347        8.957        4.222      307.733      101.909        0.110      343.861       20.266      853.195
10/27/2013  13:19:00     -430.825     -148.269        0.191      243.337      176.130      103.628    59213.020    31021.905    10738.832       15.427        5.049      455.624      110.919        0.059      343.753       20.083      853.131
10/27/2013  13:20:00     -732.175     -304.642      -16.338      299.103      322.430      136.219    89462.904   103960.955    18555.637       42.053       10.599      793.024      166.395        0.044      343.427       19.526      853.048
10/27/2013  13:21:00     -594.173     -275.620      -18.517      280.754      206.895      115.358    78822.791    42805.639    13307.513       28.212        6.747      654.987      132.182        0.041      343.416       19.509      852.994
10/27/2013  13:22:00     -621.818     -137.862      -27.722      318.823      220.835      137.133   101648.227    48768.298    18805.456       28.780        8.461      636.917      142.272        0.050      343.486       19.628      852.962
10/27/2013  13:23:00     -729.365     -481.169      -24.913      368.849      275.041      136.288   136049.682    75647.723    18574.284       49.716       11.514      873.783      168.032        0.037      343.456       19.577      852.898
10/27/2013  13:24:00     -387.197     -254.409       -7.331      257.460      176.592      100.149    66285.908    31184.796    10029.861       16.108        5.375      463.298      108.256        0.055      343.586       19.799      852.930
10/27/2013  13:25:00     -469.055     -320.567        4.443      247.675      257.269      118.418    61342.887    66187.447    14022.935       23.215        7.078      568.133      129.538        0.052      343.583       19.795      852.922
10/27/2013  13:26:00     -516.363     -191.868      -16.054      260.131      221.582      112.402    67668.042    49098.709    12634.237       21.653        6.470      550.858      112.981        0.042      343.575       19.781      852.826
10/27/2013  13:27:00     -462.171     -208.713       -3.956      270.528      217.045      113.870    73185.587    47108.721    12966.348       19.520        6.663      507.112      139.008        0.075      343.678       19.956      852.808
10/27/2013  13:28:00     -445.457     -418.904      -25.018      245.501      210.325      134.146    60270.794    44236.797    17995.258       24.850        6.125      611.484      139.114        0.052      343.676       19.953      852.805
10/27/2013  13:29:00     -621.628     -252.521      -25.569      231.254      218.680       98.061    53478.354    47820.785     9615.920       28.086        5.546      670.961       97.279        0.021      343.667       19.936      852.779
10/27/2013  13:30:00     -279.088     -183.569       16.166      254.794      227.180       99.176    64920.205    51610.625     9835.888       11.909        6.318      334.047      108.092        0.105      343.839       20.231      852.760
10/27/2013  13:31:00     -332.881     -323.903      -15.916      286.235      230.865      107.753    81930.302    53298.710    11610.758       18.138        7.342      464.459      103.795        0.050      343.688       19.971      852.737
10/27/2013  13:32:00     -465.043     -280.711        0.406      233.669      173.060       98.852    54601.203    29949.772     9771.736       19.468        4.716      543.197      111.751        0.042      343.674       19.950      852.742
10/27/2013  13:33:00     -472.280     -257.892      -10.767      305.506      247.553      104.779    93334.073    61282.664    10978.691       22.761        8.280      538.105      126.983        0.056      343.669       19.939      852.698
10/27/2013  13:34:00     -694.676     -426.654      -25.571      351.485      296.067      127.494   123542.052    87655.742    16254.821       44.632       11.373      815.235      138.097        0.029      343.641       19.891      852.613
10/27/2013  13:35:00     -468.624     -277.146       -7.797      288.092      261.247      106.939    82997.213    68249.856    11435.973       22.955        8.134      544.443      120.251        0.049      343.811       20.183      852.616
10/27/2013  13:36:00     -457.395     -258.378      -17.560      278.238      272.200      103.723    77416.221    74092.671    10758.372       21.925        8.113      525.328      121.115        0.053      343.839       20.230      852.615
10/27/2013  13:37:00     -426.515     -212.683       -3.757      252.180      231.925      116.799    63594.933    53789.067    13641.903       17.907        6.551      476.601      123.205        0.067      343.777       20.124      852.550
10/27/2013  13:38:00     -440.740     -373.454       -4.580      248.771      235.239      111.074    61887.164    55337.211    12337.457       23.163        6.478      577.685      123.357        0.046      343.689       19.974      852.539
10/27/2013  13:39:00     -210.796     -235.013       19.213      163.377      153.111       88.355    26692.022    23443.094     7806.555        7.898        2.897      315.700       71.421        0.051      343.783       20.134      852.478
10/27/2013  13:40:00     -275.509     -168.219       11.168      243.466      192.954       84.657    59275.677    37231.099     7166.782       10.398        5.184      322.804       97.378        0.091      343.793       20.151      852.406
10/27/2013  13:41:00     -492.762     -255.549       14.993      292.227      281.400      134.527    85396.422    79186.028    18097.514       24.548        9.134      555.085      130.790        0.056      343.620       19.857      852.360
10/27/2013  13:42:00     -375.142     -295.593       -3.817      258.310      203.790      119.505    66724.022    41530.362    14281.368       17.531        6.127      477.605      131.953        0.076      343.848       20.246      852.345
10/27/2013  13:43:00     -356.862     -241.896       -1.551      191.528      170.045       93.255    36683.145    28915.391     8696.470       13.007        3.715      431.119       83.185        0.037      343.870       20.283      852.339
10/27/2013  13:44:00     -406.295     -131.373      -25.131      210.493      150.474       77.251    44307.182    22642.386     5967.699       12.793        3.646      427.007       94.936        0.049      343.896       20.328      852.300
10/27/2013  13:45:00     -514.139     -206.234      -13.802      352.721      277.234      122.964   124412.071    76858.946    15120.047       26.169       10.820      553.960      143.074        0.067      343.888       20.312      852.204
10/27/2013  13:46:00     -767.398     -569.231      -14.694      405.155      331.673      176.305   164150.384   110007.178    31083.474       60.914       15.262      955.471      213.363        0.050      343.597       19.817      852.239
10/27/2013  13:47:00     -796.218     -559.422      -27.267      396.987      326.568      161.275   157598.312   106646.618    26009.555       61.891       14.513      973.096      196.899        0.041      343.461       19.585      852.149
10/27/2013  13:48:00     -709.784     -439.878       -2.730      455.296      346.013      160.887   207294.637   119724.776    25884.565       52.504       17.645      835.037      201.712        0.058      343.517       19.681      852.165
10/27/2013  13:49:00     -671.509     -307.704      -20.133      340.443      290.400      139.466   115901.119    84332.425    19450.637       38.281       10.984      738.651      131.570        0.032      343.506       19.660      852.097
10/27/2013  13:50:00     -650.468     -318.666      -29.953      414.654      297.536      147.864   171937.878    88527.752    21863.873       40.389       14.116      724.332      197.903        0.075      343.563       19.759      852.106
10/27/2013  13:51:00     -599.981     -301.833      -38.895      334.471      251.927      132.925   111870.567    63467.182    17669.085       32.277        9.650      671.625      162.369        0.058      343.575       19.780      852.127
10/27/2013  13:52:00     -539.255     -225.169      -12.362      292.456      252.738      110.654    85530.338    63876.574    12244.218       25.162        8.083      584.378      136.457        0.055      343.623       19.861      852.060
10/27/2013  13:53:00     -721.038     -419.308      -12.972      411.014      295.908      160.246   168932.865    87561.545    25678.720       48.898       14.109      834.096      177.089        0.045      343.520       19.687      852.024
10/27/2013  13:54:00     -679.626     -400.169      -20.479      360.580      280.061      129.717   130018.203    78434.391    16826.507       42.382       11.264      788.686      151.776        0.037      343.442       19.552      852.055
10/27/2013  13:55:00     -555.248     -156.436      -12.187      330.103      238.389      115.789   108967.676    56829.080    13407.191       25.603        8.960      576.864      131.722        0.052      343.538       19.717      852.055
10/27/2013  13:56:00     -714.231     -312.155      -42.270      362.861      246.950      128.525   131668.032    60984.436    16518.653       40.923       10.459      779.466      151.901        0.038      343.475       19.609      852.008
10/27/2013  13:57:00     -657.134     -497.670      -18.330      386.347      297.642      156.473   149264.266    88590.981    24483.700       47.104       13.117      824.319      172.473        0.044      343.463       19.588      851.985
10/27/2013  13:58:00     -490.378     -345.502        0.313      325.436      253.554      141.951   105908.580    64289.433    20150.063       27.506        9.517      599.868      157.857        0.069      343.545       19.728      851.993
10/27/2013  13:59:00     -751.528     -529.049      -20.497      332.602      310.160      162.186   110624.200    96199.491    26304.183       53.908       11.656      919.069      171.676        0.035      343.402       19.484      851.974
10/27/2013  14:00:00     -606.477     -423.597       -9.510      298.268      250.077      137.594    88963.898    62538.663    18932.220       35.886        8.522      739.763      153.683        0.043      343.461       19.585      851.984
10/27/2013  14:01:00     -750.136     -354.276       -6.692      320.036      332.278      132.446   102423.145   110408.412    17542.018       45.928       11.519      829.587      137.868        0.028      343.480       19.616      852.006
10/27/2013  14:02:00     -694.804     -230.715       -9.418      358.755      320.228      150.814   128704.869   102545.796    22744.938       39.499       12.700      732.108      171.217        0.055      343.478       19.613      851.977
10/27/2013  14:03:00     -641.367     -330.434       12.768      416.700      371.951      189.040   173639.251   138347.402    35736.261       43.415       17.386      721.483      235.946        0.107      343.488       19.632      851.872
10/27/2013  14:04:00     -760.063     -679.867      -23.356      410.857      338.734      191.646   168803.198   114740.399    36728.306       68.031       16.014     1019.762      230.011        0.051      343.286       19.288      851.965
10/27/2013  14:05:00     -676.991     -436.821       -5.383      333.282      257.993      150.889   111076.805    66560.383    22767.628       42.475       10.020      805.686      182.137        0.051      343.268       19.259      851.863
10/27/2013  14:06:00     -658.124     -232.588      -49.332      294.032      219.039      129.820    86454.648    47977.876    16853.344       32.045        7.564      698.015      130.728        0.035      343.459       19.582      851.837
10/27/2013  14:07:00     -844.665     -539.128      -38.530      427.700      313.368      159.044   182927.627    98199.332    25294.938       65.596       15.321     1002.057      197.635        0.039      343.360       19.413      851.719
10/27/2013  14:08:00     -526.288     -345.266       22.139      303.385      297.607      156.180    92042.355    88569.654    24392.176       30.081       10.250      629.435      155.624        0.061      343.445       19.559      851.710
10/27/2013  14:09:00     -512.932     -421.545      -10.742      346.924      261.961      149.679   120356.452    68623.593    22403.907       32.611       10.569      663.927      163.953        0.061      343.520       19.686      851.655
10/27/2013  14:10:00     -636.928     -481.410        9.439      364.409      279.263      171.081   132793.661    77988.043    29268.860       43.875       12.003      798.394      201.209        0.064      343.388       19.461      851.613
10/27/2013  14:11:00     -723.374     -271.186       -9.391      360.654      372.825      174.970   130071.485   138998.606    30614.650       44.824       14.984      772.536      183.121        0.056      343.407       19.493      851.509
10/27/2013  14:12:00     -836.928     -449.596      -39.206      325.649      351.307      155.397   106046.954   123416.514    24148.147       57.883       12.681      950.045      167.882        0.031      343.388       19.462      851.549
10/27/2013  14:13:00     -583.254     -468.218      -10.491      349.018      287.021      141.109   121813.372    82381.182    19911.647       39.178       11.205      747.939      158.429        0.045      343.319       19.344      851.494
10/27/2013  14:14:00     -399.976     -211.920       18.211      264.062      230.792      123.178    69728.649    53264.859    15172.928       17.167        6.908      452.648      146.039        0.104      343.472       19.603      851.509
10/27/2013  14:15:00     -499.339     -351.933       -6.644      257.262      191.204      122.542    66183.571    36558.866    15016.449       24.548        5.888      610.898      126.888        0.043      343.436       19.541      851.414
10/27/2013  14:16:00     -309.442     -176.416       22.517      247.631      219.718      118.765    61321.145    48275.798    14105.135       12.552        6.185      356.198      134.912        0.143      343.578       19.785      851.384
10/27/2013  14:17:00     -651.391     -495.148      -20.799      388.466      285.774      147.123   150905.859    81666.523    21645.294       46.202       12.711      818.219      193.030        0.056      343.524       19.693      851.337
10/27/2013  14:18:00     -635.059     -247.113       -6.646      342.936      271.323      159.097   117605.016    73616.140    25311.819       34.043       10.827      681.443      196.173        0.083      343.430       19.531      851.323
10/27/2013  14:19:00     -549.679     -333.935        3.704      399.044      349.312      183.294   159236.289   122019.065    33596.564       36.421       15.743      643.164      229.548        0.127      343.390       19.463      851.273
10/27/2013  14:20:00     -682.164     -530.631      -17.309      363.216      322.407      141.491   131925.757   103946.068    20019.761       50.151       12.795      864.243      168.771        0.038      343.363       19.419      851.267
10/27/2013  14:21:00     -827.903     -450.053      -48.150      396.664      335.157      137.584   157342.604   112330.481    18929.452       58.940       14.430      942.322      170.107        0.033      343.353       19.401      851.221
10/27/2013  14:22:00     -808.529     -246.480      -17.989      368.044      299.290      150.705   135456.609    89574.465    22711.931       48.123       12.387      845.265      173.363        0.042      343.399       19.480      851.211
10/27/2013  14:23:00     -763.599     -429.032       -7.207      486.218      383.557      177.659   236408.072   147116.158    31562.751       59.108       20.754      875.872      218.278        0.062      343.295       19.304      851.189
10/27/2013  14:24:00     -839.749     -611.212       -2.721      378.585      305.520      174.287   143326.389    93342.762    30375.909       67.286       13.352     1038.633      185.479        0.032      343.265       19.250      851.150
10/27/2013  14:25:00     -457.385     -217.037       -1.592      374.588      297.015      126.048   140316.056    88218.200    15887.998       25.032       12.221      506.267      154.964        0.094      343.528       19.700      851.207
10/27/2013  14:26:00     -688.997     -490.118      -32.846      426.983      330.858      152.605   182314.093   109466.980    23288.389       51.549       15.753      845.537      195.237        0.053      343.298       19.306      851.075
10/27/2013  14:27:00     -706.924     -408.241      -20.633      425.739      262.667      148.711   181253.879    68993.921    22114.900       46.955       13.618      816.335      190.182        0.054      343.391       19.466      851.163
10/27/2013  14:28:00     -710.815     -501.653      -26.141      321.286      250.803      158.657   103224.781    62902.067    25172.166       47.442        9.565      870.007      167.854        0.037      343.300       19.311      851.207
10/27/2013  14:29:00     -546.703     -295.826       -7.936      281.406      273.594      120.613    79189.517    74853.819    14547.584       27.750        8.430      621.609      133.540        0.046      343.242       19.212      851.108
10/27/2013  14:30:00     -325.004     -312.574        8.709      228.488      265.540      128.511    52206.752    70511.277    16515.064       17.130        6.962      450.921      130.642        0.084      343.455       19.576      851.181
10/27/2013  14:31:00     -503.928     -153.702      -17.144      308.466      209.902      128.659    95150.995    44058.753    16553.068       21.679        7.788      526.847      139.813        0.070      343.573       19.775      851.097
10/27/2013  14:32:00     -774.995     -240.248      -24.858      461.026      364.605      156.640   212544.557   132936.674    24535.954       51.442       18.501      811.379      203.359        0.063      343.384       19.454      851.077
10/27/2013  14:33:00     -635.567     -534.585      -10.302      342.459      309.303      163.074   117278.250    95668.301    26593.032       46.465       11.977      830.498      186.190        0.050      343.294       19.300      851.054
10/27/2013  14:34:00     -601.716     -401.352       -3.991      339.895      282.447      150.694   115528.283    79776.493    22708.603       37.055       10.901      723.288      165.299        0.052      343.335       19.371      851.018
10/27/2013  14:35:00     -504.624     -353.475       25.765      326.966      284.870      138.188   106906.896    81150.665    19095.916       29.367       10.358      616.108      151.021        0.060      343.405       19.491      851.006
10/27/2013  14:36:00     -629.956     -285.189        1.170      390.330      330.736      147.177   152357.627   109386.458    21661.104       38.074       14.170      691.504      161.855        0.055      343.404       19.487      850.930
10/27/2013  14:37:00     -888.128     -436.859      -43.662      398.299      401.043      173.917   158642.459   160835.836    30247.070       66.557       17.486      989.756      171.059        0.030      343.177       19.101      850.780
10/27/2013  14:38:00     -841.596     -553.412      -18.278      417.876      304.929      172.816   174620.156    92981.729    29865.344       65.613       14.873     1007.248      193.750        0.037      343.240       19.208      850.782
10/27/2013  14:39:00     -751.679     -298.762       -6.689      336.980      332.206      167.228   113555.323   110360.828    27965.176       45.306       12.594      808.876      174.026        0.046      343.224       19.181      850.846
10/27/2013  14:40:00     -788.998     -457.964      -21.177      346.998      342.760      167.279   120407.862   117484.313    27982.226       54.924       13.294      912.277      171.181        0.035      343.146       19.049      850.886
10/27/2013  14:41:00     -801.448     -593.024      -16.741      426.727      356.017      196.594   182096.047   126748.354    38649.022       67.083       17.375      996.994      240.193        0.058      343.092       18.957      850.828
10/27/2013  14:42:00     -669.045     -433.817      -24.350      331.478      279.695      134.868   109877.789    78229.240    18189.484       42.132       10.315      797.382      148.851        0.035      343.171       19.092      850.846
10/27/2013  14:43:00     -663.931     -272.782        6.748      453.311      356.519      165.054   205490.505   127105.453    27242.774       43.749       17.992      717.784      199.475        0.077      343.334       19.370      850.843
10/27/2013  14:44:00     -788.048     -373.371      -11.910      274.590      256.210      139.448    75399.491    65643.668    19445.833       46.050        8.024      872.024      126.596        0.021      343.305       19.319      850.807
10/27/2013  14:45:00     -516.903     -423.624      -10.156      404.782      338.178      189.030   163848.667   114364.498    35732.465       38.030       15.697      668.316      232.466        0.121      343.242       19.212      850.826
10/27/2013  14:46:00     -652.227     -259.816       -8.276      441.812      330.965      150.779   195198.231   109538.027    22734.408       41.017       16.374      702.072      185.852        0.070      343.243       19.214      850.802
10/27/2013  14:47:00     -772.315     -551.183      -16.859      441.078      364.001      187.276   194549.376   132496.847    35072.416       63.128       18.106      948.827      220.401        0.054      343.078       18.933      850.808
10/27/2013  14:48:00     -694.518     -378.852      -23.037      398.184      196.191      131.485   158550.802    38491.079    17288.178       42.034       10.717      791.128      165.743        0.044      343.232       19.194      850.774
10/27/2013  14:49:00     -682.031     -404.860      -16.332      316.868      226.260      135.508   100405.274    51193.497    18362.457       39.962        8.498      793.144      144.865        0.033      343.351       19.397      850.877
10/27/2013  14:50:00     -731.031     -530.859      -29.137      429.521      352.720      190.209   184488.014   124411.579    36179.512       58.102       17.254      903.448      227.124        0.063      343.219       19.173      850.901
10/27/2013  14:51:00     -903.294     -245.854      -28.492      436.650      369.453      164.592   190663.273   136495.509    27090.388       61.566       17.712      936.154      181.803        0.038      343.136       19.031      850.753
10/27/2013  14:52:00     -434.732     -486.212      -17.060      356.718      299.150      136.897   127247.541    89490.870    18740.810       33.054       11.774      652.222      168.625        0.067      343.221       19.175      850.811
10/27/2013  14:53:00     -501.224     -434.685        8.763      314.801      426.755      149.324    99099.772   182119.572    22297.561       37.183       15.176      663.458      173.934        0.069      343.149       19.055      850.677
10/27/2013  14:54:00     -605.242     -396.052      -19.638      319.696      314.010      135.696   102205.552    98602.124    18413.288       37.135       10.961      723.309      165.820        0.053      343.253       19.230      850.702
10/27/2013  14:55:00     -560.749     -353.413        0.815      334.422      299.991      140.491   111837.859    89994.507    19737.655       33.042       11.079      662.828      163.257        0.061      343.264       19.249      850.711
10/27/2013  14:56:00     -638.590     -426.531      -45.250      310.036      328.549      136.483    96122.014   107944.283    18627.644       40.720       11.135      767.936      152.856        0.040      343.226       19.184      850.608
10/27/2013  14:57:00     -731.926     -466.404      -14.204      389.718      337.469      161.602   151880.343   113885.155    26115.100       52.262       14.594      867.899      174.756        0.041      343.242       19.213      850.564
10/27/2013  14:58:00     -712.535     -420.294       -4.658      444.042      290.482      198.267   197173.293    84379.978    39309.754       50.257       16.043      827.256      219.921        0.071      343.178       19.103      850.560
10/27/2013  14:59:00     -544.149     -485.839        7.886      395.851      333.791      164.652   156698.251   111416.422    27110.390       41.366       14.761      729.478      192.105        0.069      343.210       19.158      850.593
10/27/2013  15:00:00     -691.065     -474.302        1.613      347.559      372.339      160.415   120797.066   138636.206    25732.958       49.380       14.258      838.172      174.961        0.044      343.144       19.046      850.623
10/27/2013  15:01:00     -586.789     -350.784        8.780      406.481      318.828      150.311   165227.012   101651.118    22593.369       37.841       14.474      683.645      198.862        0.085      343.146       19.048      850.579
10/27/2013  15:02:00     -746.880     -378.024        5.550      427.359      272.991      169.987   182635.594    74524.175    28895.599       49.336       14.303      837.097      206.457        0.061      343.018       18.831      850.541
10/27/2013  15:03:00     -470.105     -263.687        7.163      342.742      272.581      153.878   117471.764    74300.471    23678.460       25.298       10.773      539.007      175.996        0.107      343.146       19.048      850.471
10/27/2013  15:04:00     -588.877     -451.492      -25.189      387.998      254.798      133.125   150542.067    64922.240    17722.342       39.218       11.659      742.039      157.733        0.045      343.067       18.914      850.449
10/27/2013  15:05:00     -725.081     -474.114      -27.234      380.256      244.914      131.724   144594.543    59982.822    17351.116       48.656       11.096      866.329      156.379        0.033      343.078       18.933      850.396
10/27/2013  15:06:00     -421.570     -367.551      -23.091      304.171      230.633      128.915    92519.925    53191.752    16619.130       23.781        8.117      559.299      121.846        0.047      343.059       18.899      850.390
10/27/2013  15:07:00     -541.210     -492.137      -19.037      305.157      298.347      128.791    93120.895    89010.814    16587.100       36.706        9.936      731.510      147.621        0.041      343.220       19.175      850.325
10/27/2013  15:08:00     -397.954     -236.854        3.590      237.042      190.412      110.488    56188.893    36256.721    12207.525       15.955        5.233      463.106      120.615        0.068      343.314       19.335      850.330
10/27/2013  15:09:00     -618.193     -358.584        6.941      390.051      321.823      154.450   152139.635   103569.752    23854.707       39.513       13.978      714.664      188.494        0.070      343.132       19.026      850.215
10/27/2013  15:10:00     -567.678     -406.145       -5.966      357.901      265.646      130.021   128093.457    70567.558    16905.392       35.137       10.778      698.006      153.466        0.048      343.251       19.229      850.127
10/27/2013  15:11:00     -582.837     -457.254      -17.068      315.212      255.093      135.893    99358.356    65072.443    18467.035       36.595        9.145      740.797      150.825        0.041      343.158       19.068      850.190
10/27/2013  15:12:00     -491.011     -321.362        9.751      365.307      265.449      145.378   133449.058    70463.401    21134.702       28.472       11.252      586.826      150.577        0.066      343.015       18.824      850.063
10/27/2013  15:13:00     -658.442     -437.945       -2.980      361.212      235.385      122.693   130474.238    55406.302    15053.662       41.311       10.047      790.785      140.621        0.032      343.078       18.932      850.019
10/27/2013  15:14:00     -684.085     -424.395      -21.858      277.790      238.753      126.090    77167.541    57002.897    15898.585       39.929        7.503      805.036      142.141        0.031      343.053       18.891      849.961
10/27/2013  15:15:00     -460.624     -182.223       -3.585      298.642      185.569      124.287    89187.128    34435.828    15447.208       19.221        6.954      495.359      144.590        0.085      343.192       19.126      849.961
10/27/2013  15:16:00     -573.441     -372.555      -30.364      320.475      359.362      135.098   102704.518   129140.897    18251.473       35.928       12.505      683.836      166.298        0.059      343.154       19.062      849.928
10/27/2013  15:17:00     -742.870     -484.742      -28.148      298.503      264.656      129.844    89103.918    70042.918    16859.425       48.179        8.800      887.035      141.799        0.026      343.138       19.035      849.877
10/27/2013  15:18:00     -474.769     -318.278        5.754      330.589      218.539      130.845   109288.859    47759.269    17120.507       25.042        8.708      571.582      149.052        0.068      343.184       19.114      849.913
10/27/2013  15:19:00     -495.815     -357.948        4.433      300.838      300.340      126.560    90503.765    90204.392    16017.402       28.532        9.836      611.522      148.126        0.059      343.151       19.058      849.881
10/27/2013  15:20:00     -435.083     -195.605      -13.119      216.572      199.763      118.703    46903.326    39905.361    14090.381       16.430        5.045      477.031      119.772        0.063      343.214       19.165      849.873
10/27/2013  15:21:00     -450.796     -231.696       -8.423      228.745      184.430      105.557    52324.452    34014.510    11142.378       17.721        4.874      506.853       98.219        0.038      343.248       19.221      849.850
10/27/2013  15:22:00     -455.466     -335.370       -8.636      212.392      227.379      103.151    45110.181    51701.421    10640.047       21.371        5.373      565.617      110.277        0.038      343.239       19.209      849.819
10/27/2013  15:23:00     -491.145     -368.146      -16.480      254.011      240.394      109.093    64521.637    57789.510    11901.266       25.560        6.711      613.803      127.311        0.043      343.230       19.193      849.879
10/27/2013  15:24:00     -575.806     -409.353      -15.656      356.260      290.885      147.584   126921.395    84613.836    21781.040       36.630       11.666      706.486      190.421        0.073      343.068       18.915      849.771
10/27/2013  15:25:00     -343.380     -336.396        4.466      232.109      236.422      118.366    53874.712    55895.284    14010.620       17.742        6.189      480.699      111.936        0.054      343.105       18.978      849.822
10/27/2013  15:26:00     -328.740     -191.850       16.700      291.831      231.818      116.466    85165.496    53739.644    13564.404       14.879        7.623      380.627      120.564        0.100      343.144       19.044      849.833
10/27/2013  15:27:00     -518.295     -377.149      -22.619      298.079      284.364      122.849    88851.344    80862.928    15091.784       29.806        9.240      640.993      126.524        0.039      342.981       18.768      849.730
10/27/2013  15:28:00     -560.537     -342.034      -15.027      326.012      253.256      128.354   106284.132    64138.382    16474.691       30.912        9.345      656.650      143.765        0.048      343.048       18.881      849.723
10/27/2013  15:29:00     -382.527     -344.961      -18.599      201.011      244.965      113.228    40405.302    60007.865    12820.594       18.943        5.662      515.097      110.512        0.046      343.075       18.927      849.750
10/27/2013  15:30:00     -478.171     -351.876       -4.665      304.556      242.959      127.398    92754.339    59029.079    16230.139       26.022        8.401      593.687      123.550        0.043      343.026       18.843      849.691
10/27/2013  15:31:00     -449.869     -341.578       -5.439      270.576      220.387      119.122    73211.447    48570.437    14190.070       22.751        6.799      564.851      122.245        0.047      342.950       18.715      849.695
10/27/2013  15:32:00     -409.466     -294.738       13.438      329.945      223.294      125.477   108863.406    49860.163    15744.555       21.456        8.723      504.513      157.799        0.098      343.073       18.924      849.691
10/27/2013  15:33:00     -413.225     -199.341      -14.467      266.072      160.049       97.208    70794.204    25615.529     9449.442       15.826        5.293      458.794      121.016        0.070      343.103       18.976      849.637
10/27/2013  15:34:00     -559.662     -435.335      -18.336      342.378      259.236      130.495   117222.940    67203.401    17028.962       35.223       10.073      709.040      130.847        0.034      343.012       18.820      849.596
10/27/2013  15:35:00     -538.937     -366.242        5.234      327.103      297.504      123.813   106996.299    88508.610    15329.717       31.769       10.542      651.603      151.904        0.054      342.978       18.762      849.528
10/27/2013  15:36:00     -606.799     -330.205       -6.962      315.234      224.594      147.512    99372.480    50442.438    21759.770       32.440        8.579      690.825      175.888        0.065      343.010       18.816      849.572
10/27/2013  15:37:00     -720.327     -427.612      -15.590      345.349      270.611      145.895   119266.055    73230.561    21285.474       45.784       10.689      837.689      166.126        0.039      342.908       18.645      849.529
10/27/2013  15:38:00     -680.175     -292.908      -31.342      373.999      320.628      157.022   139875.398   102802.254    24655.941       40.833       13.367      740.563      180.794        0.060      342.901       18.631      849.492
10/27/2013  15:39:00     -760.768     -537.371      -45.757      292.980      267.346      138.272    85837.570    71473.661    19119.238       52.300        8.822      931.416      133.104        0.020      342.824       18.502      849.518
10/27/2013  15:40:00     -531.153     -326.977      -13.748      355.088      237.123      130.646   126087.216    56227.467    17068.257       29.427        9.969      623.728      153.768        0.061      342.884       18.603      849.502
10/27/2013  15:41:00     -643.265     -275.209      -21.435      289.090      231.596      136.912    83573.255    53636.563    18745.014       32.295        7.798      699.665      147.277        0.044      342.867       18.574      849.506
10/27/2013  15:42:00     -523.123     -243.236      -15.323      291.450      218.160      109.090    84943.362    47593.586    11900.651       23.872        7.222      576.907      127.743        0.049      342.901       18.632      849.535
10/27/2013  15:43:00     -489.444     -262.931        5.843      331.424      267.301      135.016   109842.094    71449.924    18229.308       25.409        9.976      555.596      160.860        0.084      342.902       18.634      849.518
10/27/2013  15:44:00     -493.120     -242.139      -25.375      248.147      221.269      106.885    61576.808    48960.083    11424.493       21.218        6.098      549.362      117.720        0.046      342.889       18.611      849.486
10/27/2013  15:45:00     -434.296     -205.398      -10.374      221.728      171.511       99.963    49163.108    29416.043     9992.538       15.973        4.429      480.418      107.276        0.050      343.036       18.860      849.493
10/27/2013  15:46:00     -242.513     -258.738       -7.808      139.354      121.650       77.022    19419.608    14798.617     5932.397        8.298        2.008      354.624       59.386        0.028      343.083       18.942      849.447
10/27/2013  15:47:00     -446.827     -236.655       -7.580      212.971      215.412       95.732    45356.452    46402.235     9164.624       17.830        5.046      505.628       96.953        0.037      343.045       18.876      849.388
10/27/2013  15:48:00     -331.373     -171.532        4.623      203.534      152.997       89.838    41426.149    23408.089     8070.881       10.607        3.645      373.137       90.417        0.059      343.167       19.084      849.331
10/27/2013  15:49:00     -302.898     -229.353       -2.179      185.530      187.458      100.512    34421.403    35140.654    10102.675       11.200        3.983      379.934      111.705        0.086      343.015       18.826      849.279
10/27/2013  15:50:00     -454.066     -432.634       20.520      287.507      318.357      139.426    82660.295   101351.142    19439.581       29.858       10.173      627.175      151.286        0.058      342.904       18.635      849.165
10/27/2013  15:51:00     -450.150     -514.269       -3.634      284.058      253.056      137.339    80689.066    64037.373    18862.002       31.533        8.179      683.453      142.360        0.043      342.849       18.542      849.150
10/27/2013  15:52:00     -391.360     -249.687       23.582      311.471      205.919      130.305    97013.967    42402.523    16979.382       18.620        7.820      464.226      159.719        0.118      342.936       18.692      849.094
10/27/2013  15:53:00     -220.633     -231.367        6.156      181.409      178.789       84.910    32909.124    31965.622     7209.679        8.715        3.604      319.702       91.312        0.082      343.033       18.857      849.134
10/27/2013  15:54:00     -314.180     -420.432       -4.669      196.266      194.262       96.816    38520.492    37737.842     9373.267       18.055        4.282      524.854       96.218        0.034      342.871       18.580      849.051
10/27/2013  15:55:00     -234.203     -228.407        5.068      186.313      160.698       88.228    34712.680    25823.740     7784.194        8.767        3.416      327.141      100.874        0.095      342.995       18.793      849.016
10/27/2013  15:56:00     -295.560     -566.978      -14.840      261.263      246.628      124.883    68258.482    60825.540    15595.842       27.684        7.234      639.390      122.813        0.037      342.873       18.582      849.000
10/27/2013  15:57:00     -455.467     -325.036      -24.914      197.467      196.629       97.231    38993.218    38662.874     9453.775       20.040        4.355      559.553       83.776        0.022      342.870       18.579      848.984
10/27/2013  15:58:00     -259.206     -276.907       -5.537      182.519      194.317       88.015    33313.325    37759.049     7746.697       11.134        3.941      379.295       75.816        0.040      342.903       18.636      848.974
10/27/2013  15:59:00     -305.391     -150.059       -5.379      150.919      118.737       71.402    22776.552    14098.373     5098.307        7.888        2.099      340.267       75.976        0.050      342.955       18.722      848.941
10/27/2013  16:00:00     -122.039     -108.720        8.789      143.891      157.937       71.595    20704.522    24944.064     5125.905        3.877        2.539      163.443       74.317        0.207      343.010       18.820      848.904
10/27/2013  16:01:00     -563.414     -451.788      -13.613      390.783      309.688      126.395   152710.978    95906.572    15975.573       39.312       13.230      722.183      163.033        0.051      342.686       18.266      848.792
10/27/2013  16:02:00     -611.473     -320.518      -26.825      278.266      290.828      104.784    77431.775    84580.725    10979.614       32.514        8.650      690.385      120.095        0.030      342.701       18.292      848.731
10/27/2013  16:03:00     -270.974     -270.308        9.256      204.482      231.132      101.431    41812.748    53421.941    10288.152       12.603        5.276      382.744      117.998        0.095      342.804       18.467      848.692
10/27/2013  16:04:00     -501.516     -198.735        3.479      286.681      193.644      118.083    82185.858    37497.959    13943.674       21.230        6.681      539.457      139.834        0.067      342.731       18.342      848.666
10/27/2013  16:05:00     -424.188     -459.138      -16.218      295.938      312.233      109.452    87579.231    97489.197    11979.635       29.399        9.852      625.095      110.697        0.031      342.691       18.276      848.645
10/27/2013  16:06:00     -589.097     -540.375        1.899      443.900      323.386      169.540   197046.797   104578.591    28743.899       48.465       16.518      799.400      194.437        0.059      342.597       18.115      848.411
10/27/2013  16:07:00     -351.091     -409.000      -14.018      337.432      280.942      165.802   113860.440    78928.677    27490.239       25.547       11.014      539.023      165.351        0.094      342.642       18.190      848.377
10/27/2013  16:08:00     -440.670     -490.352       13.096      364.793      318.127      159.438   133073.700   101204.904    25420.516       34.721       12.985      659.269      139.140        0.045      342.671       18.241      848.377
10/27/2013  16:09:00     -398.786     -434.485       -3.039      268.173      223.881      115.264    71917.000    50122.693    13285.871       24.155        6.766      589.752      121.324        0.042      342.657       18.217      848.369
10/27/2013  16:10:00     -686.682     -335.638      -41.668      378.976      256.697      135.204   143622.703    65893.176    18280.251       40.682       11.390      764.320      157.585        0.043      342.611       18.138      848.384
10/27/2013  16:11:00     -490.086     -390.380       12.583      355.561      261.038      130.683   126423.642    68140.977    17078.096       30.216       10.582      626.562      160.993        0.066      342.570       18.070      848.369
10/27/2013  16:12:00     -678.599     -454.877        6.640      474.714      358.118      177.745   225353.436   128248.191    31593.374       52.626       19.260      816.951      198.850        0.059      342.439       17.846      848.281
10/27/2013  16:13:00     -595.326     -397.074        8.439      412.563      342.042      193.861   170208.335   116992.878    37582.071       41.841       16.239      715.598      207.921        0.084      342.438       17.844      848.233
10/27/2013  16:14:00     -878.684     -675.381      -26.357      383.784      319.266      159.341   147289.895   101930.655    25389.547       75.172       13.731     1108.254      173.854        0.025      342.401       17.782      848.266
10/27/2013  16:15:00     -493.972     -387.047      -25.973      259.034      200.227      108.478    67098.781    40090.696    11767.437       25.670        5.948      627.545      111.317        0.031      342.440       17.849      848.273
10/27/2013  16:16:00     -492.039     -393.946      -22.257      304.968      199.849       97.526    93005.589    39939.478     9511.246       27.010        7.123      630.314      101.742        0.026      342.470       17.900      848.244
10/27/2013  16:17:00     -360.140     -258.591       -8.555      274.077      170.792       92.590    75118.135    29169.932     8572.886       15.473        5.643      443.362      103.433        0.054      342.501       17.952      848.210
10/27/2013  16:18:00     -671.330     -407.532        3.264      369.035      342.040      137.920   136186.752   116991.164    19021.858       44.444       13.610      785.345      162.439        0.043      342.422       17.817      848.259
10/27/2013  16:19:00     -372.594     -278.776      -15.513      266.851      215.700      111.114    71209.583    46526.428    12346.328       17.341        6.504      465.341      131.122        0.079      342.443       17.853      848.145
10/27/2013  16:20:00     -373.419     -345.159      -26.089      247.696      342.889      114.600    61353.353   117572.676    13133.215       22.563        9.603      508.504      132.791        0.068      342.477       17.910      848.088
10/27/2013  16:21:00     -581.250     -235.992      -10.601      306.849      269.732      107.085    94156.543    72755.259    11467.155       28.599        8.919      627.331      118.888        0.036      342.486       17.926      848.064
10/27/2013  16:22:00     -646.221     -250.566        2.542      331.410      274.937      143.711   109832.501    75590.580    20652.927       34.320       10.304      693.098      160.299        0.053      342.344       17.684      847.918
10/27/2013  16:23:00     -632.480     -485.008        2.100      297.835      243.400      138.796    88705.403    59243.651    19264.226       40.121        8.361      797.034      160.866        0.041      342.304       17.617      848.089
10/27/2013  16:24:00     -620.232     -440.255      -13.686      355.175      218.164      162.274   126149.395    47595.610    26332.924       38.936       10.004      760.600      192.667        0.064      342.210       17.457      847.935
10/27/2013  16:25:00     -510.896     -259.174        1.907      279.842      258.403      128.985    78311.379    66772.296    16637.036       24.493        8.086      572.875      141.903        0.061      342.290       17.594      847.938
10/27/2013  16:26:00     -698.364     -460.747      -14.020      447.829      288.771      170.990   200550.641    83388.525    29237.625       50.663       15.659      836.660      227.568        0.074      342.271       17.561      847.827
10/27/2013  16:27:00     -778.766     -436.386      -38.242      356.510      300.431      144.901   127099.091    90258.891    20996.161       51.832       11.918      892.698      172.245        0.037      342.215       17.465      847.816
10/27/2013  16:28:00     -382.476     -177.617        5.225      265.882      207.134      119.022    70693.479    42904.392    14166.256       15.279        6.388      421.706      126.370        0.090      342.296       17.603      847.885
10/27/2013  16:29:00     -318.136     -220.125       27.385      259.696      223.578      107.519    67442.194    49987.327    11560.381       13.968        6.449      386.866      120.275        0.097      342.360       17.713      847.837
10/27/2013  16:30:00     -603.075     -507.457      -12.899      297.568      217.887      142.509    88546.887    47474.680    20308.683       38.883        7.817      788.170      158.210        0.040      342.220       17.474      847.754
10/27/2013  16:31:00     -521.099     -372.503        1.067      279.818      230.546      132.109    78297.959    53151.634    17452.663       27.958        7.445      640.549      164.898        0.066      342.199       17.438      847.750
10/27/2013  16:32:00     -556.161     -337.051      -20.979      259.238      247.981      126.925    67204.594    61494.545    16109.965       28.406        7.240      650.322      130.862        0.040      342.217       17.468      847.745
10/27/2013  16:33:00     -323.824     -240.138       -3.483      327.762      179.564      116.690   107427.773    32243.269    13616.648       15.789        7.664      403.148      158.168        0.154      342.295       17.600      847.799
10/27/2013  16:34:00     -617.686     -400.555      -22.374      330.307      265.251      133.643   109102.827    70358.292    17860.527       36.987        9.866      736.193      156.324        0.045      342.151       17.358      847.750
10/27/2013  16:35:00     -550.334     -288.158      -18.974      322.230      218.273      116.484   103832.206    47643.100    13568.518       27.563        8.252      621.211      137.992        0.049      342.193       17.429      847.755
10/27/2013  16:36:00     -447.084     -196.255       -4.811      297.531      220.874      122.765    88524.491    48785.142    15071.123       19.538        7.619      488.262      138.703        0.081      342.187       17.418      847.756
10/27/2013  16:37:00     -516.897     -295.327       -9.475      263.175      198.820      110.444    69260.880    39529.279    12197.825       23.772        6.049      595.315      127.673        0.046      342.166       17.382      847.719
10/27/2013  16:38:00     -538.899     -347.545      -19.809      290.682      266.259      118.427    84495.834    70894.100    14024.974       29.048        8.471      641.248      139.425        0.047      342.146       17.349      847.586
10/27/2013  16:39:00     -504.661     -288.315        9.625      341.455      216.864      131.217   116591.637    47030.068    17217.869       25.934        9.042      581.212      155.423        0.072      342.139       17.338      847.461
10/27/2013  16:40:00     -508.226     -338.639      -22.161      258.843      229.403      106.389    66999.774    52625.944    11318.538       25.218        6.547      610.713      103.290        0.029      342.164       17.380      847.512
10/27/2013  16:41:00     -445.372     -314.767      -22.534      186.730      158.320       87.138    34868.235    25065.304     7592.948       18.272        3.376      545.375       86.868        0.025      342.196       17.432      847.505
10/27/2013  16:42:00     -327.075     -205.788       19.616      245.833      245.844      115.397    60433.855    60439.206    13316.578       14.193        6.709      386.428      142.077        0.135      342.227       17.485      847.512
10/27/2013  16:43:00     -576.326     -220.105      -13.935      327.964      256.631      139.170   107560.611    65859.252    19368.286       28.676        9.639      616.926      144.180        0.055      342.124       17.312      847.544
10/27/2013  16:44:00     -473.053     -372.744      -24.409      260.083      221.792      123.598    67643.357    49191.697    15276.559       24.769        6.606      602.261      125.819        0.044      342.055       17.194      847.583
10/27/2013  16:45:00     -271.904      -80.222       12.620      259.139      203.019      111.319    67153.066    41216.577    12391.986       10.062        6.038      283.491      118.563        0.175      342.118       17.301      847.571
10/27/2013  16:46:00     -384.816     -233.463        9.809      315.452      246.622      134.252    99510.254    60822.166    18023.581       19.049        8.918      450.098      162.371        0.130      342.085       17.243      847.569
10/27/2013  16:47:00     -395.396     -239.746       -2.925      286.941      235.590      141.158    82335.290    55502.489    19925.678       18.577        7.888      462.403      154.940        0.112      342.046       17.179      847.531
10/27/2013  16:48:00     -433.952     -321.339      -25.592      250.631      238.633      104.781    62816.124    56945.883    10978.994       21.146        6.537      539.975      112.654        0.044      342.005       17.109      847.530
10/27/2013  16:49:00     -313.738     -232.091       14.664      212.994      184.918      103.347    45366.370    34194.726    10680.533       12.136        4.512      390.254      102.383        0.069      342.042       17.172      847.539
10/27/2013  16:50:00     -595.389     -429.015       14.769      310.405      269.262      153.518    96351.420    72502.023    23567.878       36.556        9.621      733.854      167.339        0.052      341.927       16.976      847.450
10/27/2013  16:51:00     -545.157     -170.947      -20.163      244.023      253.193       97.684    59547.134    64106.917     9542.170       22.999        6.660      571.330       91.918        0.026      341.962       17.035      847.442
10/27/2013  16:52:00     -591.838     -361.495      -43.126      298.975      240.879      141.622    89386.195    58022.664    20056.683       32.511        8.373      693.506      140.869        0.041      341.929       16.978      847.323
10/27/2013  16:53:00     -529.417     -131.946       -7.628      330.041      193.503      116.219   108926.808    37443.323    13506.783       22.879        7.994      545.611      125.058        0.053      342.009       17.115      847.359
10/27/2013  16:54:00     -471.721     -310.464       -3.642      278.417      208.032      118.804    77516.122    43277.123    14114.367       22.689        6.745      564.720      132.498        0.055      341.954       17.022      847.367
10/27/2013  16:55:00     -658.685     -186.199      -31.281      267.885      242.464      124.995    71762.114    58788.561    15623.677       30.782        7.309      684.497      129.126        0.036      341.921       16.966      847.265
10/27/2013  16:56:00     -704.437      -47.734      -19.534      332.760      231.774      126.885   110728.934    53719.143    16099.767       33.969        9.027      706.052      148.005        0.044      341.897       16.925      847.220
10/27/2013  16:57:00     -429.463     -148.020       -2.417      243.189      219.891      102.636    59140.822    48352.041    10534.127       16.217        5.901      454.256      114.966        0.064      341.949       17.014      847.267
10/27/2013  16:58:00     -337.556     -109.576      -11.128      209.926      194.557       89.616    44068.856    37852.269     8031.027       10.800        4.498      354.896       79.149        0.050      341.968       17.046      847.270
10/27/2013  16:59:00     -529.787     -279.127      -14.335      328.718      218.328      114.077   108055.357    47667.256    13013.472       26.374        8.437      598.821      126.391        0.045      341.866       16.873      847.279
10/27/2013  17:00:00     -473.403     -310.185      -14.558      269.764      266.720      129.022    72772.651    71139.599    16646.635       24.052        8.028      565.973      145.830        0.066      341.830       16.812      847.181
10/27/2013  17:01:00     -485.703     -324.669      -10.648      323.466      224.397      122.906   104630.406    50354.136    15105.960       25.573        8.505      584.224      149.601        0.066      341.797       16.756      847.102
10/27/2013  17:02:00     -427.425     -211.172       -7.340      298.533      203.928      128.369    89121.973    41586.510    16478.699       18.724        7.359      476.745      155.971        0.107      341.837       16.823      847.076
10/27/2013  17:03:00     -352.539     -190.606       -7.273      183.482      158.976       89.866    33665.783    25273.507     8075.852       11.383        3.351      400.767       80.339        0.040      341.850       16.845      847.052
10/27/2013  17:04:00     -378.023     -176.545       -6.281      221.055      130.286       81.883    48865.171    16974.560     6704.895       12.331        3.627      417.216       98.488        0.056      341.826       16.806      846.991
10/27/2013  17:05:00     -465.153     -245.241      -24.770      232.816      189.713      100.837    54203.304    35990.895    10168.080       18.873        5.018      525.843      105.469        0.040      341.827       16.806      846.983
10/27/2013  17:06:00     -454.092     -217.022      -22.472      280.172      232.073       98.640    78496.416    53858.043     9729.862       19.792        7.104      503.287      116.840        0.054      341.809       16.777      846.838
10/27/2013  17:07:00     -378.150     -252.704      -18.234      225.861      184.306      101.304    51013.094    33968.563    10262.425       15.120        4.762      454.815      105.997        0.054      341.822       16.799      846.773
10/27/2013  17:08:00     -472.192     -211.448        4.684      283.222      250.057      106.147    80214.707    62528.667    11267.234       21.083        7.701      517.373      127.246        0.060      341.788       16.740      846.679
10/27/2013  17:09:00     -501.739     -175.891      -11.461      264.498      290.499      123.593    69959.310    84389.499    15275.249       22.619        8.481      531.676      129.738        0.060      341.670       16.541      846.651
10/27/2013  17:10:00     -333.909     -155.595        1.208      218.606      154.114      104.029    47788.373    23751.013    10822.048       10.902        4.118      368.381       99.130        0.072      341.708       16.606      846.537
10/27/2013  17:11:00     -220.471     -167.771       31.939      236.604      149.623       97.909    55981.219    22386.994     9586.262        8.285        4.398      277.047      118.801        0.184      341.727       16.637      846.524
10/27/2013  17:12:00     -182.130      -44.472       25.991      236.550      126.874       96.710    55955.745    16096.975     9352.877        5.860        4.070      187.481      119.831        0.409      341.736       16.652      846.463
10/27/2013  17:13:00     -280.648      -80.212        3.148      256.705      141.132       87.357    65897.495    19918.338     7631.233        8.931        4.672      291.886      103.931        0.127      341.706       16.601      846.374
10/27/2013  17:14:00     -383.161     -207.432        7.312      220.375      171.296      104.644    48565.007    29342.306    10950.273       13.936        4.443      435.707      118.692        0.074      341.688       16.572      846.363
10/27/2013  17:15:00     -602.208     -379.964        0.755      369.980      282.844      137.859   136885.448    80000.963    19005.127       37.142       11.795      712.058      174.239        0.060      341.605       16.431      846.315
10/27/2013  17:16:00     -658.564     -363.484      -10.663      395.284      306.900      147.709   156249.214    94187.678    21818.000       41.905       13.613      752.215      179.270        0.057      341.557       16.349      846.233
10/27/2013  17:17:00     -810.147     -513.109      -31.942      353.154      264.839      155.738   124717.999    70139.577    24254.374       56.984       10.956      958.968      180.073        0.035      341.541       16.321      846.177
10/27/2013  17:18:00     -499.996     -265.976       -3.500      319.589      237.431      126.397   102137.338    56373.543    15976.247       24.759        8.724      566.339      148.456        0.069      341.571       16.372      846.240
10/27/2013  17:19:00     -460.849     -308.606      -31.535      226.100      149.903      101.683    51121.007    22471.026    10339.345       19.626        4.197      554.634      109.066        0.039      341.591       16.406      846.247
10/27/2013  17:20:00     -482.723     -360.260      -10.011      303.282      233.951      120.724    91980.198    54733.266    14574.179       26.207        8.064      602.336      145.904        0.059      341.548       16.333      846.234
10/27/2013  17:21:00     -433.711     -195.172      -14.449      258.248      248.568      112.576    66691.833    61786.242    12673.344       18.376        7.058      475.602      142.674        0.090      341.538       16.316      846.216
10/27/2013  17:22:00     -371.270     -324.967        6.796      320.806      217.330      114.778   102916.585    47232.344    13173.880       20.338        8.166      493.401      142.502        0.083      341.527       16.297      846.213
10/27/2013  17:23:00     -505.609     -349.052      -11.020      295.419      216.497      103.690    87272.492    46871.073    10751.713       26.122        7.245      614.392      123.810        0.041      341.471       16.202      846.139
10/27/2013  17:24:00     -506.722     -188.175      -24.183      220.967      190.454       98.334    48826.538    36272.611     9669.614       19.375        4.738      540.534       86.376        0.026      341.460       16.183      846.069
10/27/2013  17:25:00     -316.406     -346.032      -12.810      246.565      265.484      109.933    60794.305    70481.889    12085.341       18.166        7.168      468.883      114.859        0.060      341.440       16.150      845.961
10/27/2013  17:26:00     -345.237     -142.337      -14.544      286.282      213.760      117.415    81957.298    45693.328    13786.356       14.052        7.072      373.428      141.116        0.143      341.446       16.160      845.927
10/27/2013  17:27:00     -721.880     -134.009      -61.144      196.503      196.585       97.629    38613.342    38645.751     9531.374       31.478        4.340      734.213       96.151        0.017      341.423       16.121      845.829
10/27/2013  17:28:00     -643.352     -209.988       -3.334      516.964      255.009      124.994   267251.930    65029.449    15623.415       40.290       17.395      676.754      157.386        0.054      341.387       16.060      845.749
10/27/2013  17:29:00     -537.385     -328.086      -13.551      303.819      264.099      119.318    92305.884    69748.210    14236.718       28.642        8.815      629.621      138.913        0.049      341.361       16.016      845.812
10/27/2013  17:30:00     -524.828     -281.970       -9.133      304.587      210.061      116.468    92773.144    44125.626    13564.775       25.272        7.523      595.778      117.037        0.039      341.363       16.020      845.913
10/27/2013  17:31:00     -879.779     -399.241      -24.202      423.545      315.386      170.702   179390.450    99468.455    29139.147       62.094       15.400      966.129      184.850        0.037      341.319       15.946      845.793
10/27/2013  17:32:00     -453.977     -289.989        0.075      248.926      169.299      105.811    61963.910    28662.066    11195.940       19.599        5.091      538.692      121.025        0.050      341.357       16.010      845.831
10/27/2013  17:33:00     -342.765     -144.672       -3.451      181.069      143.767       76.826    32785.803    20669.053     5902.254        9.888        2.968      372.045       70.245        0.036      341.344       15.989      845.890
10/27/2013  17:34:00     -370.630     -137.444        2.348      419.855      262.789      124.895   176278.572    69058.154    15598.856       20.856       13.047      395.294      155.881        0.156      341.321       15.950      845.759
10/27/2013  17:35:00     -812.064     -419.677      -46.756      403.575      292.804      147.815   162872.997    85734.163    21849.238       55.406       13.523      914.099      167.701        0.034      341.293       15.902      845.742
10/27/2013  17:36:00     -366.571     -274.508       11.244      287.115      220.804      133.755    82434.962    48754.564    17890.344       17.944        7.454      457.962      159.323        0.121      341.296       15.908      845.832
10/27/2013  17:37:00     -684.440     -108.203      -43.845      271.023      175.740      123.635    73453.525    30884.448    15285.699       30.084        5.981      692.940      118.791        0.029      341.261       15.848      845.834
10/27/2013  17:38:00     -732.641     -193.110      -26.479      459.030      274.240      143.246   210708.459    75207.326    20519.380       44.054       15.322      757.664      175.143        0.053      341.268       15.859      845.833
10/27/2013  17:39:00     -665.383     -332.530      -26.617      331.759      291.109      135.526   110063.904    84744.170    18367.396       38.356       10.659      743.849      148.369        0.040      341.243       15.816      845.825
10/27/2013  17:40:00     -539.804     -220.714      -24.305      437.884      265.255      119.946   191742.669    70360.359    14387.045       30.855       13.825      583.184      188.950        0.105      341.243       15.818      845.844
10/27/2013  17:41:00     -466.540     -308.282        0.670      288.365      261.900      125.302    83154.351    68591.701    15700.674       24.004        8.372      559.193      142.781        0.065      341.188       15.724      845.827
10/27/2013  17:42:00     -337.417      -41.511       11.062      223.930      184.915       97.365    50144.558    34193.444     9479.900       10.474        4.691      339.961      112.045        0.109      341.184       15.719      845.853
10/27/2013  17:43:00     -732.926     -301.274      -34.427      337.233      295.987      147.951   113725.878    87608.414    21889.623       42.614       11.161      792.431      182.746        0.053      341.144       15.651      845.822
10/27/2013  17:44:00     -661.570     -133.933      -36.215      278.064      208.587      114.266    77319.493    43508.376    13056.656       29.538        6.694      674.991      117.508        0.030      341.100       15.576      845.779
10/27/2013  17:45:00     -473.427     -192.376      -29.700      248.021      245.775      124.994    61514.643    60405.389    15623.584       19.976        6.877      511.020      135.164        0.070      341.078       15.539      845.698
10/27/2013  17:46:00     -404.811     -370.680      -15.642      240.659      266.245      133.747    57916.910    70886.335    17888.299       22.408        7.335      548.886      157.596        0.082      341.040       15.476      845.680
10/27/2013  17:47:00     -722.701     -230.841      -17.933      516.441      253.508      151.310   266711.427    64266.147    22894.684       46.483       17.694      758.673      198.075        0.068      341.020       15.440      845.684
10/27/2013  17:48:00     -700.087     -192.016      -47.047      302.395      285.549      136.000    91442.873    81538.299    18496.074       36.031        9.574      725.942      140.918        0.038      341.002       15.410      845.660
10/27/2013  17:49:00     -363.263      -93.894       -9.572      207.972      197.088       99.353    43252.335    38843.501     9870.959       11.640        4.598      375.201       97.225        0.067      340.986       15.383      845.698
10/27/2013  17:50:00     -234.377      -67.114        5.124      185.259      115.394       80.783    34320.905    13315.867     6525.834        5.680        2.708      243.796       94.090        0.149      340.960       15.337      845.695
10/27/2013  17:51:00     -516.437     -111.922      -34.686      277.328      220.587      113.762    76910.904    48658.591    12941.706       20.945        6.926      528.425      129.618        0.060      340.923       15.274      845.605
10/27/2013  17:52:00     -623.828     -158.734      -35.781      350.138      266.523      135.637   122596.545    71034.730    18397.529       31.380       10.601      643.707      151.992        0.056      340.897       15.232      845.504
10/27/2013  17:53:00     -617.925       44.495      -27.882      280.084      241.478      134.683    78446.861    58311.513    18139.556       26.972        7.745      619.525      141.757        0.052      340.899       15.234      845.435
10/27/2013  17:54:00     -645.441     -247.619      -15.749      365.941      290.313      145.936   133912.690    84281.396    21297.276       35.878       11.975      691.310      147.550        0.046      340.908       15.251      845.417
10/27/2013  17:55:00     -662.451     -221.980      -36.104      382.509      269.783      149.105   146312.872    72783.027    22232.363       36.533       12.066      698.653      179.491        0.066      340.909       15.251      845.530
10/27/2013  17:56:00     -889.300     -253.088      -38.334      339.249      282.737      148.673   115089.700    79940.085    22103.777       53.672       10.857      924.613      157.337        0.029      340.912       15.257      845.508
10/27/2013  17:57:00     -806.806      -64.455      -39.684      342.416      288.864      134.993   117248.687    83442.300    18223.010       43.775       10.946      809.377      147.270        0.033      340.878       15.199      845.479
10/27/2013  17:58:00     -490.756      -47.262       -3.008      311.302      229.824      141.269    96908.870    52819.244    19956.892       20.636        8.484      493.027      145.667        0.087      340.873       15.191      845.460
10/27/2013  17:59:00     -567.369     -294.186      -21.188      320.975      300.113      127.805   103024.787    90067.752    16334.193       30.913       10.471      639.104      132.570        0.043      340.844       15.142      845.492
10/27/2013  18:00:00     -514.331     -352.660      -13.583      331.361      239.675      152.001   109799.941    57443.874    23104.202       28.969        9.517      623.623      171.789        0.076      340.854       15.158      845.488
10/27/2013  18:01:00     -601.349     -317.714      -42.816      331.755      285.993      160.620   110061.106    81792.145    25798.632       34.099       10.883      680.120      157.951        0.054      340.852       15.156      845.495
10/27/2013  18:02:00     -573.800     -211.984        5.185      311.636      318.460      135.872    97117.205   101416.995    18461.093       29.557       10.850      611.706      142.876        0.055      340.845       15.143      845.671
10/27/2013  18:03:00     -331.160     -132.986       21.083      277.228      239.516      115.709    76855.232    57367.743    13388.481       13.768        7.381      356.865      125.733        0.124      340.831       15.119      845.766
10/27/2013  18:04:00     -552.817      -20.767      -23.968      394.906      197.569      115.708   155950.508    39033.391    13388.369       25.746       10.419      553.207      161.399        0.085      340.767       15.011      845.707
10/27/2013  18:05:00     -385.852     -225.021        1.304      249.212      201.672      113.914    62106.492    40671.684    12976.471       15.762        5.788      446.673      127.853        0.082      340.744       14.974      845.690
10/27/2013  18:06:00     -479.549     -349.670      -37.147      288.119      255.483      140.642    83012.501    65271.780    19780.033       26.081        8.403      593.495      153.055        0.067      340.750       14.982      845.703
10/27/2013  18:07:00     -169.658     -114.808       22.691      199.324      169.558      103.979    39730.069    28750.064    10811.658        6.087        3.965      204.853      101.878        0.247      340.738       14.964      845.757
10/27/2013  18:08:00     -598.771     -179.605      -20.830      311.681      196.046      125.453    97145.186    38434.039    15738.514       27.124        7.566      625.128      156.729        0.063      340.694       14.889      845.837
10/27/2013  18:09:00     -782.946      -73.495      -41.262      317.634      232.088      142.309   100891.470    53864.802    20251.888       39.753        8.750      786.388      160.042        0.041      340.661       14.831      845.955
10/27/2013  18:10:00     -613.507      -90.208      -24.083      419.257      238.531      115.388   175776.040    56897.115    13314.341       31.551       12.299      620.103      135.240        0.048      340.662       14.833      845.985
10/27/2013  18:11:00     -517.345     -236.458      -19.897      241.260      187.163      115.934    58206.602    35029.954    13440.683       21.530        5.334      568.822      115.296        0.041      340.641       14.798      845.964
10/27/2013  18:12:00     -459.548      -85.913      -16.090      324.254      204.329      114.241   105140.852    41750.156    13051.044       18.936        7.997      467.510      124.411        0.071      340.624       14.769      845.987
10/27/2013  18:13:00     -706.482     -127.214      -28.109      335.578      267.064      131.696   112612.412    71323.051    17343.943       35.865       10.064      717.844      148.892        0.043      340.619       14.761      845.949
10/27/2013  18:14:00     -679.572     -171.652      -25.819      293.661      220.148      118.015    86236.616    48465.221    13927.517       32.026        7.431      700.915      136.750        0.038      340.606       14.737      845.967
10/27/2013  18:15:00     -598.702     -108.960      -42.392      231.698      226.075      101.726    53683.850    51109.752    10348.183       24.361        5.757      608.536      114.745        0.036      340.611       14.747      845.987
10/27/2013  18:16:00     -396.259     -153.892       14.729      238.367      221.802      117.241    56818.917    49196.037    13745.528       15.032        5.988      425.093      123.340        0.084      340.599       14.727      845.955
10/27/2013  18:17:00     -798.452     -152.027      -44.495      428.688      311.974      140.852   183773.798    97327.999    19839.163       48.173       15.047      812.797      153.528        0.036      340.608       14.742      845.899
10/27/2013  18:18:00     -702.917     -164.102      -39.764      332.168      200.435      133.294   110335.854    40174.188    17767.365       34.541        8.414      721.819      163.083        0.051      340.608       14.743      845.932
10/27/2013  18:19:00     -621.342     -233.327      -18.437      313.729      235.149      134.528    98426.035    55295.265    18097.853       30.630        8.591      663.707      135.193        0.041      340.575       14.686      845.885
10/27/2013  18:20:00     -530.543     -141.804      -27.687      362.375      215.023      129.978   131315.547    46235.051    16894.310       24.837        9.722      549.167      148.247        0.073      340.553       14.649      845.896
10/27/2013  18:21:00     -373.051     -335.839       -5.188      327.918      318.004      138.903   107530.160   101126.672    19294.050       23.993       11.398      501.951      164.894        0.108      340.544       14.635      845.857
10/27/2013  18:22:00     -446.995     -275.799       -6.322      307.553      171.444      116.116    94588.628    29392.900    13482.847       20.666        6.873      525.233      138.704        0.070      340.536       14.621      845.891
10/27/2013  18:23:00     -508.318     -203.270      -38.414      307.596      261.641      140.049    94615.437    68455.809    19613.684       24.190        9.134      547.454      142.354        0.068      340.519       14.592      845.841
10/27/2013  18:24:00     -340.366     -167.218        3.710      271.884      189.825      115.536    73921.153    36033.554    13348.580       13.354        6.165      379.224      127.852        0.114      340.513       14.583      845.861
10/27/2013  18:25:00     -284.725     -103.971       15.187      213.262      198.489       96.727    45480.821    39397.758     9356.050        9.316        4.712      303.114      115.701        0.146      340.499       14.558      845.894
10/27/2013  18:26:00     -534.298     -315.863      -18.881      350.531      267.006      136.885   122872.312    71292.448    18737.465       29.922       10.645      620.680      158.890        0.066      340.484       14.534      845.878
10/27/2013  18:27:00     -643.349     -236.051      -28.680      254.975      265.493      132.861    65012.051    70486.278    17651.956       31.177        7.658      685.287      130.216        0.036      340.493       14.549      845.845
10/27/2013  18:28:00     -436.092     -293.406       12.214      348.195      284.538      175.587   121239.773    80961.626    30830.879       25.468       11.652      525.608      218.777        0.173      340.500       14.560      845.825
10/27/2013  18:29:00     -561.436     -389.729      -25.077      313.762      259.227      143.957    98446.481    67198.873    20723.573       32.702        9.318      683.446      148.943        0.047      340.483       14.531      845.836
10/27/2013  18:30:00     -498.471     -228.768      -30.951      405.915      225.536      120.267   164767.144    50866.520    14464.268       26.589       11.505      548.460      163.495        0.089      340.461       14.496      845.970
10/27/2013  18:31:00     -590.573     -272.746      -23.196      300.136      230.006      111.401    90081.628    52902.938    12410.282       28.952        7.770      650.513      134.899        0.043      340.492       14.546      845.942
10/27/2013  18:32:00     -525.204     -274.351      -22.792      345.635      221.301      135.314   119463.409    48974.341    18309.929       26.916        9.337      592.544      161.291        0.074      340.457       14.488      845.882
10/27/2013  18:33:00     -543.524     -274.423       -6.197      350.792      327.211      161.165   123055.261   107066.867    25974.147       31.339       12.805      608.873      187.971        0.095      340.447       14.472      845.825
10/27/2013  18:34:00     -458.729     -185.801      -29.611      284.254      227.119      118.137    80800.457    51583.212    13956.446       19.606        7.317      494.928      132.686        0.072      340.468       14.506      845.855
10/27/2013  18:35:00     -516.307      -98.833        1.664      325.406      215.260      115.733   105889.167    46336.704    13394.024       22.095        8.281      525.682      149.211        0.081      340.410       14.408      845.868
10/27/2013  18:36:00     -478.949     -253.175      -19.433      193.831      204.208       94.012    37570.610    41700.860     8838.228       19.097        4.405      541.747       93.019        0.029      340.406       14.401      845.950
10/27/2013  18:37:00     -434.735     -170.798        4.666      279.823      206.251      124.415    78300.919    42539.296    15478.971       17.723        6.816      467.082      133.638        0.082      340.399       14.389      845.959
10/27/2013  18:38:00     -301.430     -185.870       -3.139      203.992      151.779       89.700    41612.889    23037.011     8046.041        9.904        3.635      354.130      102.904        0.084      340.387       14.369      846.003
10/27/2013  18:39:00     -420.669     -304.470       -7.252      244.233      176.109      104.843    59649.646    31014.360    10992.034       18.567        5.083      519.293      124.064        0.057      340.381       14.359      846.007
10/27/2013  18:40:00     -661.804     -413.892      -28.250      297.696      301.106      152.276    88622.908    90664.997    23187.853       40.625       10.124      780.571      176.094        0.051      340.359       14.321      845.940
10/27/2013  18:41:00     -335.828     -243.862      -14.051      314.122      243.502      145.344    98672.795    59293.285    21124.770       17.574        8.955      415.029      155.863        0.141      340.360       14.324      845.961
10/27/2013  18:42:00     -190.597     -161.314       21.809      243.354      224.329      123.615    59221.289    50323.704    15280.600        9.380        6.241      249.698      131.207        0.276      340.356       14.318      845.949
10/27/2013  18:43:00     -367.313     -152.609       29.261      294.917      267.355      118.702    86976.288    71478.749    14090.130       16.578        8.627      397.754      136.049        0.117      340.347       14.302      845.959
10/27/2013  18:44:00     -358.831     -183.285       23.823      290.436      197.585      125.058    84353.180    39039.681    15639.598       15.095        6.952      402.930      136.440        0.115      340.331       14.277      845.984
10/27/2013  18:45:00     -307.876     -214.266        3.245      309.340      245.498      140.797    95691.105    60269.307    19823.700       15.822        8.789      375.096      164.171        0.192      340.310       14.239      845.967
10/27/2013  18:46:00     -712.803     -154.419      -39.354      329.566      243.043      134.179   108613.682    59069.822    18004.067       35.955        9.284      729.337      148.393        0.041      340.303       14.228      845.965
10/27/2013  18:47:00     -660.595     -253.038      -38.430      322.937      270.432      129.614   104288.267    73133.263    16799.808       34.802        9.711      707.399      152.761        0.047      340.296       14.215      845.936
10/27/2013  18:48:00     -632.951     -280.256      -22.601      345.073      272.281      141.829   119075.035    74137.071    20115.564       34.647       10.666      692.222      161.637        0.055      340.283       14.192      845.903
10/27/2013  18:49:00     -747.831     -259.029      -47.134      258.169      236.101      130.292    66651.165    55743.822    16976.099       38.395        6.969      791.421      129.768        0.027      340.267       14.167      845.849
10/27/2013  18:50:00     -552.798     -146.595      -23.847      346.915      222.700      137.764   120349.965    49595.440    18978.884       25.825        9.446      571.906      158.493        0.077      340.259       14.152      845.822
10/27/2013  18:51:00     -558.143     -315.929      -28.641      338.049      253.698      133.356   114277.025    64362.671    17783.915       30.426        9.821      641.354      138.111        0.046      340.253       14.144      845.794
10/27/2013  18:52:00     -497.036     -259.276      -11.005      259.217      203.620      111.747    67193.450    41461.120    12487.395       21.775        6.057      560.597      132.404        0.056      340.232       14.107      845.857
10/27/2013  18:53:00     -780.655     -175.479      -34.987      396.920      289.282      124.954   157545.099    83684.072    15613.511       44.910       12.842      800.134      172.370        0.046      340.170       14.002      845.792
10/27/2013  18:54:00     -565.896     -284.477      -23.625      321.987      267.366      135.478   103675.594    71484.843    18354.206       29.759        9.676      633.377      159.444        0.063      340.142       13.956      845.748
10/27/2013  18:55:00     -541.445     -411.680      -29.224      317.728      232.591      140.378   100951.159    54098.482    19705.851       31.910        8.738      680.179      154.753        0.052      340.130       13.935      845.728
10/27/2013  18:56:00     -336.813      -61.676       -8.956      247.551      197.349      107.902    61281.431    38946.674    11642.794       11.458        5.594      342.413      120.975        0.125      340.113       13.906      845.771
10/27/2013  18:57:00     -537.452     -222.419      -22.387      301.446      224.416      116.436    90869.472    50362.723    13557.457       24.678        7.739      581.657      133.187        0.052      340.090       13.867      845.742
10/27/2013  18:58:00     -574.001     -138.706       -4.604      340.251      207.913      119.298   115770.589    43227.726    14232.066       26.095        8.662      590.522      144.151        0.060      340.060       13.817      845.771
10/27/2013  18:59:00     -380.468     -333.248        3.088      327.688      251.089      137.572   107379.493    63045.621    18926.075       22.255        9.468      505.777      165.565        0.107      340.046       13.794      845.706
10/27/2013  19:00:00     -420.203     -359.335        7.989      292.944      221.603      137.773    85816.369    49107.818    18981.312       22.980        7.695      552.894      148.362        0.072      340.026       13.757      845.654
10/27/2013  19:01:00     -501.595     -150.087      -11.373      292.282      225.545      125.100    85428.640    50870.411    15649.991       21.308        7.597      523.568      130.942        0.063      340.036       13.776      845.665
10/27/2013  19:02:00     -264.578      -25.307       10.510      256.512      169.874      115.923    65798.513    28857.235    13438.187        8.941        5.405      265.785      122.919        0.214      340.008       13.729      845.697
10/27/2013  19:03:00     -365.230     -156.318       24.180      255.471      174.450      104.815    65265.630    30432.703    10986.194       13.253        5.334      397.276      134.591        0.115      339.984       13.688      845.602
10/27/2013  19:04:00     -540.343     -162.364       -9.742      318.828      213.627      101.613   101651.569    45636.374    10325.191       23.799        7.881      564.210      132.848        0.055      339.952       13.634      845.628
10/27/2013  19:05:00     -460.529      -54.121      -18.194      303.721      219.099      108.821    92246.554    48004.414    11842.092       18.369        7.605      463.698       94.168        0.041      339.928       13.594      845.532
10/27/2013  19:06:00     -572.069     -130.966      -48.055      249.730      187.006       93.140    62365.112    34971.185     8675.085       22.635        5.301      586.868      112.365        0.037      339.912       13.567      845.556
10/27/2013  19:07:00     -330.526      -84.018      -12.294      236.160      170.175       71.305    55771.538    28959.415     5084.469       10.312        4.491      341.038       81.339        0.057      339.872       13.499      845.496
10/27/2013  19:08:00     -595.407     -222.466      -27.508      339.283      160.189      108.124   115113.213    25660.365    11690.848       27.859        7.623      635.611      131.898        0.043      339.878       13.510      845.463
10/27/2013  19:09:00     -651.871     -213.664      -36.542      380.444      224.037      111.312   144737.920    50192.773    12390.284       33.959       10.366      685.994      125.788        0.034      339.875       13.504      845.438
10/27/2013  19:10:00     -349.068     -127.146       -6.004      312.127      226.400      119.201    97423.050    51256.886    14208.781       15.044        8.144      371.503      142.669        0.147      339.865       13.490      845.456
10/27/2013  19:11:00     -380.518     -107.295      -11.431      238.625      174.755       97.227    56941.874    30539.330     9453.168       12.667        4.847      395.356       87.018        0.048      339.862       13.480      845.483
10/27/2013  19:12:00     -542.464     -142.949      -19.613      345.241      209.504      118.552   119191.008    43891.843    14054.482       24.608        8.857      560.983      134.413        0.057      339.873       13.499      845.488
10/27/2013  19:13:00     -593.008     -212.974      -44.103      319.912      239.486      109.610   102343.565    57353.441    12014.348       28.531        8.586      630.092      133.117        0.045      339.913       13.568      845.470
10/27/2013  19:14:00     -390.954     -155.580       -6.728      228.797      217.932      107.847    52347.889    47494.495    11630.978       14.427        5.574      420.773      126.152        0.090      339.851       13.464      845.542
10/27/2013  19:15:00     -264.120     -210.724       23.089      278.877      225.785      112.379    77772.157    50979.086    12628.971       12.801        7.069      337.881      141.020        0.174      339.858       13.476      845.511
10/27/2013  19:16:00     -523.068     -119.534        4.169      338.195      201.156      135.799   114376.083    40463.916    18441.319       23.056        8.664      536.553      176.443        0.108      339.830       13.429      845.505
10/27/2013  19:17:00     -534.901     -199.701      -12.188      302.572      229.666      120.765    91549.561    52746.332    14584.198       24.249        7.944      570.964      147.305        0.067      339.827       13.424      845.543
10/27/2013  19:18:00     -688.009     -334.490      -22.034      409.296      269.290      138.797   167522.810    72517.101    19264.670       42.247       12.965      765.010      178.719        0.055      339.818       13.408      845.545
10/27/2013  19:19:00     -506.176     -240.817       -8.967      300.051      243.579      126.160    90030.395    59330.606    15916.393       23.975        8.264      560.541      143.917        0.066      339.804       13.386      845.581
10/27/2013  19:20:00     -461.227     -238.121      -16.729      313.808      237.108      117.076    98475.637    56220.044    13706.723       21.903        8.420      519.068      135.279        0.068      339.807       13.388      845.599
10/27/2013  19:21:00     -263.293     -190.834       12.814      223.429      247.334      106.567    49920.474    61174.218    11356.560       11.416        6.123      325.178      130.419        0.161      339.781       13.346      845.590
10/27/2013  19:22:00     -414.379     -202.039       -6.266      243.744      166.583      117.264    59411.161    27749.864    13750.936       15.672        5.046      461.009      128.499        0.078      339.764       13.318      845.624
10/27/2013  19:23:00     -432.909     -201.894       -2.542      295.275      284.217      140.755    87187.584    80779.287    19811.992       20.795        9.389      477.673      145.976        0.093      339.768       13.325      845.599
10/27/2013  19:24:00     -507.732      -31.919      -13.732      382.300      238.978      132.328   146153.570    57110.285    17510.586       23.985       11.039      508.735      149.825        0.087      339.745       13.287      845.509
10/27/2013  19:25:00     -431.335     -153.104       12.182      338.696      239.118      124.691   114715.053    57177.190    15547.884       19.851        9.372      457.702      156.020        0.116      339.754       13.302      845.511
10/27/2013  19:26:00     -314.864     -166.237       12.878      222.423      212.634      105.306    49471.884    45213.199    11089.403       11.634        5.289      356.054      106.808        0.090      339.732       13.265      845.543
10/27/2013  19:27:00     -263.309      -76.240       -1.395      219.724      144.566       94.168    48278.546    20899.427     8867.527        7.658        3.902      274.124      115.880        0.179      339.704       13.218      845.542
10/27/2013  19:28:00     -338.114     -219.693        3.892      228.580      169.224      100.114    52248.650    28636.737    10022.737       12.674        4.545      403.220      123.529        0.094      339.687       13.189      845.570
10/27/2013  19:29:00     -315.032     -164.326        0.389      194.492      156.643       73.956    37827.103    24536.990     5469.554        9.703        3.392      355.314       92.902        0.068      339.666       13.151      845.522
10/27/2013  19:30:00     -376.251     -183.453      -16.980      268.700      200.788      120.699    72199.928    40315.622    14568.240       15.127        6.354      418.592      122.829        0.086      339.654       13.133      845.465
10/27/2013  19:31:00     -199.291      -41.683       24.309      292.017      132.362      105.312    85273.927    17519.577    11090.629        7.795        5.694      203.604      139.579        0.470      339.622       13.081      845.457
10/27/2013  19:32:00     -268.412      -37.736      -16.456      215.912      143.246       89.613    46618.196    20519.388     8030.487        7.444        3.758      271.052      101.126        0.139      339.623       13.081      845.442
10/27/2013  19:33:00     -429.674        2.107      -27.578      229.628      179.392      105.557    52728.905    32181.649    11142.263       14.070        4.803      429.679      128.098        0.089      339.612       13.063      845.447
10/27/2013  19:34:00     -419.542     -100.958        0.358      344.482      168.957      118.318   118667.724    28546.326    13999.053       17.368        8.061      431.518      163.362        0.143      339.612       13.061      845.388
10/27/2013  19:35:00     -503.980      -25.951      -14.741      287.496      226.013      118.734    82653.709    51081.681    14097.758       20.133        7.392      504.647      106.431        0.044      339.598       13.038      845.411
10/27/2013  19:36:00     -466.387     -107.377      -26.334      270.374      172.282      103.862    73102.334    29681.032    10787.286       17.164        5.679      478.588      124.662        0.068      339.592       13.029      845.473
10/27/2013  19:37:00     -306.257     -100.794       -3.344      180.989      128.500       81.247    32756.893    16512.167     6601.136        7.991        2.794      322.418       82.790        0.066      339.592       13.028      845.543
10/27/2013  19:38:00     -340.513     -202.975      -15.258      251.259      195.391       93.118    63131.269    38177.830     8670.958       13.366        5.499      396.419      119.274        0.091      339.570       12.992      845.576
10/27/2013  19:39:00     -350.827      -79.702       -6.295      246.728      203.649       92.837    60874.841    41473.050     8618.677       12.020        5.548      359.767      113.822        0.100      339.577       13.004      845.588
10/27/2013  19:40:00     -288.380     -232.331        7.018      222.755      180.942      104.582    49619.828    32740.017    10937.393       11.523        4.665      370.325      117.632        0.101      339.571       12.994      845.661
10/27/2013  19:41:00     -254.224     -160.177       22.726      236.671      208.654      102.375    56013.167    43536.551    10480.708       10.040        5.502      300.477      120.851        0.162      339.553       12.962      845.650
10/27/2013  19:42:00     -398.755     -225.560       -0.197      279.380      203.765      121.314    78053.071    41520.196    14717.020       17.206        6.715      458.130      145.993        0.102      339.554       12.964      845.663
10/27/2013  19:43:00     -444.636     -224.067      -22.360      181.030      197.707       89.090    32771.821    39087.967     7937.064       16.409        3.990      497.903       85.629        0.030      339.555       12.968      845.666
10/27/2013  19:44:00     -204.525     -116.312        9.769      188.423      169.827       87.496    35503.375    28841.132     7655.532        6.372        3.600      235.285      101.243        0.185      339.540       12.941      845.673
10/27/2013  19:45:00     -250.433     -144.235       -6.125      170.329      205.649       75.620    29011.887    42291.498     5718.355        8.028        3.851      288.999       76.268        0.070      339.539       12.940      845.681
10/27/2013  19:46:00     -438.189     -383.327      -25.399      251.511      214.093      102.699    63257.551    45836.009    10547.113       22.960        5.982      582.193      122.885        0.045      339.557       12.969      845.612
10/27/2013  19:47:00     -291.971     -141.893       24.177      282.669      172.963      115.757    79901.776    29916.067    13399.758       11.457        6.161      324.624      139.140        0.184      339.527       12.919      845.639
10/27/2013  19:48:00     -360.716      -71.100      -27.428      121.336       99.499       60.401    14722.443     9899.982     3648.290        8.209        1.414      367.656       62.633        0.029      339.495       12.862      845.721
10/27/2013  19:49:00     -442.731      -45.736      -26.800      184.118      158.343       85.907    33899.445    25072.470     7379.968       13.258        3.318      445.087       88.011        0.039      339.481       12.838      845.671
10/27/2013  19:50:00     -267.593     -132.739       -9.611      129.373      104.000       65.197    16737.278    10815.917     4250.707        6.056        1.590      298.707       56.560        0.036      339.464       12.811      845.694
10/27/2013  19:51:00     -338.856     -132.700      -26.360      183.621      145.525       84.520    33716.746    21177.437     7143.664        9.757        3.102      363.913       90.789        0.062      339.468       12.817      845.755
10/27/2013  19:52:00     -227.203      -70.913      -21.607      117.998       83.872       55.166    13923.488     7034.468     3043.315        4.055        1.200      238.012       49.538        0.043      339.493       12.860      845.784
10/27/2013  19:53:00     -310.213     -184.565      -13.064      245.817      187.346       90.452    60426.233    35098.344     8181.489       11.707        5.185      360.966      104.951        0.085      339.475       12.829      845.817
10/27/2013  19:54:00     -219.358     -138.368        5.410      246.757      162.393       94.624    60889.053    26371.635     8953.609        8.174        4.811      259.352      104.022        0.161      339.459       12.803      845.777
10/27/2013  19:55:00     -473.280     -147.271      -42.318      376.568      269.243      102.186   141803.168    72491.858    10441.919       23.607       11.237      495.664      126.415        0.065      339.474       12.829      845.812
10/27/2013  19:56:00     -375.346     -183.394       -1.600      233.544      215.733      103.849    54542.902    46540.811    10784.642       14.318        5.593      417.753      117.023        0.078      339.476       12.831      845.799
10/27/2013  19:57:00     -412.010     -203.220      -11.657      181.840      163.050       83.320    33065.766    26585.254     6942.230       13.888        3.330      459.403       83.708        0.033      339.475       12.829      845.924
10/27/2013  19:58:00     -197.260      -72.383        8.604      140.376       87.114       65.224    19705.357     7588.935     4254.106        3.788        1.577      210.121       49.924        0.056      339.446       12.783      845.997
10/27/2013  19:59:00     -202.719     -154.470      -17.786      137.779      105.731       65.459    18983.053    11179.112     4284.881        4.985        1.722      254.864       60.768        0.057      339.443       12.777      845.988
10/27/2013  20:00:00     -164.473     -196.529        2.589      106.619      111.546       60.142    11367.597    12442.491     3617.107        4.655        1.371      256.272       70.290        0.075      339.446       12.782      846.018
10/27/2013  20:01:00      -81.889     -289.452       15.902      170.959      137.563       75.417    29227.100    18923.460     5687.779        7.228        2.692      300.812       67.091        0.050      339.458       12.800      845.999
10/27/2013  20:02:00     -153.808     -175.104       23.705      197.565      201.982       99.811    39031.785    40796.716     9962.307        7.232        4.490      233.063       99.404        0.182      339.414       12.728      846.001
10/27/2013  20:03:00     -311.031     -142.978      -27.814      192.439      176.936      108.417    37032.799    31306.512    11754.317        9.901        4.005      342.320      102.227        0.089      339.400       12.704      845.996
10/27/2013  20:04:00     -546.355     -298.204      -16.953      252.328      146.181       88.660    63669.210    21369.018     7860.509       24.029        4.645      622.438      104.402        0.028      339.383       12.675      845.943
10/27/2013  20:05:00     -330.037      -60.520      -28.461      144.551      158.042       70.948    20895.085    24977.163     5033.590        8.214        2.545      335.540       69.415        0.043      339.388       12.684      846.033
10/27/2013  20:06:00      -68.343      144.218      -17.926       54.782       87.143       39.838     3001.060     7593.892     1587.070        1.898        0.609      159.592       28.651        0.032      339.396       12.699      845.961
10/27/2013  20:07:00     -133.437      106.854       -8.582       89.016       81.774       40.919     7923.776     6686.993     1674.372        2.279        0.814      170.948       36.367        0.045      339.356       12.631      846.070
10/27/2013  20:08:00     -311.569       94.439      -40.972       77.917      114.788       56.515     6071.009    13176.234     3194.000        6.505        1.122      325.567       30.846        0.009      339.335       12.593      846.039
10/27/2013  20:09:00     -332.929     -114.191      -28.415      136.564      127.170       63.721    18649.817    16172.269     4060.373        8.178        1.944      351.968       61.822        0.031      339.345       12.610      846.006
10/27/2013  20:10:00     -206.782      -25.648      -19.173       93.157       92.928       40.696     8678.305     8635.525     1656.132        3.137        0.948      208.367       45.091        0.047      339.337       12.599      845.978
10/27/2013  20:11:00      -22.572      110.346        1.934       53.839       72.408       43.669     2898.608     5242.978     1906.995        1.137        0.502      112.631       43.989        0.153      339.313       12.559      845.933
10/27/2013  20:12:00      128.206       58.168        8.966      105.237       48.155       44.038    11074.758     2318.932     1939.327        1.761        0.767      140.784       36.577        0.068      339.297       12.533      845.834
10/27/2013  20:13:00       67.369      174.543       -8.437       72.667       85.986       52.013     5280.558     7393.652     2705.301        2.522        0.769      187.093       52.232        0.078      339.245       12.443      845.849
10/27/2013  20:14:00      -61.452      119.059      -21.369       88.163       87.005       39.202     7772.775     7569.941     1536.762        1.764        0.844      133.983       31.898        0.057      339.290       12.520      845.898
10/27/2013  20:15:00        3.206       63.437        4.783       70.649       36.578       36.839     4991.258     1337.922     1357.084        0.587        0.384       63.518       30.028        0.223      339.278       12.501      845.966
10/27/2013  20:16:00      -15.926      -48.847        1.482      110.439       48.890       37.466    12196.678     2390.224     1403.728        0.931        0.800       51.378       43.046        0.702      339.320       12.573      845.996
10/27/2013  20:17:00      -60.962      -53.016       18.884       75.311       56.174       31.149     5671.706     3155.565      970.285        0.834        0.490       80.790       25.148        0.097      339.285       12.514      846.020
10/27/2013  20:18:00      -28.670       43.095       -0.373       45.189       35.850       20.659     2042.032     1285.194      426.790        0.322        0.188       51.760       18.448        0.127      339.259       12.470      846.003
10/27/2013  20:19:00      -70.375       63.272       -8.458       29.450       32.442       23.208      867.310     1052.516      538.592        0.574        0.123       94.636       14.467        0.023      339.260       12.472      846.013
10/27/2013  20:20:00     -130.713       19.561       -7.944       42.507       22.653       18.607     1806.883      513.180      346.227        1.010        0.133      132.169       19.467        0.022      339.261       12.474      846.031
10/27/2013  20:21:00     -153.508      -14.726      -21.524       47.644       40.264       27.736     2269.988     1621.182      769.267        1.445        0.233      154.213       19.260        0.016      339.270       12.488      846.068
10/27/2013  20:22:00     -286.566      -63.224      -11.829      109.952       74.618       53.805    12089.359     5567.779     2894.997        5.340        1.028      293.457       53.081        0.033      339.206       12.377      846.072
10/27/2013  20:23:00     -213.388       16.897       -8.577      180.360       85.275       60.222    32529.751     7271.905     3626.745        4.465        2.171      214.056       77.909        0.132      339.231       12.421      845.961
10/27/2013  20:24:00     -282.620     -144.564       10.285      233.014      117.891       79.052    54295.658    13898.247     6249.222        8.765        3.722      317.447       88.102        0.077      339.198       12.364      845.921
10/27/2013  20:25:00     -150.840      -77.562       -4.903      124.818       90.029       58.264    15579.655     8105.292     3394.706        2.793        1.354      169.613       60.901        0.129      339.199       12.369      845.935
10/27/2013  20:26:00      -34.782       28.431       28.360      103.051      113.111       55.657    10619.505    12794.071     3097.687        1.466        1.326       44.923       42.186        0.882      339.203       12.374      845.899
10/27/2013  20:27:00     -289.810      -12.830        1.535      220.393       78.960       79.668    48573.183     6234.705     6347.057        7.265        3.058      290.093      114.365        0.155      339.195       12.360      845.882
10/27/2013  20:28:00     -329.597       15.260      -20.316      148.780       98.698       65.024    22135.550     9741.305     4228.163        7.269        1.805      329.950       59.323        0.032      339.208       12.380      845.890
10/27/2013  20:29:00     -306.066      -55.303       -2.129      118.727       79.549       58.029    14095.998     6328.068     3367.392        6.026        1.190      311.022       63.091        0.041      339.187       12.346      845.913
10/27/2013  20:30:00     -206.718     -121.846        2.706      154.933      137.974       60.490    24004.203    19036.738     3658.989        5.214        2.335      239.955       75.587        0.099      339.208       12.382      845.925
10/27/2013  20:31:00     -247.105     -213.033       -8.993      131.713      132.973       76.172    17348.221    17681.900     5802.221        7.367        2.042      326.257       76.766        0.055      339.198       12.365      845.940
10/27/2013  20:32:00     -182.487      -37.410       -8.185       94.505       59.659       34.787     8931.173     3559.200     1210.154        2.423        0.685      186.282       35.710        0.037      339.184       12.342      845.981
10/27/2013  20:33:00     -151.457      -41.390        0.754       75.041       55.596       34.260     5631.225     3090.968     1173.736        1.727        0.495      157.011       39.440        0.063      339.173       12.323      845.999
10/27/2013  20:34:00     -214.087      -73.478      -13.977      177.266      150.220       52.829    31423.100    22565.994     2790.932        5.409        2.839      226.345       73.653        0.106      339.213       12.389      846.009
10/27/2013  20:35:00     -172.594       -9.108      -21.053       93.492      116.318       63.641     8740.795    13529.777     4050.152        2.831        1.316      172.834       61.376        0.126      339.204       12.375      845.937
10/27/2013  20:36:00     -191.500        5.342      -33.648       79.338       98.077       37.856     6294.498     9619.028     1433.066        2.759        0.867      191.574       26.705        0.019      339.215       12.394      845.902
10/27/2013  20:37:00     -360.252       61.048      -25.918      107.179       81.715       51.912    11487.250     6677.304     2694.889        7.752        1.043      365.388       49.358        0.018      339.216       12.396      845.911
10/27/2013  20:38:00     -335.611      -44.548      -19.635       84.582      113.756       42.001     7154.141    12940.387     1764.113        6.843        1.093      338.555       28.935        0.007      339.213       12.389      845.890
10/27/2013  20:39:00     -138.988      -51.886      -18.541      124.229       65.275       46.731    15432.937     4260.797     2183.824        2.211        1.094      148.357       45.559        0.094      339.213       12.392      845.887
10/27/2013  20:40:00     -303.646      -60.359      -32.029       69.582       78.853       42.818     4841.605     6217.833     1833.372        5.488        0.645      309.587       35.747        0.013      339.156       12.294      845.861
10/27/2013  20:41:00     -306.179     -109.820      -19.190       89.943       84.947       52.233     8089.707     7216.062     2728.307        6.210        0.902      325.279       52.593        0.026      339.164       12.306      845.825
10/27/2013  20:42:00     -300.054     -118.100       -9.519       96.594       79.004       50.707     9330.399     6241.631     2571.173        6.110        0.907      322.459       49.637        0.024      339.163       12.305      845.793
10/27/2013  20:43:00     -232.589     -124.064      -14.049      112.533       87.307       54.672    12663.713     7622.527     2989.002        4.648        1.164      263.608       57.697        0.048      339.151       12.284      845.775
10/27/2013  20:44:00     -237.920     -112.257      -10.805       88.523       98.615       52.702     7836.390     9724.879     2777.551        4.483        1.017      263.074       45.772        0.030      339.142       12.269      845.728
10/27/2013  20:45:00     -340.409     -103.038      -11.843      154.560       92.375       58.947    23888.946     8533.152     3474.717        8.126        1.795      355.662       60.043        0.029      339.170       12.318      845.699
10/27/2013  20:46:00     -419.283      -90.646      -10.579      137.558      117.339       70.185    18922.223    13768.378     4925.970       11.087        1.881      428.969       73.990        0.030      339.089       12.180      845.664
10/27/2013  20:47:00     -415.772      -88.601      -25.670      211.483      122.767       64.322    44725.158    15071.773     4137.287       12.264        3.197      425.107       62.805        0.022      339.089       12.180      845.593
10/27/2013  20:48:00     -451.988     -156.669       -8.207      213.237      154.473       95.921    45469.911    23861.958     9200.758       15.371        3.927      478.370      104.087        0.047      339.060       12.129      845.506
10/27/2013  20:49:00     -463.839     -157.745       -3.464      210.470      208.515       96.933    44297.668    43478.683     9395.968       16.859        4.859      489.928      102.369        0.044      339.138       12.262      845.508
10/27/2013  20:50:00     -317.621      -41.996       29.085      210.343      195.041       99.450    44244.044    38040.921     9890.203        9.782        4.609      320.385       97.250        0.092      339.177       12.328      845.518
10/27/2013  20:51:00     -351.767     -133.062       -2.245      244.701      184.620       93.751    59878.739    34084.515     8789.336       12.208        5.138      376.093      101.867        0.073      339.153       12.289      845.575
10/27/2013  20:52:00     -243.136     -219.210        9.670      222.237      169.893      122.564    49389.383    28863.791    15021.935       10.025        4.664      327.366      139.827        0.182      339.168       12.315      845.592
10/27/2013  20:53:00     -389.529     -184.244      -17.019      122.822      119.390       68.558    15085.344    14254.003     4700.140       11.000        1.702      430.904       63.708        0.022      339.125       12.241      845.640
10/27/2013  20:54:00     -486.727      -79.717      -32.147      141.596      130.975       70.998    20049.477    17154.363     5040.669       14.326        2.112      493.212       70.511        0.020      339.049       12.113      845.657
10/27/2013  20:55:00     -456.508      -83.310      -21.115      186.673      161.610       84.625    34846.974    26117.816     7161.429       14.194        3.406      464.048       86.985        0.035      339.058       12.128      845.649
10/27/2013  20:56:00     -358.331      -91.509        1.764      144.023       94.990       61.370    20742.661     9023.079     3766.261        8.515        1.677      369.831       68.635        0.034      339.074       12.155      845.632
10/27/2013  20:57:00     -228.260      -91.812        3.011      123.434       96.872       57.137    15235.926     9384.270     3264.692        4.421        1.394      246.032       56.283        0.052      339.062       12.136      845.580
10/27/2013  20:58:00     -271.732      -26.476      -17.001      138.318       93.447       53.392    19131.960     8732.350     2850.723        5.277        1.536      273.018       65.451        0.057      339.029       12.079      845.570
10/27/2013  20:59:00     -318.138      -31.895       -6.492      229.996      107.200       58.676    52898.189    11491.947     3442.827        8.504        3.392      319.733       83.508        0.068      338.999       12.030      845.582
10/27/2013  21:00:00     -329.368      -53.291       -7.753      130.089      118.442       69.450    16923.250    14028.520     4823.323        7.357        1.789      333.652       67.771        0.041      338.962       11.969      845.581
10/27/2013  21:01:00     -417.325      -45.749      -23.156      163.980      135.111       75.336    26889.286    18254.892     5675.464       11.380        2.541      419.825       82.039        0.038      338.941       11.930      845.540
10/27/2013  21:02:00     -450.150     -176.292      -27.082      177.606      123.571       74.479    31543.886    15269.672     5547.068       14.340        2.618      483.440       71.514        0.022      338.946       11.940      845.538
10/27/2013  21:03:00     -354.146      -99.620      -20.008      156.014       96.136       63.291    24340.426     9242.167     4005.775        8.666        1.879      367.891       66.832        0.033      338.949       11.945      845.535
10/27/2013  21:04:00     -309.250      -89.018      -11.264      129.515      107.694       65.047    16774.065    11597.910     4231.065        6.814        1.630      321.807       71.841        0.050      338.939       11.928      845.526
10/27/2013  21:05:00     -341.395      -91.822       -4.075      215.322      159.037       75.619    46363.511    25292.684     5718.281       10.117        3.869      353.527      102.171        0.084      338.910       11.880      845.503
10/27/2013  21:06:00     -541.463      -85.941      -22.872      170.794      150.411       81.668    29170.551    22623.531     6669.685       17.977        2.923      548.241       93.241        0.029      338.894       11.852      845.507
10/27/2013  21:07:00     -595.386       51.874      -52.723      166.794      119.517       70.837    27820.307    14284.428     5017.822       20.353        2.356      597.642       80.072        0.018      338.928       11.909      845.527
10/27/2013  21:08:00     -309.874     -131.157      -10.411      156.855       81.134       52.676    24603.573     6582.762     2774.712        7.364        1.698      336.488       58.946        0.031      338.963       11.970      845.529
10/27/2013  21:09:00     -278.255      -76.464      -25.122      150.711      102.069       61.444    22713.831    10418.142     3775.405        6.040        1.845      288.570       67.533        0.055      338.961       11.966      845.495
10/27/2013  21:10:00     -247.305     -157.840      -14.675       94.166       77.408       48.621     8867.208     5991.966     2363.991        5.175        0.861      293.382       49.414        0.028      338.977       11.992      845.432
10/27/2013  21:11:00      -26.551       -6.631       17.517       62.602       75.191       36.722     3919.017     5653.640     1348.480        0.599        0.546       27.367       36.023        1.733      338.973       11.988      845.434
10/27/2013  21:12:00     -137.906       53.650       -0.129       73.229       62.400       36.259     5362.557     3893.706     1314.742        1.623        0.529      147.975       28.649        0.037      338.968       11.978      845.445
10/27/2013  21:13:00      -82.783      -98.072       18.724      106.904       67.584       41.795    11428.479     4567.599     1746.794        1.728        0.887      128.340       41.816        0.106      339.035       12.093      845.477
10/27/2013  21:14:00     -200.593     -173.856       -3.190      161.136      101.560       59.778    25964.705    10314.377     3573.381        5.516        1.993      265.449       67.697        0.065      339.040       12.099      845.469
10/27/2013  21:15:00     -255.572     -160.284       -3.756      124.519      111.305       65.337    15505.038    12388.813     4268.963        6.159        1.608      301.675       66.522        0.049      339.096       12.191      845.413
10/27/2013  21:16:00     -217.322     -192.458       -8.583      111.038       70.941       58.881    12329.331     5032.694     3466.958        5.258        1.041      290.291       57.331        0.039      339.137       12.261      845.391
10/27/2013  21:17:00     -360.279      -30.418      -21.102      192.644      149.710       65.051    37111.887    22412.993     4231.690        9.745        3.188      361.561       75.309        0.043      339.113       12.221      845.380
10/27/2013  21:18:00     -351.206        7.684       -8.025      158.377       93.821       66.445    25083.257     8802.333     4414.984        8.088        1.915      351.290       75.508        0.046      339.000       12.031      845.388
10/27/2013  21:19:00     -396.559      -44.545      -17.976      132.310      117.270       67.260    17505.808    13752.143     4523.874        9.767        1.789      399.053       68.800        0.030      338.922       11.899      845.378
10/27/2013  21:20:00     -259.942      -78.253      -14.448      140.984       89.688       53.883    19876.358     8044.016     2903.330        5.236        1.541      271.466       64.571        0.057      338.952       11.949      845.362
10/27/2013  21:21:00     -217.300      -64.010       -7.001      135.262       97.382       55.571    18295.820     9483.309     3088.114        4.111        1.543      226.532       71.084        0.098      338.930       11.914      845.345
10/27/2013  21:22:00     -129.480      -39.384       -4.164      125.726       66.608       39.113    15807.077     4436.638     1529.802        2.005        1.089      135.337       44.117        0.106      338.973       11.986      845.317
10/27/2013  21:23:00     -180.421      -59.864       -7.686       98.170       61.910       37.155     9637.284     3832.837     1380.529        2.552        0.743      190.093       45.359        0.057      338.995       12.023      845.286
10/27/2013  21:24:00     -267.968      -63.255        5.181      181.682      131.686       50.601    33008.456    17341.248     2560.418        6.436        2.646      275.333       66.165        0.058      338.975       11.991      845.322
10/27/2013  21:25:00     -223.880      -35.274       -3.731      117.920       82.514       60.735    13905.093     6808.488     3688.771        3.789        1.220      226.641       55.980        0.061      338.866       11.805      845.371
10/27/2013  21:26:00     -386.553      -13.514      -16.507      142.866      154.900       81.956    20410.576    23993.862     6716.711       10.049        2.556      386.789       80.148        0.043      338.726       11.570      845.398
10/27/2013  21:27:00     -390.026     -124.954       -5.247      212.976      100.643       81.861    45358.720    10128.946     6701.241       11.496        3.109      409.553       91.868        0.050      338.663       11.463      845.403
10/27/2013  21:28:00     -271.782      -65.429       -9.229      146.252       82.826       54.714    21389.712     6860.095     2993.674        5.473        1.562      279.546       58.078        0.043      338.688       11.506      845.391
10/27/2013  21:29:00     -258.932       52.362      -21.641      143.521       73.319       47.251    20598.219     5375.742     2232.636        4.923        1.410      264.173       56.115        0.045      338.765       11.638      845.398
10/27/2013  21:30:00       -8.403       79.574       -4.772       66.536       68.072       76.776     4427.081     4633.809     5894.486        1.069        0.748       80.016       35.657        0.199      338.817       11.727      845.405
10/27/2013  21:31:00      380.762      246.760       52.015      179.768      119.599       96.673    32316.692    14303.931     9345.632       13.226        2.798      453.729       15.145        0.001      338.130       10.568      845.462
10/27/2013  21:32:00      312.952       55.590       87.997      177.177      154.328      105.978    31391.797    23817.078    11231.232        8.760        3.322      317.851       75.152        0.056      337.507        9.524      845.512
10/27/2013  21:33:00      -27.158     -151.076      -10.808       84.923      109.767       78.455     7211.926    12048.897     6155.198        2.454        1.271      153.497       71.761        0.219      337.708        9.863      845.586
10/27/2013  21:34:00      156.286      161.733        4.542      104.880      114.705       78.760    10999.809    13157.167     6203.066        4.048        1.518      224.906       60.034        0.071      338.016       10.379      845.540
10/27/2013  21:35:00      289.419      181.558       47.367      168.188      119.568      112.363    28287.089    14296.511    12625.398        8.708        2.760      341.653       64.957        0.036      338.162       10.624      845.294
10/27/2013  21:36:00      361.966      174.288       33.262      146.708      131.846       92.348    21523.344    17383.459     8528.098       10.496        2.372      401.741       56.172        0.020      338.189       10.668      845.280
10/27/2013  21:37:00      101.882       20.592       25.139      140.916      129.628       81.796    19857.337    16803.435     6690.579        2.739        2.168      103.942       61.922        0.355      338.199       10.686      845.328
10/27/2013  21:38:00       26.229      121.733      127.814       76.174       86.762       85.297     5802.407     7527.645     7275.589        2.622        1.030      124.527       74.480        0.358      338.197       10.683      845.391
10/27/2013  21:39:00       81.008       93.464      122.780      121.010      158.408       86.457    14643.418    25093.198     7474.758        3.878        2.361      123.684       94.852        0.588      338.005       10.361      845.380
10/27/2013  21:40:00      108.201       58.680      126.547      134.325      126.217       92.780    18043.102    15930.806     8608.193        3.687        2.129      123.089       87.688        0.508      337.696        9.842      845.318
10/27/2013  21:41:00       52.506      -89.580       11.473       84.429      110.079       58.654     7128.292    12117.472     3440.316        1.680        1.134      103.834       26.822        0.067      337.729        9.898      845.353
10/27/2013  21:42:00        1.147      -61.110       30.838       63.702       83.337       33.363     4057.965     6945.062     1113.070        0.840        0.606       61.121       30.810        0.254      337.874       10.143      845.394
10/27/2013  21:43:00       21.955      -64.667       -2.975       46.968       29.040       25.506     2206.022      843.296      650.533        0.419        0.185       68.292       23.789        0.121      337.939       10.252      845.359
10/27/2013  21:44:00      -90.161      -63.442       -3.006      111.893       54.398       37.938    12520.061     2959.181     1439.317        1.454        0.846      110.245       34.583        0.098      337.844       10.092      845.319
10/27/2013  21:45:00      -77.873      -62.324       11.415       64.660       47.766       31.936     4180.930     2281.591     1019.882        0.878        0.374       99.742       32.339        0.105      337.918       10.216      845.344
10/27/2013  21:46:00      -32.495      -63.617       -4.107       37.064       73.703       35.436     1373.724     5432.097     1255.725        0.659        0.403       71.436       30.422        0.181      337.922       10.224      845.414
10/27/2013  21:47:00       87.481      216.149      -26.643      147.941      114.731       62.248    21886.511    13163.145     3874.814        4.700        1.946      233.181       64.367        0.076      337.667        9.794      845.495
10/27/2013  21:48:00      198.447      159.284       39.762      131.350       92.537       86.511    17252.869     8563.089     7484.159        4.981        1.665      254.466       47.179        0.034      337.542        9.581      845.418
10/27/2013  21:49:00      225.129      216.392       -0.058      143.124       99.202       84.868    20484.514     9841.021     7202.580        6.751        1.876      312.264       67.301        0.046      337.439        9.410      845.369
10/27/2013  21:50:00      228.679      159.425       22.153       87.033       85.298       73.872     7574.718     7275.689     5457.127        4.925        1.015      278.766       41.474        0.022      337.446        9.421      845.293
10/27/2013  21:51:00      202.616      118.524       25.840      127.642       80.001       75.034    16292.543     6400.124     5630.029        4.204        1.416      234.736       37.442        0.025      337.628        9.728      845.251
10/27/2013  21:52:00       21.710      231.544      -29.096       73.265      132.100       47.815     5367.748    17450.512     2286.293        4.001        1.255      232.560       59.173        0.065      337.741        9.917      845.308
10/27/2013  21:53:00       -0.927      300.521      -39.478       70.389      133.530       60.853     4954.567    17830.217     3703.066        5.918        1.324      300.522       59.530        0.039      337.529        9.562      845.382
10/27/2013  21:54:00       77.485      291.513      -25.517       79.960      172.022       83.358     6393.665    29591.405     6948.637        6.728        2.147      301.635       84.321        0.078      336.938        8.573      845.394
10/27/2013  21:55:00      133.750      182.521       -3.199      101.580       99.057       77.479    10318.459     9812.199     6003.070        3.867        1.307      226.280       66.004        0.085      336.945        8.584      845.360
10/27/2013  21:56:00      130.231      151.848       13.393       98.024       78.111       70.086     9608.708     6101.391     4912.086        3.041        1.031      200.045       58.204        0.085      337.355        9.272      845.299
10/27/2013  21:57:00      240.066      154.367        7.835       81.192       58.503       50.628     6592.082     3422.595     2563.151        4.705        0.629      285.414       36.195        0.016      337.324        9.217      845.271
10/27/2013  21:58:00      227.182      155.937       37.031      145.105      142.608      107.907    21055.466    20336.922    11643.818        6.516        2.652      275.550       74.601        0.073      336.771        8.294      845.237
10/27/2013  21:59:00      -14.989      326.054      -49.094       81.218      137.072       49.606     6596.444    18788.843     2460.758        6.839        1.392      326.398       53.005        0.026      336.551        7.924      845.328
10/27/2013  22:00:00       39.748      204.017      -25.742      142.566       93.182       60.181    20324.996     8682.926     3621.711        3.824        1.631      207.853       54.912        0.070      336.897        8.504      845.293
10/27/2013  22:01:00       -1.237      104.701       -1.434       54.267       86.058       52.221     2944.918     7406.046     2727.040        1.202        0.654      104.709       47.499        0.206      337.497        9.511      845.235
10/27/2013  22:02:00     -180.261       75.581      -25.268       93.568       47.357       31.476     8755.023     2242.640      990.733        2.541        0.599      195.465       24.134        0.015      337.641        9.751      845.249
10/27/2013  22:03:00     -316.374      -34.533      -30.935      135.491      130.528       70.934    18357.902    17037.474     5031.616        7.133        2.021      318.253       71.249        0.050      337.926       10.228      845.260
10/27/2013  22:04:00     -413.031      -88.503      -13.580      191.158      138.341       65.232    36541.312    19138.167     4255.245       11.926        2.997      422.406       76.311        0.033      338.131       10.571      845.338
10/27/2013  22:05:00     -384.650      -63.173      -25.123      143.500      128.637       71.822    20592.302    16547.458     5158.402        9.743        2.115      389.803       69.230        0.032      338.149       10.600      845.485
10/27/2013  22:06:00     -170.777      315.707      -36.510      125.791      153.039       64.246    15823.339    23421.048     4127.514        8.676        2.169      358.937       66.467        0.034      338.137       10.580      845.571
10/27/2013  22:07:00     -112.374      238.578      -18.994       86.751      130.706       71.927     7525.757    17084.114     5173.502        4.984        1.489      263.719       54.794        0.043      338.039       10.416      845.600
10/27/2013  22:08:00     -220.457      261.630      -34.451      111.287      143.526       59.029    12384.708    20599.734     3484.471        7.735        1.823      342.128       52.332        0.023      337.103        8.848      845.666
10/27/2013  22:09:00     -354.558      160.715      -35.832      180.801      245.840      100.752    32689.159    60437.074    10150.907       12.803        5.164      389.283      108.180        0.077      336.634        8.065      845.848
10/27/2013  22:10:00     -178.807      174.116      -35.214      120.155      165.813       76.645    14437.340    27493.896     5874.497        5.566        2.390      249.577       74.887        0.090      336.002        7.010      845.821
10/27/2013  22:11:00     -300.905      188.239      -25.640      223.268      145.027      113.141    49848.481    21032.763    12800.798       10.514        4.184      354.934      121.444        0.117      335.462        6.109      845.914
10/27/2013  22:12:00     -378.034      370.629      -85.109      238.321      235.497       99.771    56796.775    55459.026     9954.329       20.484        6.111      529.411      119.410        0.051      335.225        5.714      845.820
10/27/2013  22:13:00     -290.552      312.329      -55.126      167.507      165.980       92.747    28058.627    27549.251     8601.952       12.460        3.210      426.580       83.180        0.038      335.196        5.668      845.804
10/27/2013  22:14:00     -415.829      471.111      -87.064      226.340      259.843      112.602    51229.620    67518.228    12679.266       26.691        6.571      628.378      122.788        0.038      335.030        5.392      845.850
10/27/2013  22:15:00     -271.143      492.656      -58.736      182.084      266.203      132.626    33154.696    70863.923    17589.694       22.062        6.080      562.341      131.037        0.054      334.979        5.305      845.830
10/27/2013  22:16:00     -243.069      681.005      -84.770      167.489      260.214      108.795    28052.548    67711.374    11836.311       31.880        5.380      723.084      114.110        0.025      334.911        5.194      845.747
10/27/2013  22:17:00     -252.596      504.960      -58.945      190.510      260.986      115.717    36294.083    68113.679    13390.480       22.001        5.890      564.614      123.706        0.048      335.036        5.400      845.750
10/27/2013  22:18:00     -442.441      649.497     -101.755      257.966      286.800      137.384    66546.495    82254.125    18874.435       39.779        8.384      785.876      143.363        0.033      334.924        5.216      845.816
10/27/2013  22:19:00     -369.794      460.416      -97.111      167.363      183.537       94.588    28010.409    33685.812     8946.918       21.439        3.532      590.535       98.680        0.028      334.965        5.282      845.937
10/27/2013  22:20:00     -385.525      477.570      -80.665      240.222      203.444      119.820    57706.682    41389.465    14356.775       24.831        5.673      613.761      130.355        0.045      334.905        5.184      845.949
10/27/2013  22:21:00     -281.209      359.731      -51.702      184.249      222.038      113.751    33947.653    49301.061    12939.318       15.366        4.809      456.601      116.794        0.065      334.980        5.308      845.928
10/27/2013  22:22:00     -343.635      482.152      -74.576      181.608      216.006      111.213    32981.333    46658.529    12368.357       22.405        4.600      592.077      109.587        0.034      334.952        5.261      845.910
10/27/2013  22:23:00     -269.338      521.587      -56.987      143.621      204.055      102.434    20627.050    41638.447    10492.810       21.029        3.638      587.023      100.840        0.030      334.962        5.278      845.869
10/27/2013  22:24:00     -267.540      355.110      -25.687      179.524      212.175      108.822    32228.850    45018.305    11842.250       14.370        4.454      444.613      119.652        0.072      335.066        5.452      845.838
10/27/2013  22:25:00     -282.250      592.981      -83.250      206.387      238.971      111.801    42595.493    57107.034    12499.542       27.519        5.610      656.728      130.590        0.040      334.923        5.214      845.751
10/27/2013  22:26:00     -361.174      506.212      -93.033      214.646      261.236      123.366    46072.772    68244.458    15219.214       26.242        6.477      621.850      123.309        0.039      334.936        5.235      845.745
10/27/2013  22:27:00     -393.241      442.621      -77.912      227.497      225.813      118.885    51754.981    50991.298    14133.658       23.673        5.844      592.074      114.188        0.037      334.950        5.258      845.825
10/27/2013  22:28:00     -467.470      539.325     -106.472      222.509      271.318      115.523    49510.472    73613.721    13345.508       32.858        6.823      713.722      129.529        0.033      334.913        5.197      845.892
10/27/2013  22:29:00     -349.441      374.308      -53.574      210.344      218.187      114.188    44244.763    47605.482    13038.836       18.497        5.244      512.070      135.653        0.070      335.061        5.445      845.969
10/27/2013  22:30:00     -306.813      189.090      -61.513      164.534      215.104       89.680    27071.456    46269.926     8042.495       10.751        4.069      360.401       73.921        0.042      335.219        5.705      845.938
10/27/2013  22:31:00     -496.007      170.381      -70.877      307.448      231.225      112.550    94524.130    53464.819    12667.568       22.034        8.033      524.454      123.791        0.056      335.256        5.765      845.929
10/27/2013  22:32:00     -251.476      172.773      -22.233      187.794      175.752      121.490    35266.716    30888.807    14759.865        8.724        4.046      305.108      101.361        0.110      335.329        5.886      845.911
10/27/2013  22:33:00     -403.054      340.704      -59.184      183.617      236.259      123.660    33715.240    55818.430    15291.687       19.341        5.241      527.762      101.465        0.037      335.216        5.699      845.906
10/27/2013  22:34:00     -521.662      248.776      -65.926      258.243      252.755      115.698    66689.572    63885.009    13385.929       24.114        7.198      577.945       83.643        0.021      335.152        5.594      845.962
10/27/2013  22:35:00     -465.083      196.446      -65.532      299.407      262.723      120.048    89644.529    69023.560    14411.619       21.610        8.654      504.870      131.856        0.068      335.054        5.432      846.047
10/27/2013  22:36:00     -252.263      375.548      -43.552      192.034      272.010      127.797    36877.246    73989.241    16332.122       16.686        6.360      452.408      128.120        0.080      334.996        5.334      846.101
10/27/2013  22:37:00     -404.966      425.739      -90.956      212.466      197.252      117.277    45141.633    38908.504    13753.989       22.565        4.890      587.581      111.898        0.036      334.773        4.963      846.137
10/27/2013  22:38:00     -320.353      290.005      -47.240      201.296      235.639      103.819    40520.031    55525.618    10778.439       14.787        5.341      432.122      112.016        0.067      334.778        4.971      846.140
10/27/2013  22:39:00     -266.932      150.230      -21.793      185.720      296.746      121.557    34491.994    88058.041    14776.030       11.579        6.866      306.303      105.963        0.120      334.777        4.971      846.124
10/27/2013  22:40:00     -300.893      267.547      -54.109      208.767      261.232      116.693    43583.780    68241.905    13617.240       14.522        6.272      402.639      123.466        0.094      334.660        4.775      846.101
10/27/2013  22:41:00     -298.547      356.514      -14.280      248.896      233.499      158.807    61949.018    54521.825    25219.506       17.904        7.085      465.008      154.060        0.110      334.576        4.636      846.152
10/27/2013  22:42:00     -365.110      422.849      -73.930      198.904      211.950      120.282    39562.729    44922.861    14467.683       20.825        4.948      558.665      113.336        0.041      334.469        4.459      846.207
10/27/2013  22:43:00     -372.426      234.614      -37.135      253.908      188.963      106.451    64469.061    35706.913    11331.796       15.330        5.575      440.165      112.967        0.066      334.405        4.353      846.241
10/27/2013  22:44:00     -291.936       44.394       -9.211      260.496      155.572      105.677    67858.273    24202.780    11167.625        9.524        5.161      295.292      104.759        0.126      334.405        4.353      846.195
10/27/2013  22:45:00     -354.413      153.158      -35.094      236.649      276.950      113.243    56002.901    76701.439    12824.047       14.789        7.276      386.091      129.340        0.112      334.353        4.266      846.109
10/27/2013  22:46:00     -315.019      211.436      -22.584      192.000      147.644      106.235    36864.162    21798.696    11285.949       10.719        3.497      379.397       85.793        0.051      334.288        4.158      846.128
10/27/2013  22:47:00     -244.729      128.487       -7.677      266.212      231.119      125.816    70868.615    53416.030    15829.754       10.826        7.006      276.408      131.607        0.227      334.259        4.111      846.008
10/27/2013  22:48:00     -385.260      429.381      -92.454      217.092      253.831      126.750    47129.085    64430.402    16065.509       23.446        6.381      576.882      124.403        0.047      334.196        4.006      846.042
10/27/2013  22:49:00     -272.972      193.499      -43.191      180.318      176.241      100.277    32514.694    31060.941    10055.458        9.371        3.682      334.597       85.283        0.065      334.230        4.063      846.047
10/27/2013  22:50:00     -428.842      324.623      -68.470      198.403      244.370      105.312    39363.769    59716.604    11090.523       20.205        5.509      537.853      113.864        0.045      334.151        3.930      846.061
10/27/2013  22:51:00     -276.203      309.964      -51.128      183.899      224.389      103.503    33818.659    50350.214    10712.905       13.492        4.744      415.170       96.916        0.054      334.166        3.956      845.988
10/27/2013  22:52:00     -448.796      566.401      -76.737      251.783      288.852      150.838    63394.580    83435.720    22752.209       34.882        8.479      722.654      158.579        0.048      334.032        3.734      846.045
10/27/2013  22:53:00     -436.527      567.590      -80.680      230.361      254.528      124.894    53066.419    64784.324    15598.562       32.631        6.672      716.041      132.334        0.034      333.984        3.654      846.115
10/27/2013  22:54:00     -471.678      364.380      -77.266      257.110      237.367      134.537    66105.705    56342.955    18100.296       25.086        7.027      596.031      144.252        0.059      333.979        3.646      846.241
10/27/2013  22:55:00     -199.371      198.393      -37.001      185.583      140.571       90.480    34441.174    19760.169     8186.668        7.142        3.119      281.263      102.286        0.132      334.022        3.718      846.191
10/27/2013  22:56:00     -379.725      278.006      -42.410      250.330      179.940      127.276    62665.341    32378.368    16199.133       16.724        5.562      470.615      115.887        0.061      333.978        3.645      846.221
10/27/2013  22:57:00     -322.421      444.699      -69.759      215.825      206.452      109.927    46580.445    42622.375    12083.968       20.392        5.064      549.284      119.905        0.048      333.954        3.604      846.214
10/27/2013  22:58:00     -429.745      532.674     -103.072      230.482      234.204      127.391    53122.126    54851.553    16228.382       30.160        6.210      684.414      143.633        0.044      333.882        3.485      846.293
10/27/2013  22:59:00     -264.901      366.560      -53.974      177.520      160.907      100.516    31513.509    25891.131    10103.392       13.747        3.375      452.260      107.150        0.056      333.928        3.561      846.361
10/27/2013  23:00:00     -339.383      338.712      -61.981      183.060      160.641      104.581    33510.928    25805.593    10937.264       15.199        3.513      479.486      107.535        0.050      333.955        3.606      846.436
10/27/2013  23:01:00     -347.377      427.674      -63.935      219.361      208.967      111.630    48119.076    43667.399    12461.275       20.594        5.212      550.977      112.273        0.042      333.911        3.533      846.451
10/27/2013  23:02:00     -225.180      274.103      -14.565      165.504      191.532      102.246    27391.448    36684.599    10454.314       10.028        3.727      354.737      110.051        0.096      333.996        3.673      846.488
10/27/2013  23:03:00     -286.688      343.365      -46.490      174.782      190.787      106.804    30548.610    36399.646    11407.119       14.029        3.918      447.313      109.722        0.060      333.948        3.593      846.498
10/27/2013  23:04:00     -397.840      456.476      -78.701      234.155      209.907      113.559    54828.525    44061.057    12895.730       24.229        5.589      605.514      121.768        0.040      333.925        3.557      846.502
10/27/2013  23:05:00     -365.243      519.555      -71.729      194.527      233.177      115.677    37840.679    54371.643    13381.191       25.702        5.280      635.091      119.111        0.035      333.927        3.560      846.514
10/27/2013  23:06:00     -354.188      186.976      -38.943      201.425      202.930      108.250    40572.195    41180.781    11718.148       12.768        4.674      400.511       84.548        0.045      333.997        3.677      846.516
10/27/2013  23:07:00     -282.550      292.766      -49.824      196.412      178.467       86.071    38577.478    31850.501     7408.302       12.292        3.892      406.874      100.549        0.061      334.023        3.719      846.550
10/27/2013  23:08:00     -314.733      256.309      -40.863      193.872      178.806      112.799    37586.188    31971.634    12723.563       12.434        4.114      405.895      100.258        0.061      333.999        3.680      846.567
10/27/2013  23:09:00     -295.071      221.637      -35.179      197.662      159.488      105.499    39070.124    25436.429    11130.049       10.652        3.782      369.039       93.931        0.065      334.077        3.809      846.591
10/27/2013  23:10:00     -508.195      115.975      -95.435      218.958      185.732      110.761    47942.672    34496.419    12268.071       18.775        4.735      521.260      101.095        0.038      333.988        3.661      846.615
10/27/2013  23:11:00     -373.511      317.655      -76.567      207.449      242.467      105.861    43035.265    58790.010    11206.619       17.964        5.652      490.321      141.723        0.084      333.951        3.600      846.640
10/27/2013  23:12:00     -321.454      202.065      -46.996      227.420      167.469      109.823    51719.894    28045.837    12061.157       11.908        4.591      379.688       95.372        0.063      333.991        3.665      846.678
10/27/2013  23:13:00     -442.664      257.542      -55.955      229.315      191.748      114.534    52585.580    36767.304    13118.058       18.392        5.124      512.132      106.126        0.043      333.919        3.548      846.713
10/27/2013  23:14:00     -382.788      172.385      -48.145      249.279      164.314      108.910    62139.981    26999.047    11861.305       13.976        5.050      419.813      110.314        0.069      333.863        3.452      846.771
10/27/2013  23:15:00     -438.394       95.524      -67.831      192.429      185.231       99.803    37028.863    34310.343     9960.720       14.359        4.065      448.680      104.154        0.054      333.779        3.314      846.802
10/27/2013  23:16:00     -420.162      164.587      -55.393      218.843      171.371      110.571    47892.106    29368.120    12225.853       14.807        4.474      451.248       98.155        0.047      333.753        3.270      846.776
10/27/2013  23:17:00     -462.517      200.695      -73.592      255.256      188.754      115.950    65155.433    35628.232    13444.466       18.690        5.711      504.183      120.710        0.057      333.678        3.146      846.779
10/27/2013  23:18:00     -392.950      167.038      -47.257      201.159      189.508       97.861    40464.991    35913.423     9576.859       13.524        4.298      426.979       92.058        0.046      333.746        3.258      846.804
10/27/2013  23:19:00     -327.104      105.026      -18.111      196.638      202.191       99.003    38666.329    40881.252     9801.556       10.384        4.467      343.551       98.567        0.082      333.752        3.270      846.830
10/27/2013  23:20:00     -314.954       84.298      -28.603      209.247      183.925      107.045    43784.376    33828.419    11458.640        9.808        4.454      326.040      103.333        0.100      333.777        3.310      846.831
10/27/2013  23:21:00     -424.353      154.013      -52.266      187.495      149.748       93.900    35154.271    22424.487     8817.233       13.645        3.320      451.437       99.686        0.049      333.696        3.176      846.845
10/27/2013  23:22:00     -328.535      141.880      -39.586      153.746      150.200       86.109    23637.865    22560.094     7414.819        9.161        2.681      357.862       82.049        0.053      333.713        3.204      846.835
10/27/2013  23:23:00     -282.805       75.810      -24.394      158.355      164.165       74.716    25076.299    26950.025     5582.455        7.196        2.880      292.790       71.383        0.059      333.749        3.263      846.846
10/27/2013  23:24:00     -333.698      105.341      -41.980      147.280      127.744       79.342    21691.316    16318.526     6295.115        8.425        2.215      349.930       45.669        0.017      333.721        3.218      846.855
10/27/2013  23:25:00     -339.580      170.696      -41.885      188.363      142.501       72.407    35480.761    20306.670     5242.708       10.361        3.052      380.068       71.558        0.035      333.728        3.229      846.858
10/27/2013  23:26:00     -217.237      143.329       -5.929      148.450      165.341       98.497    22037.357    27337.513     9701.703        6.341        2.954      260.259       77.366        0.088      333.749        3.264      846.839
10/27/2013  23:27:00     -258.469      227.296      -32.839      156.061      167.983       96.588    24355.140    28218.174     9329.214        9.072        3.095      344.195       99.638        0.084      333.775        3.306      846.811
10/27/2013  23:28:00     -206.535      179.687      -50.061      111.503      140.747       66.458    12432.878    19809.774     4416.678        5.705        1.833      273.760       56.185        0.042      333.860        3.448      846.830
10/27/2013  23:29:00     -177.897       48.204       -9.571      115.330      130.872       60.674    13301.085    17127.488     3681.321        3.408        1.705      184.312       36.140        0.038      333.909        3.530      846.839
10/27/2013  23:30:00     -216.406       61.351      -36.117      113.001      188.238       89.845    12769.331    35433.524     8072.127        5.408        2.814      224.935       73.531        0.107      333.903        3.519      846.854
10/27/2013  23:31:00     -208.472       32.201      -21.974      148.671      136.425       58.199    22102.982    18611.735     3387.084        4.453        2.205      210.944       48.060        0.052      333.907        3.528      846.887
10/27/2013  23:32:00     -217.531      183.286      -47.111      132.521      168.370       72.460    17561.945    28348.612     5250.479        6.714        2.558      284.453       75.116        0.070      333.902        3.520      846.887
10/27/2013  23:33:00     -277.718      172.850      -57.229      175.012      128.275       73.265    30629.236    16454.408     5367.692        8.136        2.623      327.115       75.544        0.053      333.927        3.560      846.887
10/27/2013  23:34:00     -261.847      179.270      -43.297      149.252       96.988       55.818    22276.268     9406.746     3115.656        6.868        1.740      317.335       41.910        0.017      333.890        3.499      846.902
10/27/2013  23:35:00     -159.955      161.128      -29.943       88.491       75.980       53.943     7830.601     5773.024     2909.840        3.448        0.826      227.041       40.647        0.032      333.956        3.609      846.899
10/27/2013  23:36:00     -235.798      258.048      -51.173      104.204      117.283       54.985    10858.487    13755.295     3023.364        7.622        1.382      349.557       52.847        0.023      333.907        3.526      846.903
10/27/2013  23:37:00     -211.707      259.287      -47.412      106.107      106.121       64.689    11258.671    11261.771     4184.707        7.050        1.335      334.739       50.021        0.022      333.900        3.515      846.904
10/27/2013  23:38:00     -223.037      238.590      -45.931      107.186      125.276       64.155    11488.886    15694.014     4115.803        7.003        1.565      326.604       61.763        0.036      333.876        3.475      846.915
10/27/2013  23:39:00     -239.852      293.983      -49.384       94.372      146.647       68.142     8906.115    21505.336     4643.396        9.072        1.753      379.414       68.016        0.032      333.841        3.415      846.926
10/27/2013  23:40:00     -278.612      312.322      -65.224      118.700      132.880       66.635    14089.663    17657.133     4440.163       10.780        1.809      418.533       67.878        0.026      333.786        3.324      846.937
10/27/2013  23:41:00     -202.798      209.176      -47.085       96.119      110.581       54.925     9238.925    12228.197     3016.750        5.579        1.224      291.345       59.370        0.042      333.841        3.417      846.913
10/27/2013  23:42:00     -220.611      268.122      -47.321      133.864       98.307       79.689    17919.476     9664.248     6350.307        7.836        1.697      347.216       84.609        0.059      333.870        3.463      846.903
10/27/2013  23:43:00     -238.196      257.948      -56.092      101.604       96.294       63.054    10323.347     9272.460     3975.759        7.499        1.179      351.104       63.591        0.033      333.919        3.546      846.876
10/27/2013  23:44:00     -167.692      189.787      -32.762      115.105      108.856       63.920    13249.129    11849.558     4085.722        4.719        1.459      253.258       70.052        0.077      333.975        3.640      846.868
10/27/2013  23:45:00     -150.291      192.827      -30.235       71.003       86.934       49.623     5041.382     7557.468     2462.470        3.787        0.753      244.478       43.999        0.032      333.996        3.673      846.873
10/27/2013  23:46:00     -143.596      159.763      -41.507       62.433       72.855       39.309     3897.895     5307.850     1545.210        2.931        0.538      214.812       36.426        0.029      333.989        3.663      846.868
10/27/2013  23:47:00     -142.571      137.928      -25.684       64.504       94.804       40.149     4160.808     8987.730     1611.913        2.738        0.738      198.370       36.432        0.034      334.024        3.722      846.858
10/27/2013  23:48:00     -143.751      171.062      -34.696       79.700       73.264       50.087     6352.115     5367.554     2508.659        3.268        0.711      223.443       45.374        0.041      333.998        3.677      846.842
10/27/2013  23:49:00     -104.183       98.544      -18.507       53.437       75.488       35.372     2855.551     5698.399     1251.161        1.535        0.490      143.405       31.011        0.047      334.085        3.824      846.824
10/27/2013  23:50:00     -111.947       80.686      -19.450       57.923       63.808       37.591     3355.108     4071.463     1413.106        1.413        0.442      137.994       37.900        0.075      333.997        3.678      846.801
10/27/2013  23:51:00      -43.786       91.314       -4.149       54.348       57.828       26.841     2953.651     3344.132      720.421        0.864        0.351      101.269       18.715        0.034      334.030        3.734      846.780
10/27/2013  23:52:00      -68.093      124.361       -5.817       59.377       84.658       35.007     3525.612     7167.024     1225.494        1.603        0.596      141.782       46.244        0.106      334.036        3.742      846.770
10/27/2013  23:53:00      -97.779      184.774      -29.347       66.642       64.494       37.054     4441.181     4159.494     1372.980        2.727        0.499      209.050       40.529        0.038      333.887        3.495      846.757
10/27/2013  23:54:00     -101.152       76.623      -10.088       63.939       52.318       32.036     4088.132     2737.198     1026.279        1.203        0.393      126.896       20.775        0.027      333.981        3.651      846.737
10/27/2013  23:55:00      -90.445      104.049      -17.849       56.362       85.861       38.123     3176.626     7372.140     1453.343        1.566        0.600      137.864       37.565        0.074      333.890        3.500      846.714
10/27/2013  23:56:00     -155.574      186.921      -42.439       52.142       79.537       30.278     2718.743     6326.207      916.744        3.545        0.498      243.193       31.916        0.017      333.800        3.348      846.707
10/27/2013  23:57:00     -166.068      111.962      -26.767       75.908       66.826       37.440     5762.046     4465.692     1401.775        2.623        0.581      200.285       33.063        0.027      333.850        3.432      846.709
10/27/2013  23:58:00     -145.464      210.177      -30.014       69.395       83.286       46.081     4815.647     6936.558     2123.501        4.005        0.694      255.606       47.758        0.035      333.847        3.426      846.708
10/27/2013  23:59:00     -185.846      148.694      -40.959       69.182       67.823       39.259     4786.136     4599.970     1541.283        3.463        0.546      238.010       45.054        0.036      333.825        3.389      846.695
